[[{"header":{"parameterUnit":"m.s-1","parameterCategory":1,"la1":31.0,"la2":29.5877,"lo1":-88.7671,"lo2":-86.6584,"dy":0.0162,"dx":0.0185,"nx":115,"ny":88,"refTime":"2024-02-19T06:00:00:Z","depth":0,"parameterNumber":2,"parameterNumberName":"U-component_of_WINDS"},"data":[0.0,0.0,0.0,0.0,0.0,0.0,0.0,0.0,0.0,0.0,0.0,0.0,0.0,0.0,0.0,0.0,0.0,0.0,0.0,0.0,0.0,0.0,0.0,0.0,0.0,0.0,0.0,0.0,0.0,0.0,0.0,0.0,0.0,0.0,0.0,0.0,0.0,0.0,0.0,0.0,0.0,0.0,0.0,0.0,0.0,0.0,0.0,0.0,0.0,0.0,0.0,0.0,0.0,0.0,0.0,0.0,0.0,0.0,0.0,0.0,0.0,0.0,0.0,0.0,0.0,0.0,0.0,0.0,0.0,0.0,0.0,0.0,0.0,0.0,0.0,0.0,0.0,0.0,0.0,0.0,0.0,0.0,0.0,0.0,0.0,0.0,0.0,0.0,0.0,0.0,0.0,0.0,0.0,0.0,0.0,0.0,0.0,0.0,0.0,0.0,0.0,0.0,0.0,0.0,0.0,0.0,0.0,0.0,0.0,0.0,0.0,0.0,0.0,0.0,0.0,0.0,0.0,0.0,0.0,0.0,0.0,0.0,0.0,0.0,0.0,0.0,0.0,0.0,0.0,0.0,0.0,0.0,0.0,0.0,0.0,0.0,0.0,0.0,0.0,0.0,0.0,0.0,0.0,0.0,0.0,0.0,0.0,0.0,0.0,0.0,0.0,0.0,0.0,0.0,0.0,0.0,0.0,0.0,0.0,0.0,0.0,0.0,0.0,0.0,0.0,0.0,0.0,0.0,0.0,0.0,0.0,0.0,0.0,0.0,0.0,0.0,0.0,0.0,0.0,0.0,0.0,0.0,0.0,0.0,0.0,0.0,0.0,0.0,0.0,0.0,0.0,0.0,0.0,0.0,0.0,0.0,0.0,0.0,0.0,0.0,0.0,0.0,0.0,0.0,0.0,0.0,0.0,0.0,0.0,0.0,0.0,0.0,0.0,0.0,0.0,0.0,0.0,0.0,0.0,0.0,0.0,0.0,0.0,0.0,0.0,0.0,0.0,0.0,0.0,0.0,0.0,0.0,0.0,0.0,0.0,0.0,0.0,0.0,0.0,0.0,0.0,0.0,0.0,0.0,0.0,0.0,0.0,0.0,0.0,0.0,0.0,0.0,0.0,0.0,0.0,0.0,0.0,0.0,0.0,0.0,0.0,0.0,0.0,0.0,0.0,0.0,0.0,0.0,0.0,0.0,0.0,0.0,0.0,0.0,0.0,0.0,0.0,0.0,0.0,0.0,0.0,0.0,0.0,0.0,0.0,0.0,0.0,0.0,0.0,0.0,0.0,0.0,0.0,0.0,0.0,0.0,0.0,0.0,0.0,0.0,0.0,0.0,0.0,0.0,0.0,0.0,0.0,0.0,0.0,0.0,0.0,0.0,0.0,0.0,0.0,0.0,0.0,0.0,0.0,0.0,0.0,0.0,0.0,0.0,0.0,0.0,0.0,0.0,0.0,0.0,0.0,0.0,0.0,0.0,0.0,0.0,0.0,0.0,0.0,0.0,0.0,0.0,0.0,0.0,0.0,0.0,0.0,0.0,0.0,0.0,0.0,0.0,0.0,0.0,0.0,0.0,0.0,0.0,0.0,0.0,0.0,0.0,0.0,0.0,0.0,0.0,0.0,0.0,0.0,0.0,0.0,0.0,0.0,0.0,0.0,0.0,0.0,0.0,0.0,0.0,0.0,0.0,0.0,0.0,0.0,0.0,0.0,0.0,0.0,0.0,0.0,0.0,0.0,0.0,0.0,0.0,0.0,0.0,0.0,0.0,0.0,0.0,0.0,0.0,0.0,0.0,0.0,0.0,0.0,0.0,0.0,0.0,0.0,0.0,0.0,0.0,0.0,0.0,0.0,0.0,0.0,0.0,0.0,0.0,0.0,0.0,0.0,0.0,0.0,0.0,0.0,0.0,0.0,0.0,0.0,0.0,0.0,0.0,0.0,0.0,0.0,0.0,0.0,0.0,0.0,0.0,0.0,0.0,0.0,0.0,0.0,0.0,0.0,0.0,0.0,0.0,0.0,0.0,0.0,0.0,0.0,0.0,0.0,0.0,0.0,0.0,0.0,0.0,0.0,0.0,0.0,0.0,0.0,0.0,0.0,0.0,0.0,0.0,0.0,0.0,0.0,0.0,0.0,0.0,0.0,0.0,0.0,0.0,0.0,0.0,0.0,0.0,0.0,0.0,0.0,0.0,0.0,0.0,0.0,0.0,0.0,0.0,0.0,0.0,0.0,0.0,0.0,0.0,0.0,0.0,0.0,0.0,0.0,0.0,0.0,0.0,0.0,0.0,0.0,0.0,0.0,0.0,0.0,0.0,0.0,0.0,0.0,0.0,0.0,0.0,0.0,0.0,0.0,0.0,0.0,0.0,0.0,0.0,0.0,0.0,0.0,0.0,0.0,0.0,0.0,0.0,0.0,0.0,0.0,0.0,0.0,0.0,0.0,0.0,0.0,0.0,0.0,0.0,0.0,0.0,0.0,0.0,0.0,0.0,0.0,0.0,0.0,0.0,0.0,0.0,0.0,0.0,0.0,0.0,0.0,0.0,0.0,0.0,0.0,0.0,0.0,0.0,0.0,0.0,0.0,0.0,0.0,0.0,0.0,0.0,0.0,0.0,0.0,0.0,0.0,0.0,0.0,0.0,0.0,0.0,0.0,0.0,0.0,0.0,0.0,0.0,0.0,0.0,0.0,0.0,0.0,0.0,0.0,0.0,0.0,0.0,0.0,0.0,0.0,0.0,0.0,0.0,0.0,0.0,0.0,0.0,0.0,0.0,0.0,0.0,0.0,0.0,0.0,0.0,0.0,0.0,0.0,0.0,0.0,0.0,0.0,0.0,0.0,0.0,0.0,0.0,0.0,0.0,0.0,0.0,0.0,0.0,0.0,0.0,0.0,0.0,0.0,0.0,0.0,0.0,0.0,0.0,0.0,0.0,0.0,0.0,0.0,0.0,0.0,0.0,0.0,0.0,0.0,0.0,0.0,0.0,0.0,0.0,0.0,0.0,0.0,0.0,0.0,0.0,0.0,0.0,0.0,0.0,0.0,0.0,0.0,0.0,0.0,0.0,0.0,0.0,0.0,0.0,0.0,0.0,0.0,0.0,0.0,0.0,0.0,0.0,0.0,0.0,0.0,0.0,0.0,0.0,0.0,0.0,0.0,0.0,0.0,0.0,0.0,0.0,0.0,0.0,0.0,0.0,0.0,0.0,0.0,0.0,0.0,0.0,0.0,0.0,0.0,0.0,0.0,0.0,0.0,0.0,0.0,0.0,0.0,0.0,0.0,0.0,0.0,0.0,0.0,0.0,0.0,0.0,0.0,0.0,0.0,0.0,0.0,0.0,0.0,0.0,0.0,0.0,0.0,0.0,0.0,0.0,0.0,0.0,0.0,0.0,0.0,0.0,0.0,0.0,0.0,0.0,0.0,0.0,0.0,0.0,0.0,0.0,0.0,0.0,0.0,0.0,0.0,0.0,0.0,0.0,0.0,0.0,0.0,0.0,0.0,0.0,0.0,0.0,0.0,0.0,0.0,0.0,0.0,0.0,0.0,0.0,0.0,0.0,0.0,0.0,0.0,0.0,0.0,0.0,0.0,0.0,0.0,0.0,0.0,0.0,0.0,0.0,0.0,0.0,0.0,0.0,0.0,0.0,0.0,0.0,0.0,0.0,0.0,0.0,0.0,0.0,0.0,0.0,0.0,0.0,0.0,0.0,0.0,0.0,0.0,0.0,0.0,0.0,0.0,0.0,0.0,0.0,0.0,0.0,0.0,0.0,0.0,0.0,0.0,0.0,0.0,0.0,0.0,0.0,0.0,0.0,0.0,0.0,0.0,0.0,0.0,0.0,0.0,0.0,0.0,0.0,0.0,0.0,0.0,0.0,0.0,0.0,0.0,0.0,0.0,0.0,0.0,0.0,0.0,0.0,0.0,0.0,0.0,0.0,0.0,0.0,0.0,0.0,0.0,0.0,0.0,0.0,0.0,0.0,0.0,0.0,0.0,0.0,0.0,0.0,0.0,0.0,0.0,0.0,0.0,0.0,0.0,0.0,0.0,0.0,0.0,0.0,0.0,0.0,0.0,0.0,0.0,0.0,0.0,0.0,0.0,0.0,0.0,0.0,0.0,0.0,0.0,0.0,0.0,0.0,0.0,0.0,0.0,0.0,0.0,0.0,0.0,0.0,0.0,0.0,0.0,0.0,0.0,0.0,0.0,0.0,0.0,0.0,0.0,0.0,0.0,0.0,0.0,0.0,0.0,0.0,0.0,0.0,-6.5413,0.0,0.0,0.0,0.0,0.0,0.0,0.0,0.0,0.0,0.0,0.0,0.0,0.0,0.0,0.0,0.0,0.0,0.0,0.0,0.0,0.0,0.0,0.0,0.0,0.0,0.0,0.0,0.0,0.0,0.0,0.0,0.0,0.0,0.0,0.0,0.0,0.0,0.0,0.0,0.0,0.0,0.0,0.0,0.0,0.0,0.0,0.0,0.0,0.0,0.0,0.0,0.0,0.0,0.0,0.0,0.0,0.0,0.0,0.0,0.0,0.0,0.0,0.0,0.0,0.0,0.0,0.0,0.0,0.0,0.0,0.0,0.0,0.0,0.0,0.0,0.0,0.0,0.0,0.0,0.0,0.0,0.0,0.0,0.0,0.0,0.0,0.0,0.0,0.0,0.0,0.0,0.0,0.0,0.0,0.0,0.0,0.0,0.0,0.0,0.0,0.0,0.0,0.0,0.0,0.0,0.0,0.0,0.0,0.0,0.0,-6.5413,-6.5413,-6.5413,-6.5413,-6.5413,0.0,0.0,0.0,0.0,0.0,0.0,0.0,0.0,0.0,0.0,0.0,0.0,0.0,0.0,0.0,0.0,0.0,0.0,0.0,0.0,0.0,0.0,0.0,0.0,0.0,0.0,0.0,0.0,0.0,0.0,0.0,0.0,0.0,0.0,0.0,0.0,0.0,0.0,0.0,0.0,0.0,0.0,0.0,0.0,0.0,0.0,0.0,0.0,0.0,0.0,0.0,0.0,0.0,0.0,0.0,0.0,0.0,0.0,0.0,0.0,0.0,0.0,0.0,0.0,0.0,0.0,0.0,0.0,0.0,0.0,0.0,0.0,0.0,0.0,0.0,0.0,0.0,0.0,0.0,0.0,0.0,0.0,0.0,0.0,0.0,0.0,0.0,0.0,0.0,0.0,0.0,0.0,0.0,0.0,0.0,0.0,0.0,0.0,0.0,0.0,0.0,0.0,0.0,0.0,0.0,0.0,0.0,0.0,0.0,0.0,0.0,0.0,-6.5413,-6.5413,-6.5413,0.0,0.0,0.0,0.0,0.0,0.0,0.0,0.0,0.0,0.0,0.0,0.0,0.0,0.0,0.0,0.0,0.0,0.0,0.0,0.0,0.0,0.0,0.0,0.0,0.0,0.0,0.0,0.0,0.0,0.0,0.0,0.0,0.0,0.0,0.0,0.0,0.0,0.0,0.0,0.0,0.0,0.0,0.0,0.0,0.0,0.0,0.0,0.0,0.0,0.0,0.0,0.0,0.0,0.0,0.0,0.0,0.0,0.0,0.0,0.0,0.0,0.0,0.0,0.0,0.0,0.0,0.0,0.0,0.0,0.0,0.0,0.0,0.0,0.0,0.0,0.0,0.0,0.0,0.0,0.0,0.0,0.0,0.0,0.0,0.0,0.0,0.0,0.0,0.0,0.0,0.0,0.0,0.0,0.0,0.0,0.0,0.0,0.0,0.0,0.0,0.0,0.0,0.0,0.0,0.0,0.0,0.0,0.0,0.0,0.0,-6.5413,-6.5413,-6.5413,0.0,-6.5413,0.0,0.0,0.0,0.0,0.0,0.0,0.0,0.0,0.0,0.0,0.0,0.0,0.0,0.0,0.0,0.0,0.0,0.0,0.0,0.0,0.0,0.0,0.0,0.0,0.0,0.0,0.0,0.0,0.0,0.0,0.0,0.0,0.0,0.0,0.0,0.0,0.0,0.0,0.0,0.0,0.0,0.0,0.0,0.0,0.0,0.0,0.0,0.0,0.0,0.0,0.0,0.0,0.0,0.0,0.0,0.0,0.0,0.0,0.0,0.0,0.0,0.0,0.0,0.0,0.0,0.0,0.0,0.0,0.0,0.0,0.0,0.0,0.0,0.0,0.0,0.0,0.0,0.0,0.0,0.0,0.0,0.0,0.0,0.0,0.0,0.0,0.0,0.0,0.0,0.0,0.0,0.0,0.0,0.0,0.0,0.0,0.0,0.0,0.0,0.0,0.0,0.0,0.0,0.0,0.0,0.0,0.0,0.0,0.0,0.0,-6.5413,-6.5413,-6.5413,-6.5413,0.0,0.0,0.0,0.0,0.0,0.0,0.0,0.0,0.0,0.0,0.0,0.0,0.0,0.0,0.0,0.0,0.0,0.0,0.0,0.0,0.0,0.0,0.0,0.0,0.0,0.0,0.0,0.0,0.0,0.0,0.0,0.0,0.0,0.0,0.0,0.0,0.0,0.0,0.0,0.0,0.0,0.0,0.0,0.0,0.0,0.0,0.0,0.0,0.0,0.0,0.0,0.0,0.0,0.0,0.0,0.0,0.0,0.0,0.0,0.0,0.0,0.0,0.0,0.0,0.0,0.0,0.0,0.0,0.0,0.0,0.0,0.0,0.0,0.0,0.0,0.0,0.0,0.0,0.0,0.0,0.0,0.0,0.0,0.0,0.0,0.0,0.0,0.0,0.0,0.0,0.0,0.0,0.0,0.0,0.0,0.0,0.0,0.0,0.0,0.0,0.0,0.0,0.0,0.0,0.0,0.0,0.0,0.0,0.0,0.0,-6.5413,-6.5413,-6.5413,-6.5413,-6.5413,-6.5413,0.0,0.0,0.0,0.0,0.0,0.0,0.0,0.0,0.0,0.0,0.0,0.0,0.0,0.0,0.0,0.0,0.0,0.0,0.0,0.0,0.0,0.0,0.0,0.0,0.0,0.0,0.0,0.0,0.0,0.0,0.0,0.0,0.0,0.0,0.0,0.0,0.0,0.0,0.0,0.0,0.0,0.0,0.0,0.0,0.0,0.0,0.0,0.0,0.0,0.0,0.0,0.0,0.0,0.0,0.0,0.0,0.0,0.0,0.0,0.0,0.0,0.0,0.0,0.0,0.0,0.0,0.0,0.0,0.0,0.0,0.0,0.0,0.0,0.0,0.0,0.0,0.0,0.0,0.0,0.0,0.0,0.0,0.0,0.0,0.0,0.0,0.0,0.0,0.0,0.0,0.0,0.0,0.0,0.0,0.0,0.0,0.0,0.0,0.0,0.0,0.0,0.0,0.0,0.0,0.0,0.0,0.0,0.0,-6.5413,-6.5413,-6.5413,-6.5413,-6.5413,-6.5413,0.0,0.0,0.0,0.0,0.0,0.0,0.0,0.0,0.0,0.0,0.0,0.0,0.0,0.0,0.0,0.0,0.0,0.0,0.0,0.0,0.0,0.0,0.0,0.0,0.0,0.0,0.0,0.0,0.0,0.0,0.0,0.0,0.0,0.0,0.0,0.0,0.0,0.0,0.0,0.0,0.0,0.0,0.0,0.0,0.0,0.0,0.0,0.0,0.0,0.0,0.0,0.0,0.0,0.0,0.0,0.0,0.0,0.0,0.0,0.0,0.0,0.0,0.0,0.0,0.0,0.0,0.0,0.0,0.0,0.0,0.0,0.0,0.0,0.0,0.0,0.0,0.0,0.0,0.0,0.0,0.0,0.0,0.0,0.0,0.0,0.0,0.0,0.0,0.0,0.0,0.0,0.0,0.0,0.0,0.0,0.0,0.0,0.0,0.0,0.0,0.0,0.0,0.0,0.0,0.0,0.0,0.0,0.0,0.0,-6.5452,-6.5413,-6.5413,-6.5413,-6.5413,-6.5413,0.0,0.0,0.0,0.0,0.0,0.0,0.0,0.0,0.0,0.0,0.0,0.0,0.0,0.0,0.0,0.0,0.0,0.0,0.0,0.0,0.0,0.0,0.0,0.0,0.0,0.0,0.0,0.0,0.0,0.0,0.0,0.0,0.0,0.0,0.0,0.0,0.0,0.0,0.0,0.0,0.0,0.0,0.0,0.0,0.0,0.0,0.0,0.0,0.0,0.0,0.0,0.0,0.0,0.0,0.0,0.0,0.0,0.0,0.0,0.0,0.0,0.0,0.0,0.0,0.0,0.0,0.0,0.0,0.0,0.0,0.0,0.0,0.0,0.0,0.0,0.0,0.0,0.0,0.0,0.0,0.0,0.0,0.0,0.0,0.0,0.0,0.0,0.0,0.0,0.0,0.0,0.0,0.0,0.0,0.0,0.0,0.0,0.0,0.0,0.0,0.0,0.0,0.0,0.0,0.0,0.0,0.0,0.0,0.0,-6.5834,0.0,-6.5528,-6.5796,-6.5834,-6.5834,0.0,0.0,0.0,0.0,0.0,0.0,0.0,0.0,0.0,0.0,0.0,0.0,0.0,0.0,0.0,0.0,0.0,0.0,0.0,0.0,0.0,0.0,0.0,0.0,0.0,0.0,0.0,0.0,0.0,0.0,0.0,0.0,0.0,0.0,0.0,0.0,0.0,0.0,0.0,0.0,0.0,0.0,0.0,0.0,0.0,0.0,0.0,0.0,0.0,0.0,0.0,0.0,0.0,0.0,0.0,0.0,0.0,0.0,0.0,0.0,0.0,0.0,0.0,0.0,0.0,0.0,0.0,0.0,0.0,0.0,0.0,0.0,0.0,0.0,0.0,0.0,0.0,0.0,0.0,0.0,0.0,0.0,0.0,0.0,0.0,0.0,0.0,0.0,0.0,0.0,0.0,0.0,0.0,0.0,0.0,0.0,0.0,0.0,0.0,0.0,0.0,0.0,0.0,0.0,0.0,0.0,0.0,0.0,-6.6751,-6.6713,-6.5872,-6.5796,-6.6636,-6.6674,-6.6674,0.0,0.0,0.0,0.0,0.0,0.0,0.0,0.0,0.0,0.0,0.0,0.0,0.0,0.0,0.0,0.0,0.0,0.0,0.0,0.0,0.0,0.0,0.0,0.0,0.0,0.0,0.0,0.0,0.0,0.0,0.0,0.0,0.0,0.0,0.0,0.0,0.0,0.0,0.0,0.0,0.0,0.0,0.0,0.0,0.0,0.0,0.0,0.0,0.0,0.0,0.0,0.0,0.0,0.0,0.0,0.0,0.0,0.0,0.0,0.0,0.0,0.0,0.0,0.0,0.0,0.0,0.0,0.0,0.0,0.0,0.0,0.0,0.0,0.0,0.0,0.0,0.0,0.0,0.0,0.0,0.0,0.0,0.0,0.0,0.0,0.0,0.0,0.0,0.0,0.0,0.0,0.0,0.0,0.0,0.0,0.0,0.0,0.0,0.0,0.0,0.0,0.0,0.0,0.0,0.0,0.0,0.0,0.0,0.0,-6.8356,-6.6445,-6.5796,-6.6674,-6.6713,-6.6407,0.0,0.0,0.0,0.0,0.0,0.0,0.0,0.0,0.0,0.0,0.0,0.0,0.0,0.0,0.0,0.0,0.0,0.0,0.0,0.0,0.0,0.0,0.0,0.0,0.0,0.0,0.0,0.0,0.0,0.0,0.0,0.0,0.0,0.0,0.0,0.0,0.0,0.0,0.0,0.0,0.0,0.0,0.0,0.0,0.0,0.0,0.0,0.0,0.0,0.0,0.0,0.0,0.0,0.0,0.0,0.0,0.0,0.0,0.0,0.0,0.0,0.0,0.0,0.0,0.0,0.0,0.0,0.0,0.0,0.0,0.0,0.0,0.0,0.0,0.0,0.0,0.0,0.0,0.0,0.0,0.0,0.0,0.0,0.0,0.0,0.0,0.0,0.0,0.0,0.0,0.0,0.0,0.0,0.0,0.0,0.0,0.0,0.0,0.0,0.0,0.0,0.0,0.0,0.0,0.0,0.0,0.0,0.0,0.0,-6.912,-6.7018,-6.6292,-6.7133,-6.7439,-6.7247,-6.6407,0.0,0.0,0.0,0.0,0.0,0.0,0.0,0.0,0.0,0.0,0.0,0.0,0.0,0.0,0.0,0.0,0.0,0.0,0.0,0.0,0.0,0.0,0.0,0.0,0.0,0.0,0.0,0.0,0.0,0.0,0.0,0.0,0.0,0.0,0.0,0.0,0.0,0.0,0.0,0.0,0.0,0.0,0.0,0.0,0.0,0.0,0.0,0.0,0.0,0.0,0.0,0.0,0.0,0.0,0.0,0.0,0.0,0.0,0.0,0.0,0.0,0.0,0.0,0.0,0.0,0.0,0.0,0.0,0.0,0.0,0.0,0.0,0.0,0.0,0.0,0.0,0.0,0.0,0.0,0.0,0.0,0.0,0.0,0.0,0.0,0.0,0.0,0.0,0.0,0.0,0.0,0.0,0.0,0.0,0.0,0.0,0.0,0.0,0.0,0.0,0.0,0.0,0.0,0.0,0.0,0.0,0.0,0.0,-6.9273,-6.7668,-6.7209,-6.7935,-6.8738,-6.8776,0.0,0.0,0.0,0.0,0.0,0.0,0.0,0.0,0.0,0.0,0.0,0.0,0.0,0.0,0.0,0.0,0.0,0.0,0.0,0.0,0.0,0.0,0.0,0.0,0.0,0.0,0.0,0.0,0.0,0.0,0.0,0.0,0.0,0.0,0.0,0.0,0.0,0.0,0.0,0.0,0.0,0.0,0.0,0.0,0.0,0.0,0.0,0.0,0.0,0.0,0.0,0.0,0.0,0.0,0.0,0.0,0.0,0.0,0.0,0.0,0.0,0.0,0.0,0.0,0.0,0.0,0.0,0.0,0.0,0.0,0.0,0.0,0.0,0.0,0.0,0.0,0.0,0.0,0.0,0.0,0.0,0.0,0.0,0.0,0.0,0.0,0.0,0.0,0.0,0.0,0.0,0.0,0.0,0.0,0.0,0.0,0.0,0.0,0.0,0.0,0.0,0.0,0.0,0.0,0.0,0.0,0.0,0.0,0.0,-7.0037,-6.9082,-6.8623,-6.8852,-6.9082,-6.8776,0.0,0.0,0.0,0.0,0.0,0.0,0.0,0.0,0.0,0.0,0.0,0.0,0.0,0.0,0.0,0.0,0.0,0.0,0.0,0.0,0.0,0.0,0.0,0.0,0.0,0.0,0.0,0.0,0.0,0.0,0.0,0.0,0.0,0.0,0.0,0.0,0.0,0.0,0.0,0.0,0.0,0.0,0.0,0.0,0.0,0.0,0.0,0.0,0.0,0.0,0.0,0.0,0.0,0.0,0.0,0.0,0.0,0.0,0.0,0.0,0.0,0.0,0.0,0.0,0.0,0.0,0.0,0.0,0.0,0.0,0.0,0.0,0.0,0.0,0.0,0.0,0.0,0.0,0.0,0.0,0.0,0.0,0.0,0.0,0.0,0.0,0.0,0.0,0.0,0.0,0.0,0.0,0.0,0.0,0.0,0.0,0.0,0.0,0.0,0.0,0.0,0.0,0.0,0.0,0.0,0.0,0.0,0.0,-6.9616,-6.9387,-6.9578,-6.9693,-6.9693,-6.9349,-6.8967,0.0,0.0,0.0,0.0,0.0,0.0,0.0,0.0,0.0,0.0,0.0,0.0,0.0,0.0,0.0,0.0,0.0,0.0,0.0,0.0,0.0,0.0,0.0,0.0,0.0,0.0,0.0,0.0,0.0,0.0,0.0,0.0,0.0,0.0,0.0,0.0,0.0,0.0,0.0,0.0,0.0,0.0,0.0,0.0,0.0,0.0,0.0,0.0,0.0,0.0,0.0,0.0,0.0,0.0,0.0,0.0,0.0,0.0,0.0,0.0,0.0,0.0,0.0,0.0,0.0,0.0,0.0,0.0,0.0,0.0,0.0,0.0,0.0,0.0,0.0,0.0,0.0,0.0,0.0,0.0,0.0,0.0,0.0,0.0,0.0,0.0,0.0,0.0,0.0,0.0,0.0,0.0,0.0,0.0,0.0,0.0,0.0,0.0,0.0,0.0,0.0,0.0,0.0,0.0,0.0,0.0,0.0,0.0,-6.9693,-6.8203,-6.9616,-7.0402,-7.0364,-6.9731,-6.9349,0.0,0.0,0.0,0.0,0.0,0.0,0.0,0.0,0.0,0.0,0.0,0.0,0.0,0.0,0.0,0.0,0.0,0.0,0.0,0.0,0.0,0.0,0.0,0.0,0.0,0.0,0.0,0.0,0.0,0.0,0.0,0.0,0.0,0.0,0.0,0.0,0.0,0.0,0.0,0.0,0.0,0.0,0.0,0.0,0.0,0.0,0.0,0.0,0.0,0.0,0.0,0.0,0.0,0.0,0.0,0.0,0.0,0.0,0.0,0.0,0.0,0.0,0.0,0.0,0.0,0.0,0.0,0.0,0.0,0.0,0.0,0.0,0.0,0.0,0.0,0.0,0.0,0.0,0.0,0.0,0.0,0.0,0.0,0.0,0.0,0.0,0.0,0.0,0.0,0.0,0.0,0.0,0.0,0.0,0.0,0.0,0.0,0.0,0.0,0.0,0.0,0.0,0.0,0.0,0.0,0.0,0.0,0.0,-7.0228,-6.9884,-7.0228,-7.0402,-7.0419,-7.0228,-7.0151,0.0,0.0,0.0,0.0,0.0,0.0,0.0,0.0,0.0,0.0,0.0,0.0,0.0,0.0,0.0,0.0,0.0,0.0,0.0,0.0,0.0,0.0,0.0,0.0,0.0,0.0,0.0,0.0,0.0,0.0,0.0,0.0,0.0,0.0,0.0,0.0,0.0,0.0,0.0,0.0,0.0,0.0,0.0,0.0,0.0,0.0,0.0,0.0,-7.0391,0.0,0.0,0.0,0.0,0.0,0.0,0.0,0.0,0.0,0.0,0.0,0.0,0.0,0.0,0.0,0.0,0.0,0.0,0.0,0.0,0.0,0.0,0.0,0.0,0.0,0.0,0.0,0.0,0.0,0.0,0.0,0.0,0.0,0.0,0.0,0.0,0.0,0.0,0.0,0.0,0.0,0.0,0.0,0.0,0.0,0.0,0.0,0.0,0.0,0.0,0.0,0.0,0.0,0.0,0.0,0.0,0.0,0.0,0.0,-6.9846,-6.9846,-7.0228,-7.0402,-7.0402,-7.0402,-7.0402,0.0,0.0,0.0,0.0,0.0,0.0,0.0,0.0,0.0,0.0,0.0,0.0,0.0,0.0,0.0,0.0,0.0,0.0,0.0,0.0,0.0,0.0,0.0,0.0,0.0,0.0,0.0,0.0,0.0,0.0,0.0,0.0,0.0,0.0,0.0,0.0,0.0,0.0,0.0,0.0,0.0,0.0,0.0,0.0,0.0,0.0,0.0,0.0,0.0,0.0,0.0,0.0,0.0,0.0,0.0,0.0,0.0,0.0,0.0,0.0,0.0,0.0,0.0,0.0,0.0,0.0,0.0,0.0,0.0,0.0,0.0,0.0,0.0,0.0,0.0,0.0,0.0,0.0,0.0,0.0,0.0,0.0,0.0,0.0,0.0,0.0,0.0,0.0,0.0,0.0,0.0,0.0,0.0,0.0,0.0,0.0,0.0,0.0,0.0,0.0,0.0,0.0,0.0,0.0,0.0,0.0,0.0,-6.9196,-6.9273,-6.9387,-7.0075,-7.0402,-7.0419,-7.0304,-7.0228,-7.0228,0.0,0.0,0.0,0.0,0.0,0.0,0.0,0.0,0.0,0.0,0.0,0.0,0.0,0.0,0.0,0.0,0.0,0.0,0.0,0.0,0.0,0.0,0.0,0.0,0.0,0.0,0.0,0.0,0.0,0.0,0.0,0.0,0.0,0.0,0.0,0.0,0.0,0.0,-6.8981,-6.8066,0.0,0.0,0.0,0.0,0.0,0.0,0.0,0.0,-7.0316,0.0,0.0,0.0,0.0,0.0,0.0,0.0,0.0,0.0,0.0,0.0,0.0,0.0,0.0,0.0,0.0,0.0,0.0,0.0,0.0,0.0,0.0,0.0,0.0,0.0,0.0,0.0,0.0,0.0,0.0,0.0,0.0,0.0,0.0,0.0,0.0,0.0,0.0,0.0,0.0,0.0,0.0,0.0,0.0,0.0,0.0,0.0,0.0,0.0,0.0,0.0,0.0,0.0,0.0,0.0,0.0,-6.9196,-6.9196,-6.954,-7.019,-7.0342,-7.0402,-7.0381,-6.9731,-6.9387,-6.9425,0.0,0.0,0.0,0.0,0.0,0.0,0.0,0.0,0.0,0.0,0.0,0.0,0.0,0.0,0.0,0.0,0.0,0.0,0.0,0.0,0.0,0.0,0.0,0.0,0.0,0.0,0.0,0.0,0.0,0.0,0.0,0.0,0.0,0.0,0.0,0.0,0.0,0.0,0.0,-6.6917,-6.6824,0.0,0.0,0.0,0.0,0.0,0.0,0.0,0.0,-7.1015,0.0,0.0,0.0,0.0,0.0,0.0,0.0,0.0,0.0,0.0,0.0,0.0,0.0,0.0,0.0,0.0,0.0,0.0,0.0,0.0,0.0,0.0,0.0,0.0,0.0,0.0,0.0,0.0,0.0,0.0,0.0,0.0,0.0,0.0,0.0,0.0,0.0,0.0,0.0,0.0,0.0,0.0,0.0,0.0,0.0,0.0,0.0,0.0,0.0,0.0,0.0,0.0,0.0,0.0,0.0,-6.9196,-6.9196,-6.9578,-7.0364,-7.0402,-7.0402,-7.0364,-6.9616,-6.9196,0.0,0.0,0.0,0.0,0.0,0.0,0.0,0.0,0.0,0.0,0.0,0.0,0.0,0.0,0.0,0.0,0.0,0.0,0.0,0.0,0.0,0.0,0.0,0.0,0.0,0.0,0.0,0.0,0.0,0.0,0.0,0.0,0.0,0.0,0.0,0.0,0.0,0.0,0.0,0.0,-6.7087,-6.7376,-6.8365,0.0,0.0,0.0,0.0,0.0,0.0,-7.0665,-7.0782,0.0,0.0,0.0,0.0,0.0,0.0,0.0,0.0,0.0,0.0,0.0,0.0,0.0,0.0,0.0,0.0,0.0,0.0,0.0,0.0,0.0,0.0,0.0,0.0,0.0,0.0,0.0,0.0,0.0,0.0,0.0,0.0,0.0,0.0,0.0,0.0,0.0,0.0,0.0,0.0,0.0,0.0,0.0,0.0,0.0,0.0,0.0,0.0,0.0,0.0,0.0,0.0,0.0,0.0,0.0,-6.9425,-6.9273,-6.9578,-7.0364,-7.0402,-7.0402,-7.0364,-6.9464,-6.9005,0.0,0.0,0.0,0.0,0.0,0.0,0.0,0.0,0.0,0.0,0.0,0.0,0.0,0.0,0.0,0.0,0.0,0.0,0.0,0.0,0.0,0.0,0.0,0.0,0.0,0.0,0.0,0.0,0.0,0.0,0.0,0.0,0.0,0.0,0.0,0.0,0.0,0.0,0.0,0.0,0.0,-6.8069,-6.8948,-6.9772,0.0,0.0,0.0,0.0,-7.0354,-7.0432,0.0,0.0,0.0,0.0,0.0,0.0,0.0,0.0,0.0,0.0,0.0,0.0,0.0,0.0,0.0,0.0,0.0,0.0,0.0,0.0,0.0,0.0,0.0,0.0,0.0,0.0,0.0,0.0,0.0,0.0,0.0,0.0,0.0,0.0,0.0,0.0,0.0,0.0,0.0,0.0,0.0,0.0,0.0,0.0,0.0,0.0,0.0,0.0,0.0,0.0,0.0,0.0,0.0,0.0,0.0,0.0,-7.019,-6.9578,-6.9616,-7.0381,-7.0402,-7.0402,-7.0364,-6.8852,-6.8394,0.0,0.0,0.0,0.0,0.0,0.0,0.0,0.0,0.0,0.0,0.0,0.0,0.0,0.0,0.0,0.0,0.0,0.0,0.0,0.0,0.0,0.0,0.0,0.0,0.0,0.0,0.0,0.0,0.0,0.0,0.0,0.0,0.0,0.0,0.0,0.0,0.0,0.0,0.0,0.0,0.0,-6.7927,-6.894,-6.9772,-7.0044,0.0,0.0,-7.117,-7.0432,-7.0937,0.0,0.0,0.0,0.0,0.0,0.0,0.0,0.0,0.0,0.0,0.0,0.0,0.0,0.0,0.0,0.0,0.0,0.0,0.0,0.0,0.0,0.0,0.0,0.0,0.0,0.0,0.0,0.0,0.0,0.0,0.0,0.0,0.0,0.0,0.0,0.0,0.0,0.0,0.0,0.0,0.0,0.0,0.0,0.0,0.0,0.0,0.0,0.0,0.0,0.0,0.0,0.0,0.0,0.0,0.0,-6.9464,-6.9731,-6.9807,-7.0037,-7.0381,-7.0402,-7.0402,-7.0402,-6.8776,-6.8317,0.0,0.0,0.0,0.0,0.0,0.0,0.0,0.0,0.0,0.0,0.0,0.0,0.0,0.0,0.0,0.0,0.0,0.0,0.0,0.0,0.0,0.0,0.0,0.0,0.0,0.0,0.0,0.0,0.0,0.0,0.0,0.0,0.0,0.0,0.0,0.0,0.0,0.0,0.0,0.0,0.0,0.0,-6.9065,-7.0199,0.0,0.0,0.0,-7.1131,-6.9811,0.0,0.0,0.0,0.0,0.0,0.0,0.0,0.0,0.0,0.0,0.0,0.0,0.0,0.0,0.0,0.0,0.0,0.0,0.0,0.0,0.0,0.0,0.0,0.0,0.0,0.0,0.0,0.0,0.0,0.0,0.0,0.0,0.0,0.0,0.0,0.0,0.0,0.0,0.0,0.0,0.0,0.0,0.0,0.0,0.0,0.0,0.0,0.0,0.0,0.0,0.0,0.0,0.0,0.0,0.0,0.0,0.0,-6.954,-7.0075,-7.0402,-7.0402,-7.0402,-7.0402,-7.0364,-6.903,0.0,0.0,0.0,0.0,0.0,0.0,0.0,0.0,0.0,0.0,0.0,0.0,0.0,0.0,0.0,0.0,0.0,0.0,0.0,0.0,0.0,0.0,0.0,0.0,0.0,0.0,0.0,-6.9234,0.0,0.0,0.0,0.0,0.0,0.0,0.0,0.0,0.0,0.0,0.0,0.0,0.0,0.0,-6.9304,-6.9142,-7.0354,-7.1015,0.0,0.0,-7.086,-6.9616,-7.0626,-7.1365,0.0,0.0,0.0,0.0,0.0,0.0,0.0,0.0,0.0,0.0,0.0,0.0,0.0,0.0,0.0,0.0,0.0,0.0,0.0,0.0,0.0,0.0,0.0,0.0,0.0,0.0,0.0,0.0,0.0,0.0,0.0,0.0,0.0,0.0,0.0,0.0,0.0,0.0,0.0,0.0,0.0,0.0,0.0,0.0,0.0,0.0,0.0,0.0,0.0,0.0,0.0,0.0,0.0,0.0,0.0,-7.0304,-7.0381,-7.0402,-7.0402,-7.0402,-7.0402,-7.0381,-6.9734,-6.9774,0.0,0.0,0.0,0.0,0.0,0.0,0.0,0.0,0.0,0.0,0.0,0.0,0.0,0.0,0.0,0.0,0.0,0.0,0.0,0.0,0.0,0.0,0.0,0.0,0.0,0.0,0.0,0.0,0.0,0.0,0.0,0.0,0.0,0.0,0.0,0.0,0.0,0.0,0.0,0.0,0.0,-6.9827,-6.9173,-6.9849,-7.0393,0.0,0.0,-7.0354,-7.0238,-7.0976,-7.1598,-7.152,0.0,0.0,0.0,0.0,0.0,0.0,0.0,0.0,0.0,0.0,0.0,0.0,0.0,0.0,0.0,0.0,0.0,0.0,0.0,0.0,0.0,0.0,0.0,0.0,0.0,0.0,0.0,0.0,0.0,0.0,0.0,0.0,0.0,0.0,0.0,0.0,0.0,0.0,0.0,0.0,0.0,0.0,0.0,0.0,0.0,0.0,0.0,0.0,0.0,0.0,0.0,0.0,0.0,-7.0075,-7.0419,-7.0402,-7.0402,-7.0419,-7.0524,-7.0616,-7.0578,-7.0,-7.0067,0.0,0.0,0.0,0.0,0.0,0.0,0.0,0.0,0.0,0.0,0.0,0.0,0.0,0.0,0.0,0.0,0.0,0.0,0.0,0.0,0.0,0.0,0.0,0.0,0.0,0.0,0.0,0.0,-7.0151,-6.996,-6.996,0.0,0.0,0.0,0.0,0.0,0.0,0.0,0.0,0.0,0.0,-6.9558,-6.9803,-7.0549,0.0,0.0,-7.0743,-7.0743,-6.9733,-7.0704,-7.1442,-7.0898,-7.1248,0.0,0.0,0.0,0.0,0.0,0.0,0.0,0.0,0.0,0.0,0.0,0.0,0.0,0.0,0.0,0.0,0.0,0.0,0.0,0.0,0.0,0.0,0.0,0.0,0.0,0.0,0.0,0.0,0.0,0.0,0.0,0.0,0.0,0.0,0.0,0.0,0.0,0.0,0.0,0.0,0.0,0.0,0.0,0.0,0.0,0.0,0.0,0.0,0.0,0.0,0.0,0.0,-7.0402,-7.0402,-7.0402,-7.0413,-7.0493,-7.0622,-7.0623,-7.0423,-7.009,-7.0031,0.0,0.0,0.0,0.0,0.0,0.0,0.0,0.0,0.0,0.0,0.0,0.0,0.0,0.0,0.0,0.0,0.0,0.0,0.0,0.0,0.0,0.0,0.0,0.0,0.0,0.0,0.0,0.0,-7.0402,-7.0402,-7.0402,0.0,0.0,0.0,0.0,0.0,0.0,0.0,0.0,0.0,0.0,-6.9578,-6.9888,-7.0471,-7.0626,-7.0044,-7.0432,-7.051,-6.9616,-7.0432,-7.1093,-7.0743,0.0,0.0,0.0,0.0,0.0,0.0,0.0,0.0,0.0,0.0,0.0,0.0,0.0,0.0,0.0,0.0,0.0,0.0,0.0,0.0,0.0,0.0,0.0,0.0,0.0,0.0,0.0,0.0,0.0,0.0,-7.548,0.0,0.0,0.0,0.0,0.0,0.0,0.0,0.0,0.0,0.0,0.0,0.0,0.0,0.0,0.0,0.0,0.0,0.0,0.0,0.0,0.0,0.0,-7.0402,-7.0402,-7.0381,-7.047,-7.0657,-7.0671,-7.0398,-6.9859,-6.9993,-6.9701,-6.8888,0.0,0.0,0.0,0.0,0.0,0.0,0.0,0.0,0.0,0.0,0.0,0.0,0.0,0.0,0.0,0.0,0.0,0.0,0.0,0.0,0.0,0.0,0.0,0.0,0.0,0.0,-7.0402,-7.0402,-7.0402,0.0,0.0,0.0,0.0,0.0,0.0,0.0,0.0,0.0,0.0,-6.9649,-7.0005,-6.9267,-6.915,-6.9228,-6.915,-6.9189,-6.9422,-7.0083,-7.0277,-7.0588,0.0,0.0,0.0,0.0,0.0,0.0,0.0,0.0,0.0,0.0,0.0,0.0,0.0,0.0,0.0,0.0,0.0,0.0,0.0,0.0,0.0,0.0,0.0,0.0,0.0,0.0,0.0,-7.4125,-7.4584,0.0,0.0,0.0,0.0,0.0,0.0,0.0,0.0,0.0,0.0,0.0,-7.4584,-7.3781,0.0,0.0,0.0,0.0,0.0,0.0,0.0,0.0,0.0,0.0,0.0,0.0,-7.0402,-7.0381,-7.0003,-6.9841,-6.9889,-6.9591,-6.9331,-6.9153,-6.9314,-6.9308,-6.8998,0.0,0.0,0.0,0.0,0.0,0.0,0.0,0.0,0.0,0.0,0.0,0.0,0.0,0.0,0.0,0.0,0.0,0.0,0.0,0.0,0.0,0.0,0.0,0.0,0.0,-7.0402,0.0,0.0,0.0,0.0,0.0,0.0,0.0,0.0,0.0,0.0,0.0,-6.8539,-6.895,-6.8815,-6.8762,-6.9072,-6.9111,-6.9111,0.0,0.0,0.0,0.0,0.0,0.0,0.0,0.0,0.0,0.0,0.0,0.0,0.0,0.0,-6.9421,-6.9946,-7.0765,-7.1399,-7.1434,0.0,0.0,0.0,0.0,0.0,0.0,0.0,0.0,0.0,0.0,0.0,0.0,0.0,0.0,0.0,0.0,-7.4201,0.0,0.0,0.0,0.0,0.0,0.0,0.0,0.0,-7.4049,-7.3819,-7.3743,-7.2902,-7.2559,0.0,-7.2253,-7.21,0.0,0.0,0.0,0.0,0.0,0.0,0.0,0.0,-6.9846,-6.9556,-6.9236,-6.9086,-6.9129,-6.8933,-6.8685,-6.847,-6.8286,-6.8334,-6.8645,-6.8373,-6.849,0.0,0.0,0.0,0.0,0.0,0.0,0.0,0.0,0.0,0.0,0.0,0.0,0.0,0.0,0.0,0.0,0.0,0.0,0.0,0.0,0.0,0.0,0.0,-7.0402,0.0,0.0,0.0,0.0,0.0,0.0,0.0,0.0,0.0,-6.9623,-6.8471,-6.7885,-6.8552,-6.814,-6.7985,-6.8567,0.0,0.0,0.0,0.0,0.0,0.0,0.0,-6.8995,-6.8723,-6.9174,-6.9855,-7.0764,-7.0458,-7.0186,-7.0583,0.0,0.0,-7.0082,-7.0819,-7.1452,-7.148,-7.125,-7.126,-7.1867,-7.1558,-7.1324,0.0,0.0,0.0,0.0,0.0,0.0,0.0,0.0,-7.3284,-7.3361,0.0,-7.4049,0.0,0.0,0.0,0.0,0.0,-7.3055,0.0,0.0,-7.2979,-7.2979,-7.2902,-7.2062,-7.1658,-7.1603,-7.0839,-7.0457,-7.0572,-7.2138,0.0,0.0,0.0,0.0,0.0,0.0,-6.8738,-6.7967,-6.8115,-6.8244,-6.8455,-6.8622,-6.8392,-6.7744,-6.6975,-6.6936,-6.7674,-6.6975,-6.7285,-6.8917,-6.8218,0.0,0.0,0.0,0.0,0.0,0.0,0.0,0.0,0.0,0.0,0.0,0.0,0.0,0.0,0.0,0.0,0.0,0.0,0.0,0.0,-7.0419,0.0,0.0,0.0,0.0,0.0,0.0,0.0,0.0,0.0,0.0,-6.8675,-6.8136,-6.7752,-6.7752,0.0,0.0,0.0,0.0,-6.748,-6.6664,-6.7208,-6.7752,-6.7752,-6.8451,-6.9228,-7.0005,0.0,0.0,-7.172,-7.0528,-6.9841,-7.0654,-7.093,-7.0543,-6.984,-7.0423,-7.0891,-7.093,-7.1594,-7.2065,-7.2104,-7.2182,-7.2143,-7.0533,0.0,0.0,0.0,0.0,-7.0763,-7.1412,-7.2406,-7.2176,-7.2215,-7.2406,-7.2406,0.0,0.0,0.0,0.0,0.0,0.0,-7.2979,-7.2979,-7.2367,-7.2062,-7.2024,-7.1183,-7.0763,-7.0763,-7.0533,-7.0724,-7.1336,-7.1833,-7.1603,-7.0763,0.0,0.0,0.0,0.0,-6.822,-6.8076,-6.7705,-6.7556,-6.7771,-6.7384,-6.7052,-6.6897,-6.6625,-6.6625,-6.6858,-6.6625,-6.6703,-6.7208,-6.7014,0.0,0.0,0.0,0.0,0.0,0.0,0.0,0.0,0.0,0.0,0.0,0.0,0.0,0.0,0.0,0.0,0.0,0.0,0.0,-7.0835,-7.0586,-7.0445,0.0,0.0,0.0,0.0,0.0,0.0,0.0,0.0,0.0,-6.8045,-6.7378,-6.6858,0.0,0.0,-6.6858,-6.6897,-6.6858,-6.678,-6.6547,0.0,0.0,0.0,-6.7091,-6.734,-6.7631,-6.875,-7.0108,-7.1659,-7.2034,-7.2444,-7.3234,-7.3432,-7.3315,-7.308,-7.2768,-7.2573,-7.2612,-7.3197,-7.3744,-7.3783,-7.3783,-7.3744,-7.0402,-7.0402,-7.0402,-7.061,-7.0916,-7.0916,-7.1412,-7.2215,-7.2215,-7.2024,-7.1718,-7.2062,-7.1833,-7.1183,-7.1183,0.0,0.0,0.0,-7.1985,-7.1947,-7.1412,-7.1183,-7.1145,-7.0648,-7.0402,-7.0402,-7.0402,-7.0686,-7.1183,-7.0839,-7.0457,-6.9922,0.0,0.0,-6.8241,-6.776,-6.7381,-6.7215,-6.6942,-6.6861,-6.699,-6.667,-6.6508,-6.6508,-6.6508,-6.6508,-6.6508,-6.6508,-6.6508,-6.6508,-6.6508,-6.6508,0.0,0.0,0.0,0.0,0.0,0.0,0.0,0.0,0.0,0.0,0.0,-7.0978,0.0,0.0,0.0,0.0,-7.0821,-7.0748,-7.0439,-7.0277,0.0,0.0,0.0,0.0,0.0,0.0,0.0,-6.7781,-6.7432,-6.7285,-6.7285,-6.713,-6.6897,-6.6547,-6.6508,-6.6508,-6.6508,0.0,-6.6625,-6.6975,-6.7014,-6.713,-6.748,-6.7821,-6.8189,-6.8633,-6.9553,-7.077,-7.219,-7.2951,-7.3585,-7.4251,-7.4486,-7.4486,-7.4486,-7.4369,-7.4173,-7.3861,-7.4134,-7.4486,-7.4486,-7.4486,-7.4486,-7.0402,-7.0402,-7.0402,-7.0877,-7.1565,-7.1603,-7.2024,-7.2788,-7.2788,-7.2329,-7.168,-7.2444,-7.1909,-7.0402,-7.0402,0.0,-7.0402,-7.0402,-7.0441,-7.0402,-7.0402,-7.0402,-7.0402,-7.0402,-7.0402,-7.0402,-7.0402,-7.0381,-7.0266,-6.9578,-6.912,-6.9005,-6.9731,-6.8967,-6.6843,-6.6758,-6.646,-6.5743,-6.6063,-6.6196,-6.6205,-6.6406,-6.6508,-6.6508,-6.6508,-6.6508,-6.6508,-6.6508,-6.6508,-6.6508,-6.6508,-6.6508,-6.6508,0.0,0.0,0.0,0.0,0.0,0.0,0.0,0.0,0.0,0.0,0.0,0.0,0.0,0.0,0.0,-7.0609,0.0,-6.9704,-6.9798,0.0,0.0,0.0,-6.9876,-7.0,-6.9256,-6.85,-6.786,0.0,0.0,-6.6703,0.0,-6.7519,-6.6819,-6.6703,-6.6703,-6.6625,-6.6742,-6.7014,-6.779,-6.7907,-6.8179,-6.8801,-6.9536,-7.029,-7.1209,-7.1815,-7.2069,-7.2993,-7.339,-7.3705,-7.4525,-7.4681,-7.4759,-7.472,-7.5384,-7.566,-7.4915,-7.4759,-7.4759,-7.4837,-7.4837,-7.4876,-7.0402,-7.0402,-7.0402,-7.0533,-7.0724,-7.0724,-7.0839,-7.103,-7.103,-7.0916,-7.0763,-7.0916,-7.0801,-7.0402,-7.0402,-7.0402,-7.0402,-7.0402,-7.0402,-7.0402,-7.0402,-7.0402,-7.0402,-7.0402,-7.0402,-7.0402,-7.0402,-7.0113,-6.9502,-6.9311,-6.8547,-6.7362,-6.7477,-6.7286,-6.6713,-6.6221,-6.5949,-6.5916,-6.6126,-6.6281,-6.6422,-6.6493,-6.6508,-6.6508,-6.6508,-6.6508,-6.6508,-6.6508,-6.6508,-6.6508,-6.6508,-6.6508,-6.6508,-6.6508,0.0,0.0,0.0,0.0,0.0,0.0,0.0,0.0,0.0,-7.0484,-7.0446,0.0,-7.1126,0.0,-6.9964,-7.0065,-7.0799,-7.0645,0.0,0.0,-7.0363,-6.9776,-6.9159,-6.8458,-6.7953,-6.7829,-6.7052,-6.7014,-6.8296,-6.8062,-6.7985,-6.8412,-6.849,-6.8257,-6.7635,-6.8062,-6.8567,-6.8762,-6.8801,-6.8878,-6.9119,-6.9305,-6.9874,-7.0758,-7.0983,-7.151,-7.3038,-7.3822,-7.4486,-7.5345,-7.6047,-7.6399,-7.6438,-7.6672,-7.6711,-7.6516,-7.6477,-7.6477,-7.6477,-7.6438,-7.6477,-7.0402,-7.0402,-7.0402,-7.0402,-7.0402,-7.0402,-7.0402,-7.0402,-7.0402,-7.0402,-7.0402,-7.0402,-7.0402,-7.0402,-7.0402,-7.0402,-7.0402,-7.0402,-7.0402,-7.0402,-7.0402,-7.0402,-7.0402,-7.0402,-7.0402,-7.0381,-7.0037,-6.9616,-6.9196,-6.8432,-6.7653,-6.6787,-6.6338,-6.6207,-6.6367,-6.6026,-6.5916,-6.6095,-6.6253,-6.6398,-6.6501,-6.6508,-6.6508,-6.6508,-6.6508,-6.6508,-6.6508,-6.6508,-6.6508,-6.6508,-6.6508,-6.6508,-6.6508,-6.6508,-6.6508,0.0,0.0,0.0,0.0,0.0,0.0,0.0,0.0,0.0,0.0,0.0,-7.0943,0.0,-7.0501,-7.0421,-7.0746,-7.0612,-7.059,-7.0756,-7.0428,-7.0001,-6.9535,-6.914,-6.8762,-6.8412,-6.7946,-6.814,-6.9461,-6.9578,-6.9655,-7.016,-7.0898,-7.0743,-6.9306,-6.9344,-6.9772,-7.016,-7.0199,-7.0231,-7.029,-7.0329,-7.0562,-7.1093,-7.1273,-7.1753,-7.3041,-7.3666,-7.4369,-7.5543,-7.6203,-7.6672,-7.6984,-7.7101,-7.7101,-7.7101,-7.7101,-7.7101,-7.7101,-7.7101,-7.7101,-7.0402,-7.0402,-7.0402,-7.0402,-7.0402,-7.0402,-7.0402,-7.0402,-7.0402,-7.0402,-7.0402,-7.0402,-7.0402,-7.0402,-7.0402,-7.0402,-7.0402,-7.0402,-7.0402,-7.0402,-7.0402,-7.0402,-7.0402,-7.0402,-7.0342,-7.0228,-6.954,-6.9097,-6.8862,-6.7409,-6.6725,-6.6742,-6.5911,-6.5651,-6.5997,-6.6019,-6.6095,-6.6253,-6.6414,-6.6508,-6.6508,-6.6508,-6.6508,-6.6508,-6.6508,-6.6508,-6.6508,-6.6508,-6.6508,-6.6508,-6.6508,-6.6508,-6.6508,-6.6508,-6.6508,0.0,-6.6508,0.0,0.0,0.0,0.0,0.0,0.0,0.0,0.0,-6.9578,-7.0385,-7.134,-7.1145,-7.0756,-7.0302,-7.0377,-7.0374,-7.0322,-7.0287,-7.0316,-7.0316,-7.0199,-6.9966,-6.95,-6.9306,-6.9616,-7.0704,-7.1403,-7.1753,-7.1986,-7.3035,-7.319,-7.152,-7.0976,-7.117,-7.1831,-7.1947,-7.1925,-7.1893,-7.1889,-7.1931,-7.1969,-7.1948,-7.226,-7.2963,-7.3236,-7.3783,-7.5071,-7.5504,-7.593,-7.675,-7.6906,-7.6945,-7.7062,-7.7101,-7.7101,-7.7101,-7.7101,-7.7101,-7.0402,-7.0402,-7.0402,-7.0402,-7.0402,-7.0402,-7.0402,-7.0402,-7.0402,-7.0402,-7.0402,-7.0402,-7.0402,-7.0402,-7.0402,-7.0402,-7.0402,-7.0402,-7.0402,-7.0402,-7.0402,-7.0402,-7.0402,-7.0402,-7.0075,-6.9464,-6.9273,-6.8541,-6.7337,-6.703,-6.6615,-6.6186,-6.597,-6.5986,-6.6138,0.0,0.0,0.0,-6.6454,-6.6508,-6.6508,-6.6508,-6.6508,-6.6508,-6.6508,0.0,-6.6508,-6.6508,-6.6508,-6.6508,-6.6508,0.0,0.0,0.0,0.0,0.0,0.0,0.0,0.0,0.0,0.0,0.0,-6.6819,-6.7285,-6.7985,-6.8179,-6.8877,-7.0186,-6.9721,-6.9788,-7.095,-7.1097,-7.1193,-7.1284,-7.0688,-7.0316,-7.0277,-6.9772,-6.9772,-7.0976,-7.051,-7.0937,-7.2996,-7.3035,-7.2957,-7.3618,-7.3967,-7.4278,-7.4472,-7.3773,-7.3501,-7.3695,-7.3618,-7.3449,-7.2924,-7.2863,-7.2672,-7.2203,-7.1987,-7.2104,-7.2339,-7.2885,-7.3275,-7.3861,-7.429,-7.5032,-7.5891,-7.6047,-7.6399,-7.6984,-7.7101,-7.7101,-7.7101,-7.7101,-7.7101,-7.0402,0.0,-7.0402,-7.0402,0.0,-7.0402,-7.0402,-7.0402,-7.0402,-7.0402,-7.0402,-7.0402,-7.0402,-7.0402,-7.0402,-7.0402,-7.0402,-7.0402,-7.0402,-7.0402,-7.0402,-7.0402,-7.0381,-6.9999,-6.9578,-6.9158,-6.8356,-6.7599,-6.6894,-6.6523,-6.6217,-6.6105,-6.6019,-6.6116,-6.6325,-6.6373,-6.6406,-6.6508,-6.6508,-6.6508,-6.6508,-6.6508,-6.6508,-6.6508,0.0,0.0,0.0,0.0,0.0,0.0,0.0,0.0,0.0,0.0,0.0,-6.6508,-6.6508,-6.6508,-6.6508,-6.6508,-6.6508,-6.6508,-6.6508,-6.6858,-6.7713,-6.7829,-6.8311,-6.9476,-6.9195,-6.9467,-7.063,-7.0786,-7.1016,-7.1512,-7.1209,-7.1093,-7.1481,-7.1248,-7.1481,-7.2569,-7.253,-7.2918,-7.4589,-7.4472,-7.455,-7.5249,-7.5094,-7.5133,-7.5832,-7.5366,-7.4861,-7.4822,-7.4434,-7.411,-7.3853,-7.3726,-7.3646,-7.3296,-7.3236,-7.3041,-7.269,-7.3002,-7.3315,-7.3354,-7.3978,-7.4759,-7.566,-7.644,-7.7218,-7.7648,-7.8077,-7.835,-7.8311,-7.7726,-7.7101,-7.0402,-7.0402,-7.0402,-7.0402,-7.0402,-7.0402,-7.0402,-7.0402,0.0,0.0,0.0,-7.0402,-7.0402,-7.0402,-7.0402,-7.0402,-7.0402,-7.0402,-7.0402,-7.0402,-7.0402,-7.0342,-7.019,-6.9502,-6.9043,-6.8699,-6.7362,-6.6681,-6.6677,-6.6064,-6.5916,-6.6196,-6.6126,-6.6206,-6.6493,-6.6508,-6.6508,-6.6508,-6.6508,-6.6508,-6.6508,-6.6508,-6.6508,-6.6508,-6.6508,-6.6508,-6.6508,-6.6508,-6.6508,-6.6508,-6.6508,-6.6508,-6.6508,-6.6508,-6.6508,-6.6508,-6.6508,-6.6508,-6.6508,-6.6508,-6.6508,-6.6508,-6.6508,-6.6819,-6.7519,-6.7557,-6.7946,-6.8801,-6.8878,-6.9189,-7.0005,-7.0238,-7.0626,-7.1481,-7.1753,-7.218,-7.2996,-7.3152,-7.3385,-7.4239,-7.4356,-7.4744,-7.556,-7.5677,-7.591,-7.6454,-7.6065,-7.591,-7.6454,-7.6104,-7.5716,-7.5638,-7.5228,-7.4748,-7.4632,-7.46,-7.4602,-7.4396,-7.4408,-7.4251,-7.3705,-7.351,-7.351,-7.3588,-7.4095,-7.4798,-7.566,-7.6789,-7.7963,-7.8158,-7.8741,-7.9287,-7.9326,-7.835,-7.7414,-7.0402,-7.0402,-7.0402,-7.0402,-7.0402,-7.0402,-7.0402,-7.0402,-7.0402,-7.0402,-7.0402,-7.0402,-7.0402,-7.0402,-7.0402,-7.0402,-7.0402,-7.0402,-7.0402,0.0,-7.0402,-7.0037,-6.9387,-6.9234,-6.8432,-6.7095,-6.6789,-6.6413,-6.5947,-6.5933,-6.6052,-6.6216,-6.6325,-6.6431,-6.6508,-6.6508,-6.6508,-6.6508,-6.6508,-6.6508,-6.6508,-6.6508,-6.6508,-6.6508,-6.6508,-6.6508,-6.6508,-6.6508,-6.6508,-6.6508,-6.6508,-6.6508,-6.6508,-6.6508,-6.6508,-6.6508,-6.6508,-6.6508,-6.6508,-6.6508,-6.6508,-6.6508,-6.6508,-6.6547,-6.6664,-6.6664,-6.7052,-6.7868,-6.7985,-6.8334,-6.9189,-6.9888,-7.0626,-7.152,-7.2258,-7.3074,-7.389,-7.4006,-7.4356,-7.5172,-7.5327,-7.5599,-7.6298,-7.6454,-7.6493,-7.6648,-7.6531,-7.657,-7.657,-7.6609,-7.6531,-7.654,-7.6482,-7.6169,-7.563,-7.5484,-7.5291,-7.4597,-7.4603,-7.4642,-7.4408,-7.4369,-7.433,-7.429,-7.4447,-7.4876,-7.566,-7.5933,-7.6711,-7.7335,-7.7726,-7.7999,-7.8663,-7.839,-7.8155,-7.0402,-7.0402,-7.0402,-7.0402,-7.0402,-7.0402,-7.0402,-7.0402,-7.0402,-7.0402,-7.0402,-7.0402,-7.0402,-7.0402,-7.0402,-7.0402,-7.0402,-7.0402,-7.0402,-7.0402,-7.0402,-6.996,-6.9196,-6.8699,-6.7859,-6.6713,-6.6216,-6.5915,-6.5703,-6.5782,-6.5916,-6.6105,-6.6253,-6.6364,-6.6334,-6.6439,-6.6508,-6.6508,-6.6508,-6.6508,-6.6508,-6.6508,-6.6508,-6.6508,-6.6508,-6.6508,-6.6508,-6.6508,-6.6508,-6.6508,-6.6508,-6.6508,-6.6508,-6.6508,-6.6508,-6.6508,-6.6508,-6.6508,-6.6508,-6.6508,-6.6508,-6.6508,-6.6508,-6.6508,-6.6508,-6.6508,-6.6664,-6.7052,-6.7091,-6.7441,-6.8296,-6.915,-7.016,-7.1481,-7.2375,-7.3462,-7.4628,-7.49,-7.5249,-7.5988,-7.6143,-7.6298,-7.6648,-7.6687,-7.6687,-7.6687,-7.6687,-7.657,-7.6182,-7.6458,-7.6762,-7.6762,-7.6793,-7.667,-7.6404,-7.6405,-7.6279,-7.5924,-7.5891,-7.5696,-7.5345,-7.5227,-7.4993,-7.4642,-7.4837,-7.5305,-7.5816,-7.6633,-7.7257,-7.7648,-7.8233,-7.8663,-7.9014,-7.878,-7.8429,-7.0402,-7.0402,-7.0402,-7.0402,-7.0402,-7.0402,-7.0402,-7.0402,-7.0402,-7.0402,-7.0402,-7.0402,-7.0402,-7.0402,-7.0402,-7.0402,-7.0402,-7.0402,-7.0402,-7.0364,-7.0228,-6.9693,-6.8852,-6.8012,-6.7209,-6.6407,-6.5719,-6.5465,-6.5635,-6.569,-6.5782,-6.5974,-6.6077,-6.6158,-6.6196,-6.6334,-6.6439,-6.6508,-6.6508,-6.6508,-6.6508,-6.6508,-6.6508,-6.6508,-6.6508,-6.6508,-6.6508,-6.6508,-6.6508,-6.6508,-6.6508,-6.6508,-6.6508,-6.6508,-6.6508,-6.6508,-6.6508,-6.6508,-6.6508,-6.6508,-6.6508,-6.6508,-6.6508,-6.6508,-6.6508,-6.6508,-6.6508,-6.6508,-6.6742,-6.713,-6.7829,-6.8801,-6.9966,-7.1442,-7.2569,-7.3812,-7.5211,-7.5638,-7.5988,-7.657,-7.6687,-7.6687,-7.6687,-7.6687,-7.6609,-7.6454,-7.6415,-7.6143,-7.575,-7.6272,-7.6784,-7.6819,-7.6826,-7.687,-7.6995,-7.6977,-7.6993,-7.7098,-7.7023,-7.6672,-7.6242,-7.6089,-7.5891,-7.5384,-7.5657,-7.6047,-7.6203,-7.7062,-7.7843,-7.796,-7.8311,-7.8936,-7.917,-7.8819,-7.8432,-7.0402,-7.0402,-7.0402,-7.0402,-7.0402,-7.0402,-7.0402,-7.0402,-7.0402,-7.0402,-7.0402,-7.0402,-7.0402,-7.0402,-7.0402,-7.0402,-7.0402,-7.0402,-7.0402,-7.0288,-6.9655,-6.8852,-6.8012,-6.7209,-6.633,-6.5643,-6.5452,-6.5429,-6.5435,-6.5608,-6.5782,-6.6001,-6.5997,-6.6084,-6.6177,-6.6205,-6.6316,-6.6508,-6.6508,-6.6508,-6.6508,-6.6508,-6.6508,-6.6508,-6.6508,-6.6508,-6.6508,-6.6508,-6.6508,-6.6508,-6.6508,-6.6508,-6.6508,-6.6508,-6.6508,-6.6508,-6.6508,-6.6508,-6.6508,-6.6508,-6.6508,-6.6508,-6.6508,-6.6508,-6.6508,-6.6508,-6.6508,-6.6625,-6.7247,-6.7674,-6.7868,-6.9189,-7.051,-7.1481,-7.3035,-7.4472,-7.5366,-7.6143,-7.6648,-7.6687,-7.6687,-7.6687,-7.6687,-7.6687,-7.6415,-7.5832,-7.5754,-7.5663,-7.5541,-7.6154,-7.6716,-7.6882,-7.6951,-7.699,-7.7012,-7.7078,-7.7092,-7.7101,-7.7101,-7.6984,-7.6867,-7.6867,-7.6867,-7.6477,-7.6711,-7.6828,-7.6867,-7.7179,-7.7218,-7.7414,-7.757,-7.7648,-7.8272,-7.839,-7.8314,-7.0402,-7.0402,-7.0402,-7.0402,-7.0402,-7.0402,-7.0402,-7.0402,-7.0402,-7.0402,-7.0402,-7.0402,-7.0402,-7.0402,-7.0402,-7.0402,-7.0402,-7.0402,-7.0113,-6.9693,-6.9349,-6.8508,-6.7247,-6.6865,-6.6254,-6.5452,-6.5413,-6.5413,-6.5429,-6.5479,-6.5566,-6.5676,-6.5744,-6.5905,-6.6084,-6.6148,-6.6299,-6.6501,-6.6508,-6.6508,-6.6508,-6.6508,-6.6508,-6.6508,-6.6508,-6.6508,-6.6508,-6.6508,-6.6508,-6.6508,-6.6508,-6.6508,-6.6508,-6.6508,-6.6508,-6.6508,-6.6508,-6.6508,-6.6508,-6.6508,-6.6508,-6.6508,-6.6508,-6.6508,-6.6547,-6.6975,-6.7247,-6.7324,-6.7596,-6.7985,-6.8567,-6.9616,-7.0665,-7.1636,-7.3152,-7.4511,-7.5405,-7.6182,-7.6687,-7.6687,-7.6687,-7.6687,-7.6687,-7.6687,-7.6337,-7.5716,-7.5491,-7.533,-7.5019,-7.5573,-7.6103,-7.6288,-7.6673,-7.7,-7.7082,-7.7092,-7.7101,-7.7101,-7.7101,-7.7101,-7.7101,-7.7101,-7.7062,-7.7101,-7.7101,-7.7101,-7.7062,-7.7101,-7.7101,-7.7101,-7.7101,-7.7257,-7.757,-7.7648,-7.7609,-7.0402,-7.0402,-7.0402,-7.0402,-7.0402,-7.0402,-7.0402,-7.0402,-7.0402,-7.0402,-7.0402,-7.0402,-7.0402,-7.0402,-7.0402,-7.0402,-7.0402,-7.0402,-6.996,-6.9234,-6.8967,-6.8088,-6.6789,-6.6445,-6.6025,-6.549,-6.5413,-6.5413,-6.5413,-6.5413,-6.5413,-6.5444,-6.5552,-6.573,-6.5905,-6.6084,-6.6244,-6.6406,-6.6485,-6.6508,-6.6508,-6.6508,-6.6508,-6.6508,-6.6508,-6.6508,-6.6508,-6.6508,-6.6508,-6.6508,-6.6508,-6.6508,-6.6508,-6.6508,-6.6508,-6.6508,-6.6508,-6.6508,-6.6508,-6.6508,-6.6508,-6.6508,-6.6508,-6.6508,-6.6625,-6.7285,-6.7868,-6.8179,-6.8334,-6.8839,-6.9344,-7.016,-7.0898,-7.1636,-7.2996,-7.4123,-7.4706,-7.5521,-7.5949,-7.6026,-7.6104,-7.6493,-7.6609,-7.6454,-7.5988,-7.5288,-7.5119,-7.4888,-7.4307,-7.4728,-7.5372,-7.5417,-7.6149,-7.6786,-7.7023,-7.7101,-7.7101,-7.7101,-7.7101,-7.7101,-7.7101,-7.7101,-7.7101,-7.7101,-7.7101,-7.7101,-7.7101,-7.7101,-7.7101,-7.7101,-7.7101,-7.7101,-7.7218,-7.714,-7.7101,-7.0402,-7.0402,-7.0402,-7.0402,-7.0402,-7.0402,-7.0402,-7.0402,-7.0402,-7.0402,-7.0402,-7.0402,-7.0402,-7.0402,-7.0402,-7.0402,-7.0402,-7.0364,-6.9884,-6.9082,-6.8317,-6.7515,-6.6674,-6.5872,-6.5452,-6.5413,-6.5413,-6.5413,-6.5413,-6.5413,-6.5413,-6.5413,-6.5444,-6.5523,-6.5743,-6.5905,-6.6084,-6.6235,-6.6398,-6.6501,-6.6501,-6.6501,-6.6508,-6.6508,-6.6508,-6.6508,-6.6508,-6.6508,-6.6508,-6.6508,-6.6508,-6.6508,-6.6508,-6.6508,-6.6508,-6.6508,-6.6508,-6.6508,-6.6508,-6.6508,-6.6508,-6.6508,-6.6508,-6.6508,-6.6664,-6.7402,-6.8218,-6.8956,-6.9694,-7.016,-7.0316,-7.0937,-7.1442,-7.1598,-7.2413,-7.2996,-7.3113,-7.4084,-7.4278,-7.455,-7.5094,-7.5716,-7.6454,-7.6026,-7.5219,-7.4537,-7.4312,-7.4067,-7.3514,-7.3963,-7.4472,-7.4701,-7.5264,-7.6125,-7.6867,-7.7101,-7.7101,-7.7101,-7.7101,-7.7101,-7.7101,-7.7101,-7.7101,-7.7101,-7.7101,-7.7101,-7.7101,-7.7101,-7.7101,-7.7101,-7.7101,-7.7101,-7.7101,-7.7101,-7.7101,-7.0402,-7.0402,-7.0402,-7.0402,-7.0402,-7.0402,-7.0402,-7.0402,-7.0402,-7.0402,-7.0402,-7.0402,-7.0402,-7.0402,-7.0402,-7.0402,-7.0342,-6.9884,-6.9196,-6.8317,-6.7515,-6.6674,-6.5872,-6.5528,-6.5413,-6.5413,-6.5413,-6.5413,-6.5413,-6.5413,-6.5413,-6.5413,-6.5413,-6.5494,-6.569,-6.5795,-6.5893,-6.6074,-6.6235,-6.6308,-6.6316,-6.6431,-6.6508,-6.6508,-6.6508,-6.6508,-6.6508,-6.6508,-6.6508,-6.6508,-6.6508,-6.6508,-6.6508,-6.6508,-6.6508,-6.6508,-6.6508,-6.6508,-6.6508,-6.6508,-6.6508,-6.6508,-6.6508,-6.678,-6.7324,-6.814,-6.8995,-6.9772,-7.0626,-7.1093,-7.117,-7.1442,-7.1598,-7.1714,-7.2375,-7.288,-7.3074,-7.3657,-7.42,-7.4239,-7.4511,-7.4783,-7.5016,-7.4861,-7.4342,-7.3605,-7.341,-7.3126,-7.269,-7.3066,-7.3636,-7.3846,-7.4447,-7.5266,-7.6125,-7.6789,-7.7101,-7.7101,-7.7101,-7.7101,-7.7101,-7.7101,-7.7101,-7.7101,-7.7101,-7.7101,-7.7101,-7.7101,-7.7101,-7.7101,-7.7101,-7.7101,-7.7101,-7.7101,-7.7101,-7.0402,-7.0402,-7.0402,-7.0402,-7.0402,-7.0402,-7.0402,-7.0402,-7.0402,-7.0402,-7.0402,-7.0402,-7.0402,-7.0402,-7.0402,-7.0266,-6.9999,-6.9425,-6.8699,-6.7859,-6.7056,-6.6216,-6.5528,-6.5413,-6.5413,-6.5413,-6.5413,-6.5413,-6.5413,-6.5413,-6.5413,-6.5413,-6.5413,-6.545,-6.5594,-6.5676,-6.5756,-6.5905,-6.6063,-6.6118,-6.6177,-6.6299,-6.6406,-6.6414,-6.6446,-6.6508,-6.6508,-6.6508,-6.6508,-6.6508,-6.6508,-6.6508,-6.6508,-6.6508,-6.6508,-6.6508,-6.6508,-6.6508,-6.6508,-6.6508,-6.6508,-6.6508,-6.678,-6.7208,-6.7829,-6.8839,-6.9694,-7.0354,-7.1093,-7.1598,-7.1598,-7.1598,-7.1598,-7.1636,-7.2142,-7.2491,-7.253,-7.2957,-7.3385,-7.3657,-7.3734,-7.389,-7.4123,-7.42,-7.3837,-7.3076,-7.2944,-7.2679,-7.215,-7.2344,-7.2773,-7.2899,-7.3582,-7.4243,-7.4984,-7.5687,-7.6747,-7.6945,-7.7062,-7.7101,-7.7101,-7.7101,-7.7101,-7.7101,-7.7101,-7.7101,-7.7101,-7.7101,-7.7101,-7.7101,-7.7101,-7.7101,-7.7101,-7.7101,-7.714,-7.0402,-7.0402,-7.0402,-7.0402,-7.0402,-7.0402,-7.0402,-7.0402,-7.0402,-7.0402,-7.0402,-7.0402,-7.0402,-7.0402,-7.0402,-6.9999,-6.9387,-6.912,-6.8585,-6.7744,-6.698,-6.6178,-6.5413,-6.5413,-6.5413,-6.5413,-6.5413,-6.5413,-6.5413,-6.5413,-6.5413,-6.5413,-6.5413,-6.5429,-6.539,-6.5594,-6.569,-6.5718,-6.5881,-6.5974,-6.6036,-6.6147,-6.6225,-6.6244,-6.6389,-6.6493,-6.6501,-6.6508,-6.6508,-6.6508,-6.6508,-6.6508,-6.6508,-6.6508,-6.6508,-6.6508,-6.6508,-6.6508,-6.6508,-6.6508,-6.6508,-6.6742,-6.7285,-6.7752,-6.8296,-6.9344,-7.0277,-7.0549,-7.1093,-7.1598,-7.1598,-7.1598,-7.1598,-7.1598,-7.1714,-7.1753,-7.1714,-7.1636,-7.1947,-7.2685,-7.2918,-7.3268,-7.3851,-7.3906,-7.3487,-7.2967,-7.2801,-7.2651,-7.1989,-7.1998,-7.1995,-7.2147,-7.2693,-7.336,-7.3949,-7.4581,-7.5804,-7.6789,-7.6984,-7.7101,-7.7101,-7.7101,-7.7101,-7.7101,-7.7101,-7.7101,-7.7101,-7.7101,-7.7101,-7.7101,-7.7101,-7.7101,-7.7101,-7.7179,-7.7335,-7.0402,-7.0402,-7.0402,-7.0402,-7.0402,-7.0402,-7.0402,-7.0402,-7.0402,-7.0402,-7.0402,-7.0402,-7.0402,-7.0402,-7.0419,-6.996,-6.9196,-6.8585,-6.7859,-6.7056,-6.6216,-6.5681,-6.5452,-6.5413,-6.5413,-6.5413,-6.5413,-6.5413,-6.5413,-6.5413,-6.5413,-6.5413,-6.5413,-6.5413,-6.5413,-6.545,-6.5494,-6.5509,-6.5703,-6.5808,-6.5795,-6.5974,-6.6063,-6.6084,-6.6216,-6.6299,-6.6299,-6.6422,-6.6508,-6.6508,-6.6508,-6.6508,-6.6508,-6.6508,-6.6508,-6.6508,-6.6508,-6.6508,-6.6508,-6.6508,-6.6742,-6.7285,-6.7674,-6.8412,-6.9344,-6.9966,-7.0588,-7.1054,-7.1442,-7.1598,-7.1598,-7.1598,-7.1598,-7.1598,-7.1598,-7.1598,-7.1598,-7.1598,-7.1714,-7.1908,-7.2025,-7.2142,-7.2352,-7.2493,-7.2485,-7.2251,-7.2153,-7.2049,-7.1926,-7.1882,-7.1848,-7.1954,-7.231,-7.27,-7.3406,-7.4191,-7.5261,-7.6298,-7.678,-7.7059,-7.7098,-7.7101,-7.7101,-7.7101,-7.7101,-7.7101,-7.7101,-7.7101,-7.7101,-7.714,-7.714,-7.7179,-7.7179,-7.7453,-7.7843,-7.0402,-7.0402,-7.0402,-7.0402,-7.0402,-7.0402,-7.0402,-7.0402,-7.0402,-7.0402,-7.0402,-7.0402,-7.0402,-7.0402,-7.0402,-6.996,-6.9158,-6.8279,-6.7477,-6.6674,-6.5796,-6.5413,-6.5413,-6.5413,-6.5413,-6.5413,-6.5413,-6.5413,-6.5413,-6.5413,-6.5413,-6.5413,-6.5413,-6.5413,-6.5413,-6.5413,-6.5413,-6.5444,-6.5523,-6.5594,-6.5635,-6.5769,-6.5869,-6.5905,-6.6116,-6.6177,-6.6235,-6.6406,-6.6508,-6.6508,-6.6508,-6.6508,-6.6508,-6.6508,-6.6508,-6.6508,-6.6508,-6.6508,-6.6508,-6.6508,-6.6858,-6.7635,-6.8101,-6.8839,-7.0044,-7.051,-7.1093,-7.1481,-7.1598,-7.1598,-7.1598,-7.1598,-7.1598,-7.1598,-7.1598,-7.1598,-7.1598,-7.1598,-7.1598,-7.1636,-7.1636,-7.1598,-7.1614,-7.1638,-7.1675,-7.1675,-7.1725,-7.1751,-7.1861,-7.2128,-7.2106,-7.2116,-7.2378,-7.2729,-7.308,-7.3875,-7.4748,-7.5681,-7.6528,-7.6894,-7.7095,-7.7101,-7.7101,-7.7101,-7.7101,-7.7101,-7.7101,-7.7101,-7.7101,-7.714,-7.7335,-7.7648,-7.7882,-7.8468,-7.8858,-7.0402,-7.0402,-7.0402,-7.0402,-7.0402,-7.0402,-7.0402,-7.0402,-7.0402,-7.0402,-7.0402,-7.0402,-7.0402,-7.0402,-7.0402,-6.996,-6.9158,-6.8279,-6.7477,-6.6636,-6.5834,-6.5413,-6.5413,-6.5413,-6.5413,-6.5413,-6.5413,-6.5413,-6.5413,-6.5413,-6.5413,-6.5413,-6.5413,-6.5413,-6.5413,-6.5413,-6.5413,-6.5375,-6.5429,-6.5444,-6.5444,-6.558,-6.5717,-6.5743,-6.5992,-6.6167,-6.6205,-6.6398,-6.6508,-6.6508,-6.6508,-6.6508,-6.6508,-6.6508,-6.6508,-6.6508,-6.6508,-6.6508,-6.6508,-6.6664,-6.7091,-6.7946,-6.8762,-6.9492,-7.0393,-7.1054,-7.1481,-7.1598,-7.1598,-7.1598,-7.1598,-7.1598,-7.1598,-7.1598,-7.1598,-7.1598,-7.1598,-7.1598,-7.1598,-7.1598,-7.1598,-7.1598,-7.1606,-7.1614,-7.1622,-7.1638,-7.1686,-7.1725,-7.1835,-7.2088,-7.239,-7.2462,-7.2399,-7.2744,-7.3094,-7.4248,-7.5057,-7.559,-7.64,-7.6844,-7.7092,-7.7098,-7.7101,-7.7101,-7.7101,-7.7101,-7.7179,-7.7218,-7.7335,-7.7492,-7.7804,-7.8275,-7.878,-7.9287,-7.9717,-7.0402,-7.0402,-7.0402,-7.0402,-7.0402,-7.0402,-7.0402,-7.0402,-7.0402,-7.0402,-7.0402,-7.0402,-7.0402,-7.0402,-7.0402,-6.996,-6.9196,-6.8356,-6.7477,-6.6674,-6.5796,-6.5413,-6.5413,-6.5413,-6.5413,-6.5413,-6.5413,-6.5413,-6.5413,-6.5413,-6.5413,-6.5413,-6.5413,-6.5413,-6.5413,-6.5413,-6.5413,-6.5413,-6.5413,-6.5413,-6.5429,-6.5435,-6.5552,-6.5691,-6.594,-6.6116,-6.6225,-6.6398,-6.6508,-6.6508,-6.6508,-6.6508,-6.6508,-6.6508,-6.6508,-6.6508,-6.6508,-6.6508,-6.6625,-6.7091,-6.7829,-6.8684,-6.9422,-7.0354,-7.117,-7.1442,-7.1598,-7.1598,-7.1598,-7.1598,-7.1598,-7.1598,-7.1598,-7.1598,-7.1598,-7.1598,-7.1598,-7.1598,-7.1598,-7.1598,-7.1598,-7.1598,-7.1606,-7.1638,-7.1653,-7.163,-7.1683,-7.1706,-7.1803,-7.1977,-7.2276,-7.227,-7.2327,-7.2716,-7.3345,-7.4534,-7.5333,-7.5693,-7.6314,-7.6915,-7.705,-7.7101,-7.7101,-7.7101,-7.7101,-7.7101,-7.7375,-7.757,-7.7726,-7.796,-7.8702,-7.9287,-7.96,-8.0029,-8.0498,-7.0009,-7.0402,-7.0402,-7.0402,-7.0402,-7.0402,-7.0402,-7.0402,-7.0402,-7.0402,-7.0402,-7.0402,-7.0402,-7.0402,-7.0402,-7.0151,-6.9655,-6.8814,-6.8012,-6.7095,-6.5987,-6.5452,-6.5413,-6.5413,-6.5413,-6.5413,-6.5413,-6.5413,-6.5413,-6.5413,-6.5413,-6.5413,-6.5413,-6.5413,-6.5413,-6.5413,-6.5413,-6.5413,-6.5413,-6.5413,-6.5413,-6.5479,-6.558,-6.5718,-6.594,-6.6167,-6.6308,-6.6431,-6.6508,-6.6508,-6.6508,-6.6508,-6.6508,-6.6508,-6.6508,-6.6508,-6.6508,-6.6625,-6.7052,-6.7557,-6.8373,-6.9383,-7.0083,-7.0704,-7.1365,-7.1598,-7.1598,-7.1598,-7.1598,-7.1598,-7.1598,-7.1598,-7.1598,-7.1598,-7.1598,-7.1598,-7.1598,-7.1598,-7.1598,-7.1598,-7.1598,-7.1598,-7.1598,-7.1645,-7.1638,-7.163,-7.1629,-7.1651,-7.1714,-7.1925,-7.2143,-7.2306,-7.2905,-7.3535,-7.407,-7.5072,-7.5813,-7.6166,-7.6404,-7.7,-7.705,-7.7101,-7.7101,-7.7101,-7.7101,-7.7257,-7.7648,-7.8038,-7.839,-7.8819,-7.9678,-8.0185,-8.0459,-8.0771,-8.12,-6.943,-7.0304,-7.0342,-7.0402,-7.0402,-7.0402,-7.0402,-7.0402,-7.0402,-7.0402,-7.0402,-7.0402,-7.0402,-7.0402,-7.0402,-7.0364,-7.0304,-6.9425,-6.8623,-6.7591,-6.6445,-6.5643,-6.5681,-6.549,-6.5413,-6.5413,-6.5413,-6.5413,-6.5413,-6.5413,-6.5413,-6.5413,-6.5413,-6.5413,-6.5413,-6.5413,-6.5413,-6.5413,-6.5413,-6.5413,-6.5444,-6.5523,-6.5649,-6.5795,-6.6105,-6.629,-6.6431,-6.6508,-6.6508,-6.6508,-6.6508,-6.6508,-6.6508,-6.6508,-6.6508,-6.6586,-6.6703,-6.7052,-6.7674,-6.8024,-6.8723,-6.9966,-7.0354,-7.0743,-7.1403,-7.1598,-7.1598,-7.1598,-7.1598,-7.1598,-7.1598,-7.1598,-7.1598,-7.1598,-7.1598,-7.1598,-7.1598,-7.1598,-7.1598,-7.1598,-7.1598,-7.1598,-7.1598,-7.1598,-7.1598,-7.1614,-7.1645,-7.1653,-7.184,-7.2221,-7.2477,-7.2694,-7.3526,-7.4592,-7.5106,-7.5663,-7.6226,-7.6687,-7.6766,-7.7053,-7.7056,-7.7101,-7.7101,-7.7101,-7.7101,-7.7492,-7.8116,-7.8507,-7.8975,-7.9717,-8.0537,-8.0888,-8.12,-8.1513,-8.1942,-6.9125,-6.9502,-7.0151,-7.0402,-7.0402,-7.0402,-7.0402,-7.0402,-7.0402,-7.0402,-7.0402,-7.0402,-7.0402,-7.0402,-7.0402,-7.0402,-7.0288,-6.954,-6.8738,-6.7821,-6.6942,-6.6445,-6.6254,-6.5796,-6.5452,-6.5413,-6.5413,-6.5413,-6.5413,-6.5413,-6.5413,-6.5413,-6.5413,-6.5413,-6.5413,-6.5413,-6.5413,-6.5413,-6.5413,-6.5413,-6.5375,-6.545,-6.5649,-6.5893,-6.6225,-6.6414,-6.6493,-6.6508,-6.6508,-6.6508,-6.6508,-6.6508,-6.6508,-6.6508,-6.6547,-6.6742,-6.7169,-6.7596,-6.7985,-6.8995,-6.9888,-7.0277,-7.0898,-7.1403,-7.152,-7.1598,-7.1598,-7.1598,-7.1598,-7.1598,-7.1598,-7.1598,-7.1598,-7.1598,-7.1598,-7.1598,-7.1598,-7.1598,-7.1598,-7.1598,-7.1598,-7.1598,-7.1598,-7.1598,-7.1598,-7.1606,-7.1606,-7.1614,-7.2011,-7.2516,-7.2935,-7.3268,-7.4156,-7.516,-7.5663,-7.6112,-7.6542,-7.6899,-7.7007,-7.7101,-7.7101,-7.7101,-7.7101,-7.7101,-7.7101,-7.7687,-7.8507,-7.9209,-7.9717,-8.0576,-8.1317,-8.1591,-8.1864,-8.2254,-8.2293,-6.86,-6.9273,-7.0075,-7.0402,-7.0402,-7.0402,-7.0402,-7.0402,-7.0402,-7.0402,-7.0402,-7.0402,-7.0402,-7.0402,-7.0402,-7.0402,-7.0228,-6.9578,-6.8967,-6.8394,-6.7668,-6.7056,-6.6674,-6.6216,-6.5834,-6.549,-6.5413,-6.5413,-6.5413,-6.5413,-6.5413,-6.5413,-6.5413,-6.5413,-6.5413,-6.5413,-6.5413,-6.5413,-6.5413,-6.5413,-6.5413,-6.5494,-6.5638,-6.5963,-6.6216,-6.6342,-6.6334,-6.6439,-6.6501,-6.6508,-6.6508,-6.6508,-6.6508,-6.6508,-6.6664,-6.7169,-6.748,-6.8296,-6.9034,-6.9772,-7.0432,-7.086,-7.1365,-7.152,-7.1598,-7.1598,-7.1598,-7.1598,-7.1598,-7.1598,-7.1598,-7.1598,-7.1598,-7.1598,-7.1598,-7.1598,-7.1598,-7.1598,-7.1598,-7.1598,-7.1598,-7.1598,-7.1598,-7.1598,-7.1598,-7.1598,-7.1684,-7.1722,-7.2344,-7.2888,-7.3587,-7.4131,-7.4911,-7.5626,-7.6177,-7.656,-7.6821,-7.7004,-7.7056,-7.7101,-7.7101,-7.7101,-7.7101,-7.714,-7.7257,-7.8194,-7.9014,-7.9717,-8.0498,-8.1356,-8.1942,-8.2215,-8.2293,-8.2293,-8.2293,-6.7905,-6.9082,-6.9884,-7.0304,-7.0381,-7.0402,-7.0402,-7.0402,-7.0402,-7.0402,-7.0402,-7.0402,-7.0402,-7.0402,-7.0402,-7.0402,-7.0228,-6.9846,-6.9425,-6.9273,-6.8508,-6.7859,-6.7324,-6.6827,-6.6292,-6.5605,-6.5452,-6.5413,-6.5413,-6.5413,-6.5413,-6.5413,-6.5413,-6.5413,-6.5413,-6.5413,-6.5413,-6.5413,-6.5413,-6.5413,-6.539,-6.5537,-6.5691,-6.5905,-6.6095,-6.6148,-6.6225,-6.6308,-6.6422,-6.6453,-6.6485,-6.6493,-6.6446,-6.654,-6.6897,-6.7713,-6.7946,-6.8723,-6.9772,-7.0432,-7.0898,-7.1559,-7.1598,-7.1598,-7.1598,-7.1598,-7.1598,-7.1598,-7.1598,-7.1598,-7.1598,-7.1598,-7.1598,-7.1598,-7.1598,-7.1598,-7.1598,-7.1598,-7.1598,-7.1598,-7.1598,-7.1598,-7.1598,-7.1598,-7.1598,-7.1636,-7.1714,-7.2025,-7.2647,-7.3393,-7.4217,-7.4825,-7.5565,-7.6034,-7.6537,-7.6751,-7.7043,-7.7053,-7.7101,-7.714,-7.7101,-7.7101,-7.714,-7.7335,-7.7687,-7.8585,-7.9444,-8.0146,-8.1005,-8.1981,-8.2293,-8.2293,-8.2293,-8.2293,-8.2293,-6.703,-6.8203,-6.9043,-6.9769,-7.0326,-7.0402,-7.0402,-7.0402,-7.0402,-7.0402,-7.0402,-7.0402,-7.0402,-7.0402,-7.0402,-7.0402,-7.0326,-7.0151,-7.0113,-6.9999,-6.9311,-6.8776,-6.8394,-6.7477,-6.6751,-6.633,-6.5872,-6.549,-6.5413,-6.5413,-6.5413,-6.5413,-6.5413,-6.5413,-6.5413,-6.5413,-6.5413,-6.5413,-6.5413,-6.5413,-6.539,-6.5435,-6.5566,-6.5769,-6.5928,-6.6008,-6.6063,-6.6167,-6.6206,-6.6116,-6.6355,-6.6381,-6.6385,-6.6475,-6.699,-6.779,-6.8567,-6.9383,-7.0316,-7.0976,-7.1326,-7.1559,-7.1598,-7.1598,-7.1598,-7.1598,-7.1598,-7.1598,-7.1598,-7.1598,-7.1598,-7.1598,-7.1598,-7.1598,-7.1598,-7.1598,-7.1598,-7.1598,-7.1598,-7.1598,-7.1598,-7.1598,-7.1598,-7.1636,-7.1753,-7.1947,-7.2219,-7.2647,-7.3307,-7.4178,-7.5097,-7.5635,-7.6147,-7.6547,-7.6897,-7.6946,-7.7098,-7.7098,-7.7101,-7.7218,-7.7179,-7.7101,-7.7218,-7.7765,-7.8194,-7.8819,-7.9678,-8.0537,-8.1278,-8.2137,-8.2254,-8.2293,-8.2293,-8.2293,-8.2293,-6.6802,-6.7973,-6.8814,-6.9655,-7.0342,-7.0402,-7.0402,-7.0402,-7.0402,-7.0402,-7.0402,-7.0402,-7.0402,-7.0402,-7.0402,-7.0402,-7.0402,-7.0402,-7.0402,-7.0266,-6.9999,-6.954,-6.9273,-6.8279,-6.7782,-6.7209,-6.6483,-6.5796,-6.5413,-6.5413,-6.5413,-6.5413,-6.5413,-6.5413,-6.5413,-6.5413,-6.5413,-6.5413,-6.5413,-6.5413,-6.5413,-6.5413,-6.5465,-6.5566,-6.5743,-6.5858,-6.5907,-6.6019,-6.6074,-6.6041,-6.6136,-6.6389,-6.665,-6.6912,-6.7337,-6.8372,-6.922,-7.0083,-7.0782,-7.1403,-7.1559,-7.1598,-7.1598,-7.1598,-7.1598,-7.1598,-7.1598,-7.1598,-7.1598,-7.1598,-7.1598,-7.1598,-7.1598,-7.1598,-7.1598,-7.1598,-7.1598,-7.1598,-7.1598,-7.1598,-7.1598,-7.1598,-7.1598,-7.1675,-7.187,-7.2219,-7.2685,-7.3307,-7.3967,-7.4825,-7.5759,-7.6169,-7.6566,-7.6726,-7.7012,-7.7039,-7.7101,-7.7101,-7.7296,-7.7375,-7.7609,-7.7687,-7.8116,-7.8663,-7.9092,-7.9405,-8.0224,-8.12,-8.1747,-8.2176,-8.2254,-8.2293,-8.2293,-8.2293,-8.2293,-6.6633,-6.7973,-6.8661,-6.9502,-7.0304,-7.0402,-7.0402,-7.0402,-7.0402,-7.0402,-7.0402,-7.0402,-7.0402,-7.0402,-7.0402,-7.0402,-7.0402,-7.0402,-7.0402,-7.0402,-7.0342,-6.9999,-6.9616,-6.9158,-6.8738,-6.8126,-6.7324,-6.6483,-6.5834,-6.549,-6.5413,-6.5413,-6.5413,-6.5413,-6.5413,-6.5413,-6.5413,-6.5413,-6.5413,-6.5413,-6.5413,-6.5413,-6.5413,-6.5413,-6.5566,-6.5649,-6.5676,-6.582,-6.5869,-6.5958,-6.6159,-6.6514,-6.7085,-6.7533,-6.8193,-6.9138,-6.9899,-7.0671,-7.1326,-7.1559,-7.1598,-7.1598,-7.1598,-7.1598,-7.1598,-7.1598,-7.1598,-7.1598,-7.1598,-7.1598,-7.1598,-7.1598,-7.1598,-7.1598,-7.1598,-7.1598,-7.1598,-7.1598,-7.1598,-7.1598,-7.1598,-7.1636,-7.1636,-7.2064,-7.2336,-7.2841,-7.3307,-7.4162,-7.4831,-7.5448,-7.62,-7.6586,-7.6877,-7.6934,-7.7043,-7.705,-7.7101,-7.7101,-7.7453,-7.7804,-7.8155,-7.8468,-7.9014,-7.96,-7.9834,-8.0224,-8.1044,-8.163,-8.202,-8.2254,-8.2293,-8.2293,-8.2293,-8.2293,-8.2293,-6.6176,-6.7897,-6.8012,-6.8929,-7.0288,-7.0402,-7.0402,-7.0402,-7.0402,-7.0402,-7.0402,-7.0402,-7.0402,-7.0402,-7.0402,-7.0402,-7.0402,-7.0402,-7.0402,-7.0402,-7.0402,-7.0342,-7.0113,-6.9464,-6.9311,-6.889,-6.8165,-6.7324,-6.6636,-6.5948,-6.549,-6.549,-6.5452,-6.5413,-6.5413,-6.5413,-6.5413,-6.5413,-6.5413,-6.5413,-6.5413,-6.5413,-6.5413,-6.5429,-6.5459,-6.545,-6.5479,-6.5649,-6.5728,-6.5719,-6.6538,-6.6935,-6.7244,-6.8667,-6.9357,-6.9733,-7.0036,-7.0564,-7.1361,-7.1598,-7.1598,-7.1598,-7.1598,-7.1598,-7.1598,-7.1598,-7.1598,-7.1598,-7.1598,-7.1598,-7.1598,-7.1598,-7.1598,-7.1598,-7.1598,-7.1598,-7.1598,-7.1598,-7.1598,-7.1598,-7.1598,-7.1675,-7.1753,-7.2297,-7.2841,-7.3424,-7.4045,-7.4869,-7.5572,-7.6115,-7.6462,-7.6848,-7.6995,-7.7043,-7.7053,-7.7101,-7.7296,-7.7218,-7.7687,-7.8233,-7.8897,-7.9405,-7.9951,-8.0459,-8.0693,-8.0849,-8.1317,-8.1786,-8.2176,-8.2293,-8.2293,-8.2293,-8.2293,-8.2293,-8.2293,-6.6062,-6.7897,-6.7897,-6.8852,-7.0304,-7.0402,-7.0402,-7.0402,-7.0402,-7.0402,-7.0402,-7.0402,-7.0402,-7.0402,-7.0402,-7.0402,-7.0402,-7.0402,-7.0402,-7.0402,-7.0402,-7.0402,-7.0326,-7.0075,-6.9884,-6.9616,-6.912,-6.8585,-6.7782,-6.6865,-6.6139,-6.6063,-6.5681,-6.5413,-6.5452,-6.5413,-6.5413,-6.5413,-6.5413,-6.5413,-6.5413,-6.5413,-6.5413,-6.5413,-6.5413,-6.5413,-6.5482,-6.5488,-6.58,-6.6055,-6.6758,-6.7386,-6.8095,-6.905,-6.9662,-7.0488,-7.0548,-7.0877,-7.1339,-7.1508,-7.1589,-7.1598,-7.1598,-7.1598,-7.1598,-7.1598,-7.1598,-7.1598,-7.1598,-7.1598,-7.1598,-7.1598,-7.1598,-7.1598,-7.1598,-7.1598,-7.1598,-7.1598,-7.1598,-7.1598,-7.1636,-7.1792,-7.2064,-7.2647,-7.3268,-7.3967,-7.4645,-7.5439,-7.6062,-7.6547,-7.6814,-7.6989,-7.7043,-7.7098,-7.7098,-7.7101,-7.757,-7.7726,-7.8038,-7.8741,-7.9756,-8.042,-8.0849,-8.1278,-8.1591,-8.1708,-8.1747,-8.1903,-8.2254,-8.2293,-8.2293,-8.2293,-8.2293,-8.2293,-8.2293,-6.5994,-6.7849,-6.7881,-6.8852,-7.0381,-7.0402,-7.0402,-7.0402,-7.0402,-7.0402,-7.0402,-7.0402,-7.0402,-7.0402,-7.0402,-7.0402,-7.0402,-7.0402,-7.0402,-7.0402,-7.0402,-7.0402,-7.0364,-7.0326,-7.0326,-7.0402,-6.9807,-6.9464,-6.9005,-6.8165,-6.7286,-6.698,-6.6216,-6.5872,-6.5681,-6.5528,-6.5413,-6.5413,-6.5413,-6.5413,-6.5413,-6.5413,-6.5413,-6.5413,-6.5413,-6.5528,-6.5681,-6.5757,-6.6178,-6.6843,-6.7393,-6.8112,-6.89,-6.9428,-6.9957,-7.0615,-7.0812,-7.0985,-7.1229,-7.1436,-7.1573,-7.1598,-7.1598,-7.1598,-7.1598,-7.1598,-7.1598,-7.1598,-7.1598,-7.1598,-7.1598,-7.1598,-7.1598,-7.1598,-7.1598,-7.1598,-7.1598,-7.1598,-7.1598,-7.1598,-7.1753,-7.2103,-7.2452,-7.2996,-7.3657,-7.4472,-7.5236,-7.6007,-7.6455,-7.6866,-7.6965,-7.705,-7.7095,-7.7101,-7.7179,-7.7296,-7.7765,-7.8311,-7.8663,-7.9248,-8.0341,-8.1083,-8.1552,-8.1981,-8.2293,-8.2215,-8.202,-8.2176,-8.2293,-8.2293,-8.2293,-8.2293,-8.2293,-8.2293,-8.2293,-6.5838,-6.7707,-6.7833,-6.8852,-7.0402,-7.0402,-7.0402,-7.0402,-7.0402,-7.0402,-7.0402,-7.0402,-7.0402,-7.0402,-7.0402,-7.0402,-7.0402,-7.0402,-7.0402,-7.0402,-7.0402,-7.0402,-7.0402,-7.0402,-7.0402,-7.0402,-7.019,-7.019,-7.0075,-6.9349,-6.8508,-6.7821,-6.7056,-6.6751,-6.6445,-6.6101,-6.5834,-6.5796,-6.5796,-6.5681,-6.5681,-6.5643,-6.5643,-6.5566,-6.5566,-6.5757,-6.656,-6.6598,-6.698,-6.7782,-6.8317,-6.8814,-6.9387,-6.9846,-7.0324,-7.0613,-7.0888,-7.1014,-7.1214,-7.1436,-7.1581,-7.1598,-7.1598,-7.1598,-7.1598,-7.1598,-7.1598,-7.1598,-7.1598,-7.1598,-7.1598,-7.1598,-7.1598,-7.1598,-7.1598,-7.1598,-7.1598,-7.1598,-7.1598,-7.1598,-7.1908,-7.2375,-7.3113,-7.3695,-7.42,-7.4977,-7.5727,-7.6498,-7.6599,-7.6921,-7.7016,-7.705,-7.7098,-7.714,-7.7296,-7.7648,-7.8233,-7.9053,-7.9639,-8.0185,-8.0927,-8.1552,-8.202,-8.2137,-8.2293,-8.2293,-8.2293,-8.2293,-8.2293,-8.2293,-8.2293,-8.2293,-8.2293,-8.2293,-8.2293,-6.5746,-6.7496,-6.7669,-6.8755,-7.0402,-7.0402,-7.0402,-7.0402,-7.0402,-7.0402,-7.0402,-7.0402,-7.0402,-7.0402,-7.0402,-7.0402,-7.0402,-7.0402,-7.0402,-7.0402,-7.0402,-7.0402,-7.0402,-7.0402,-7.0402,-7.0402,-7.0402,-7.0402,-7.0288,-6.9999,-6.9884,-6.9158,-6.8088,-6.7591,-6.7209,-6.7018,-6.6865,-6.6865,-6.6865,-6.6904,-6.6942,-6.6942,-6.6942,-6.6942,-6.6942,-6.7056,-6.74,-6.7439,-6.7935,-6.8547,-6.9043,-6.9425,-6.9807,-7.0266,-7.047,-7.0666,-7.0915,-7.1101,-7.1288,-7.1482,-7.1589,-7.1598,-7.1598,-7.1598,-7.1598,-7.1598,-7.1598,-7.1598,-7.1598,-7.1598,-7.1598,-7.1598,-7.1598,-7.1598,-7.1598,-7.1598,-7.1598,-7.1598,-7.1598,-7.1598,-7.2219,-7.288,-7.3657,-7.4472,-7.4939,-7.5452,-7.6202,-7.6801,-7.6891,-7.6921,-7.7008,-7.7157,-7.7206,-7.7531,-7.7726,-7.8233,-7.8819,-7.9639,-8.0537,-8.1044,-8.1513,-8.1825,-8.2215,-8.2293,-8.2293,-8.2293,-8.2293,-8.2293,-8.2293,-8.2293,-8.2293,-8.2293,-8.2293,-8.2293,-8.2293,-6.5672,-6.7351,-6.7528,-6.8689,-7.0288,-7.0402,-7.0402,-7.0402,-7.0402,-7.0402,-7.0402,-7.0402,-7.0402,-7.0402,-7.0402,-7.0402,-7.0402,-7.0402,-7.0402,-7.0402,-7.0402,-7.0402,-7.0402,-7.0402,-7.0402,-7.0402,-7.0402,-7.0402,-7.0402,-7.0402,-7.0288,-6.9922,-6.9311,-6.8738,-6.8203,-6.8012,-6.7897,-6.7897,-6.7897,-6.7897,-6.7859,-6.7821,-6.7782,-6.7782,-6.7744,-6.7973,-6.8165,-6.8317,-6.8738,-6.9273,-6.9655,-6.9884,-7.019,-7.0451,-7.057,-7.0766,-7.0979,-7.112,-7.1339,-7.1564,-7.1589,-7.1598,-7.1598,-7.1598,-7.1598,-7.1598,-7.1598,-7.1598,-7.1598,-7.1598,-7.1598,-7.1598,-7.1598,-7.1598,-7.1598,-7.1598,-7.1598,-7.1598,-7.1598,-7.1636,-7.2375,-7.3152,-7.4162,-7.4977,-7.5638,-7.6005,-7.6373,-7.6801,-7.6851,-7.6888,-7.6951,-7.7176,-7.7387,-7.783,-7.8272,-7.9092,-7.9834,-8.0263,-8.1044,-8.1552,-8.202,-8.2254,-8.2293,-8.2293,-8.2293,-8.2293,-8.2293,-8.2293,-8.2293,-8.2293,-8.2293,-8.2293,-8.2293,-8.2293,-8.2293,-6.5709,-6.7351,-6.7566,-6.8689,-7.0326,-7.0402,-7.0402,-7.0402,-7.0402,-7.0402,-7.0402,-7.0402,-7.0402,-7.0402,-7.0402,-7.0402,-7.0402,-7.0402,-7.0402,-7.0402,-7.0402,-7.0402,-7.0402,-7.0402,-7.0402,-7.0402,-7.0402,-7.0402,-7.0402,-7.0402,-7.0402,-7.0402,-7.0037,-6.9693,-6.912,-6.8356,-6.7973,-6.7973,-6.8088,-6.8165,-6.8241,-6.8279,-6.8317,-6.8317,-6.8356,-6.8661,-6.9005,-6.9158,-6.954,-6.9999,-7.0151,-7.025,-7.0364,-7.0402,-7.0445,-7.0524,-7.0796,-7.0965,-7.1026,-7.1407,-7.1573,-7.1598,-7.1598,-7.1598,-7.1598,-7.1598,-7.1598,-7.1598,-7.1598,-7.1598,-7.1598,-7.1598,-7.1598,-7.1598,-7.1598,-7.1598,-7.1598,-7.1598,-7.1598,-7.1831,-7.253,-7.3346,-7.4472,-7.5444,-7.6221,-7.6596,-7.6739,-7.6816,-7.6837,-7.6885,-7.6911,-7.7199,-7.7493,-7.8214,-7.8852,-8.0068,-8.0849,-8.12,-8.1513,-8.1942,-8.2176,-8.2254,-8.2293,-8.2293,-8.2293,-8.2293,-8.2293,-8.2293,-8.2293,-8.2293,-8.2293,-8.2293,-8.2293,-8.2293,-8.2293,-6.5783,-6.7587,-6.7656,-6.8727,-7.0288,-7.0402,-7.0402,-7.0402,-7.0402,-7.0402,-7.0402,-7.0402,-7.0402,-7.0402,-7.0402,-7.0402,-7.0402,-7.0402,-7.0402,-7.0402,-7.0402,-7.0402,-7.0402,-7.0402,-7.0402,-7.0402,-7.0402,-7.0402,-7.0402,-7.0402,-7.0402,-7.0402,-7.0364,-7.0266,-7.0037,-6.9655,-6.9578,-6.9578,-6.9578,-6.9578,-6.954,-6.9502,-6.9464,-6.9464,-6.9425,-6.9616,-6.9884,-6.9884,-7.0113,-7.0381,-7.0402,-7.0402,-7.0402,-7.0402,-7.0445,-7.0517,-7.0769,-7.0888,-7.1026,-7.1339,-7.1589,-7.1598,-7.1598,-7.1598,-7.1598,-7.1598,-7.1598,-7.1598,-7.1598,-7.1598,-7.1598,-7.1598,-7.1598,-7.1598,-7.1598,-7.1598,-7.1598,-7.1598,-7.1675,-7.2103,-7.2685,-7.4239,-7.5521,-7.5832,-7.6454,-7.6687,-7.6738,-7.6786,-7.6816,-7.6844,-7.6891,-7.7248,-7.7641,-7.848,-7.9392,-8.0573,-8.1396,-8.1747,-8.1903,-8.2137,-8.2293,-8.2293,-8.2293,-8.2293,-8.2293,-8.2293,-8.2293,-8.2293,-8.2293,-8.2293,-8.2293,-8.2293,-8.2293,-8.2293,-8.2293,-6.6065,-6.7604,-6.8066,-6.906,-7.0288,-7.0402,-7.0402,-7.0402,-7.0402,-7.0402,-7.0402,-7.0402,-7.0402,-7.0402,-7.0402,-7.0402,-7.0402,-7.0402,-7.0402,-7.0402,-7.0402,-7.0402,-7.0402,-7.0402,-7.0402,-7.0402,-7.0402,-7.0402,-7.0402,-7.0402,-7.0402,-7.0402,-7.0402,-7.0364,-7.0326,-7.0266,-7.0266,-7.0211,-7.019,-7.0211,-7.025,-7.0288,-7.0326,-7.0288,-7.0288,-7.0364,-7.0364,-7.0402,-7.0402,-7.0402,-7.0402,-7.0402,-7.0402,-7.0435,-7.0461,-7.0547,-7.0695,-7.0808,-7.1014,-7.1278,-7.1454,-7.1472,-7.1564,-7.1598,-7.1598,-7.1598,-7.1598,-7.1598,-7.1598,-7.1598,-7.1598,-7.1598,-7.1598,-7.1598,-7.1598,-7.1598,-7.1598,-7.1598,-7.1675,-7.2142,-7.319,-7.4861,-7.6259,-7.6415,-7.6648,-7.6687,-7.6687,-7.6746,-7.6801,-7.6823,-7.7027,-7.7506,-7.8144,-7.9061,-7.9974,-8.1002,-8.1708,-8.2215,-8.2293,-8.2293,-8.2293,-8.2293,-8.2293,-8.2293,-8.2293,-8.2293,-8.2293,-8.2293,-8.2293,-8.2293,-8.2293,-8.2293,-8.2293,-8.2293,-8.2293,-6.665,-6.7556,-6.8705,-6.9638,-7.0326,-7.0402,-7.0402,-7.0402,-7.0402,-7.0402,-7.0402,-7.0402,-7.0402,-7.0402,-7.0402,-7.0402,-7.0402,-7.0402,-7.0402,-7.0402,-7.0402,-7.0402,-7.0402,-7.0402,-7.0402,-7.0402,-7.0402,-7.0402,-7.0402,-7.0402,-7.0402,-7.0402,-7.0402,-7.0402,-7.0402,-7.0402,-7.0402,-7.0402,-7.0402,-7.0402,-7.0402,-7.0402,-7.0402,-7.0402,-7.0402,-7.0402,-7.0402,-7.0402,-7.0402,-7.0402,-7.0402,-7.0402,-7.0402,-7.0402,-7.0419,-7.0445,-7.0593,-7.0755,-7.0889,-7.1097,-7.1268,-7.1309,-7.1463,-7.1525,-7.1598,-7.1598,-7.1598,-7.1598,-7.1598,-7.1598,-7.1598,-7.1598,-7.1598,-7.1598,-7.1598,-7.1598,-7.1598,-7.1636,-7.1714,-7.2336,-7.354,-7.4977,-7.6259,-7.6687,-7.6687,-7.6696,-7.6713,-7.6778,-7.6823,-7.6816,-7.719,-7.8067,-7.8768,-7.976,-8.0676,-8.1431,-8.1864,-8.2293,-8.2293,-8.2293,-8.2293,-8.2293,-8.2293,-8.2293,-8.2293,-8.2293,-8.2293,-8.2293,-8.2293,-8.2293,-8.2293,-8.2293,-8.2293,-8.2293,-8.2293,-6.7429,-6.8479,-6.8849,-6.954,-7.0326,-7.0402,-7.0402,-7.0402,-7.0402,-7.0402,-7.0402,-7.0402,-7.0402,-7.0402,-7.0402,-7.0402,-7.0402,-7.0402,-7.0402,-7.0402,-7.0402,-7.0402,-7.0402,-7.0402,-7.0402,-7.0402,-7.0402,-7.0402,-7.0402,-7.0402,-7.0402,-7.0402,-7.0402,-7.0402,-7.0402,-7.0402,-7.0402,-7.0402,-7.0402,-7.0402,-7.0402,-7.0402,-7.0402,-7.0402,-7.0402,-7.0402,-7.0402,-7.0402,-7.0402,-7.0402,-7.0402,-7.0402,-7.0402,-7.0402,-7.0419,-7.0435,-7.0586,-7.0695,-7.0652,-7.0876,-7.1074,-7.112,-7.1288,-7.1463,-7.1517,-7.1598,-7.1598,-7.1598,-7.1598,-7.1598,-7.1598,-7.1598,-7.1598,-7.1598,-7.1636,-7.1675,-7.1714,-7.187,-7.2025,-7.3035,-7.4239,-7.5172,-7.6415,-7.6687,-7.6687,-7.6704,-7.6746,-7.6808,-7.6929,-7.6968,-7.7488,-7.8399,-7.9283,-8.0236,-8.0953,-8.1669,-8.202,-8.2293,-8.2293,-8.2293,-8.2293,-8.2293,-8.2293,-8.2293,-8.2293,-8.2293,-8.2293,-8.2293,-8.2293,-8.2293,-8.2293,-8.2293,-8.2293,-8.2254,-8.2293,-6.794,-6.8677,-6.9181,-6.9756,-7.0364,-7.0402,-7.0402,-7.0402,-7.0402,-7.0402,-7.0402,-7.0402,-7.0402,-7.0402,-7.0402,-7.0402,-7.0402,-7.0402,-7.0402,-7.0402,-7.0402,-7.0402,-7.0402,-7.0402,-7.0402,-7.0402,-7.0402,-7.0402,-7.0402,-7.0402,-7.0402,-7.0402,-7.0402,-7.0402,-7.0402,-7.0402,-7.0402,-7.0402,-7.0402,-7.0402,-7.0402,-7.0402,-7.0402,-7.0402,-7.0402,-7.0402,-7.0402,-7.0402,-7.0402,-7.0402,-7.0402,-7.0402,-7.0402,-7.0402,-7.0402,-7.0435,-7.0477,-7.0524,-7.0508,-7.071,-7.0863,-7.1002,-7.1192,-7.1368,-7.1508,-7.1598,-7.1598,-7.1598,-7.1598,-7.1598,-7.1598,-7.1598,-7.1598,-7.1598,-7.1675,-7.1753,-7.1947,-7.2103,-7.288,-7.389,-7.4822,-7.5677,-7.6298,-7.6531,-7.6687,-7.6704,-7.6754,-7.683,-7.7086,-7.7434,-7.8057,-7.894,-7.9771,-8.0637,-8.1272,-8.1864,-8.2098,-8.2293,-8.2293,-8.2293,-8.2293,-8.2293,-8.2293,-8.2293,-8.2293,-8.2293,-8.2293,-8.2293,-8.2293,-8.2293,-8.2215,-8.2059,-8.2059,-8.2137,-8.2176,-6.8407,-6.8562,-6.9623,-7.0192,-7.0402,-7.0402,-7.0402,-7.0402,-7.0402,-7.0402,-7.0402,-7.0402,-7.0402,-7.0402,-7.0402,-7.0402,-7.0402,-7.0402,-7.0402,-7.0402,-7.0402,-7.0402,-7.0402,-7.0402,-7.0402,-7.0402,-7.0402,-7.0402,-7.0402,-7.0402,-7.0402,-7.0402,-7.0402,-7.0402,-7.0402,-7.0402,-7.0402,-7.0402,-7.0402,-7.0402,-7.0402,-7.0402,-7.0402,-7.0402,-7.0402,-7.0402,-7.0402,-7.0402,-7.0402,-7.0402,-7.0402,-7.0402,-7.0402,-7.0402,-7.0402,-7.0419,-7.0451,-7.0451,-7.0467,-7.0563,-7.0766,-7.0966,-7.1158,-7.1299,-7.1426,-7.1581,-7.1598,-7.1598,-7.1598,-7.1598,-7.1598,-7.1598,-7.1598,-7.1753,-7.1908,-7.2142,-7.2413,-7.2918,-7.3929,-7.4783,-7.5405,-7.6182,-7.6454,-7.6687,-7.6687,-7.6704,-7.6786,-7.6865,-7.7422,-7.7862,-7.8612,-7.947,-8.0172,-8.0917,-8.1662,-8.2137,-8.2215,-8.2293,-8.2293,-8.2293,-8.2293,-8.2293,-8.2293,-8.2293,-8.2293,-8.2293,-8.2293,-8.2293,-8.2293,-8.2293,-8.2176,-8.1864,-8.1786,-8.1864,-8.1903,-6.9176,-6.9512,-7.0085,-7.0369,-7.0402,-7.0402,-7.0402,-7.0402,-7.0402,-7.0402,-7.0402,-7.0402,-7.0402,-7.0402,-7.0402,-7.0402,-7.0402,-7.0402,-7.0402,-7.0402,-7.0402,-7.0402,-7.0402,-7.0402,-7.0402,-7.0402,-7.0402,-7.0402,-7.0402,-7.0402,-7.0402,-7.0402,-7.0402,-7.0402,-7.0402,-7.0402,-7.0402,-7.0402,-7.0402,-7.0402,-7.0402,-7.0402,-7.0402,-7.0402,-7.0402,-7.0402,-7.0402,-7.0402,-7.0402,-7.0402,-7.0402,-7.0402,-7.0402,-7.0402,-7.0402,-7.0402,-7.0402,-7.0402,-7.0435,-7.0477,-7.0631,-7.0724,-7.0915,-7.1062,-7.1278,-7.1482,-7.1598,-7.1598,-7.1598,-7.1598,-7.1598,-7.1598,-7.1675,-7.1908,-7.218,-7.253,-7.2957,-7.3967,-7.4977,-7.5521,-7.6065,-7.6337,-7.6609,-7.6687,-7.6687,-7.6746,-7.6844,-7.711,-7.8007,-7.8633,-7.9135,-7.9906,-8.0495,-8.1236,-8.1981,-8.2293,-8.2293,-8.2293,-8.2293,-8.2293,-8.2293,-8.2293,-8.2293,-8.2293,-8.2293,-8.2293,-8.2293,-8.2254,-8.2254,-8.2137,-8.1786,-8.1317,-8.1356,-8.1435,-8.1474,-6.946,-6.9682,-7.0109,-7.0298,-7.0402,-7.0402,-7.0402,-7.0402,-7.0402,-7.0402,-7.0402,-7.0402,-7.0402,-7.0402,-7.0402,-7.0402,-7.0402,-7.0402,-7.0402,-7.0402,-7.0402,-7.0402,-7.0402,-7.0402,-7.0402,-7.0402,-7.0402,-7.0402,-7.0402,-7.0402,-7.0402,-7.0402,-7.0402,-7.0402,-7.0402,-7.0402,-7.0402,-7.0402,-7.0402,-7.0402,-7.0402,-7.0402,-7.0402,-7.0402,-7.0402,-7.0402,-7.0402,-7.0402,-7.0402,-7.0402,-7.0402,-7.0402,-7.0402,-7.0402,-7.0402,-7.0402,-7.0402,-7.0402,-7.0402,-7.0435,-7.0493,-7.0608,-7.071,-7.0902,-7.1097,-7.1309,-7.1499,-7.1517,-7.1598,-7.1598,-7.1598,-7.1598,-7.1986,-7.2297,-7.2685,-7.3035,-7.4045,-7.5211,-7.5793,-7.6104,-7.6454,-7.6493,-7.6687,-7.6687,-7.6743,-7.6934,-7.6995,-7.7484,-7.8345,-7.9353,-7.9896,-8.042,-8.1005,-8.1474,-8.2098,-8.2293,-8.2293,-8.2293,-8.2293,-8.2293,-8.2293,-8.2293,-8.2293,-8.2293,-8.2293,-8.2293,-8.2293,-8.1981,-8.1747,-8.1552,-8.1122,-8.0693,-8.081,-8.081,-8.0693,-6.9481,-6.9562,-6.9928,-7.0161,-7.0298,-7.0298,-7.0298,-7.0298,-7.0298,-7.0298,-7.0281,-7.0281,-7.0315,-7.0402,-7.0402,-7.0402,-7.0402,-7.0402,-7.0402,-7.0402,-7.0402,-7.0402,-7.0402,-7.0402,-7.0402,-7.0402,-7.0402,-7.0402,-7.0402,-7.0402,-7.0402,-7.0402,-7.0402,-7.0402,-7.0402,-7.0402,-7.0402,-7.0402,-7.0402,-7.0402,-7.0402,-7.0402,-7.0402,-7.0402,-7.0402,-7.0402,-7.0402,-7.0402,-7.0402,-7.0402,-7.0402,-7.0402,-7.0402,-7.0402,-7.0402,-7.0402,-7.0402,-7.0402,-7.0402,-7.0419,-7.0508,-7.0578,-7.0652,-7.078,-7.094,-7.117,-7.1339,-7.1472,-7.1556,-7.1636,-7.1636,-7.187,-7.2336,-7.2841,-7.3229,-7.3812,-7.5094,-7.6182,-7.6415,-7.6648,-7.6648,-7.6687,-7.6687,-7.6687,-7.6816,-7.701,-7.7469,-7.7997,-7.8711,-7.976,-8.0608,-8.1083,-8.1591,-8.202,-8.2293,-8.2293,-8.2293,-8.2293,-8.2293,-8.2293,-8.2293,-8.2293,-8.2293,-8.2254,-8.2254,-8.2059,-8.1669,-8.1278,-8.1083,-8.0849,-8.0576,-8.0146,-7.9678,-7.9717,-7.9678,-6.9336,-6.9521,-6.9778,-6.9891,-6.9928,-6.989,-6.989,-6.9928,-6.9947,-6.9928,-6.9965,-6.9965,-7.0073,-7.0402,-7.0402,-7.0386,-7.0281,-7.0353,-7.0386,-7.0402,-7.0369,-7.0386,-7.0402,-7.0386,-7.0402,-7.0402,-7.0402,-7.0402,-7.0402,-7.0402,-7.0402,-7.0402,-7.0402,-7.0402,-7.0402,-7.0402,-7.0402,-7.0402,-7.0402,-7.0402,-7.0402,-7.0402,-7.0402,-7.0402,-7.0402,-7.0402,-7.0402,-7.0402,-7.0402,-7.0402,-7.0402,-7.0402,-7.0402,-7.0402,-7.0402,-7.0402,-7.0402,-7.0402,-7.0402,-7.0402,-7.0477,-7.0477,-7.0524,-7.0547,-7.078,-7.0991,-7.1181,-7.1378,-7.1484,-7.1736,-7.187,-7.2336,-7.2841,-7.3501,-7.4006,-7.5016,-7.6182,-7.6454,-7.6609,-7.6687,-7.6687,-7.6687,-7.6687,-7.6743,-7.6824,-7.7173,-7.7838,-7.8442,-7.9392,-8.0357,-8.1278,-8.1669,-8.2098,-8.2215,-8.2293,-8.2293,-8.2293,-8.2293,-8.2293,-8.2293,-8.2293,-8.2293,-8.2293,-8.2254,-8.1825,-8.1474,-8.1044,-8.081,-8.0224,-8.0029,-7.9951,-7.9639,-7.9053,-7.878,-7.8975]},{"header":{"parameterUnit":"m.s-1","parameterCategory":1,"la1":31.0,"la2":29.5877,"lo1":-88.7671,"lo2":-86.6584,"dy":0.0162,"dx":0.0185,"nx":115,"ny":88,"refTime":"2024-02-19T06:00:00:Z","depth":0,"parameterNumber":3,"parameterNumberName":"V-component_of_WINDS"},"data":[0.0,0.0,0.0,0.0,0.0,0.0,0.0,0.0,0.0,0.0,0.0,0.0,0.0,0.0,0.0,0.0,0.0,0.0,0.0,0.0,0.0,0.0,0.0,0.0,0.0,0.0,0.0,0.0,0.0,0.0,0.0,0.0,0.0,0.0,0.0,0.0,0.0,0.0,0.0,0.0,0.0,0.0,0.0,0.0,0.0,0.0,0.0,0.0,0.0,0.0,0.0,0.0,0.0,0.0,0.0,0.0,0.0,0.0,0.0,0.0,0.0,0.0,0.0,0.0,0.0,0.0,0.0,0.0,0.0,0.0,0.0,0.0,0.0,0.0,0.0,0.0,0.0,0.0,0.0,0.0,0.0,0.0,0.0,0.0,0.0,0.0,0.0,0.0,0.0,0.0,0.0,0.0,0.0,0.0,0.0,0.0,0.0,0.0,0.0,0.0,0.0,0.0,0.0,0.0,0.0,0.0,0.0,0.0,0.0,0.0,0.0,0.0,0.0,0.0,0.0,0.0,0.0,0.0,0.0,0.0,0.0,0.0,0.0,0.0,0.0,0.0,0.0,0.0,0.0,0.0,0.0,0.0,0.0,0.0,0.0,0.0,0.0,0.0,0.0,0.0,0.0,0.0,0.0,0.0,0.0,0.0,0.0,0.0,0.0,0.0,0.0,0.0,0.0,0.0,0.0,0.0,0.0,0.0,0.0,0.0,0.0,0.0,0.0,0.0,0.0,0.0,0.0,0.0,0.0,0.0,0.0,0.0,0.0,0.0,0.0,0.0,0.0,0.0,0.0,0.0,0.0,0.0,0.0,0.0,0.0,0.0,0.0,0.0,0.0,0.0,0.0,0.0,0.0,0.0,0.0,0.0,0.0,0.0,0.0,0.0,0.0,0.0,0.0,0.0,0.0,0.0,0.0,0.0,0.0,0.0,0.0,0.0,0.0,0.0,0.0,0.0,0.0,0.0,0.0,0.0,0.0,0.0,0.0,0.0,0.0,0.0,0.0,0.0,0.0,0.0,0.0,0.0,0.0,0.0,0.0,0.0,0.0,0.0,0.0,0.0,0.0,0.0,0.0,0.0,0.0,0.0,0.0,0.0,0.0,0.0,0.0,0.0,0.0,0.0,0.0,0.0,0.0,0.0,0.0,0.0,0.0,0.0,0.0,0.0,0.0,0.0,0.0,0.0,0.0,0.0,0.0,0.0,0.0,0.0,0.0,0.0,0.0,0.0,0.0,0.0,0.0,0.0,0.0,0.0,0.0,0.0,0.0,0.0,0.0,0.0,0.0,0.0,0.0,0.0,0.0,0.0,0.0,0.0,0.0,0.0,0.0,0.0,0.0,0.0,0.0,0.0,0.0,0.0,0.0,0.0,0.0,0.0,0.0,0.0,0.0,0.0,0.0,0.0,0.0,0.0,0.0,0.0,0.0,0.0,0.0,0.0,0.0,0.0,0.0,0.0,0.0,0.0,0.0,0.0,0.0,0.0,0.0,0.0,0.0,0.0,0.0,0.0,0.0,0.0,0.0,0.0,0.0,0.0,0.0,0.0,0.0,0.0,0.0,0.0,0.0,0.0,0.0,0.0,0.0,0.0,0.0,0.0,0.0,0.0,0.0,0.0,0.0,0.0,0.0,0.0,0.0,0.0,0.0,0.0,0.0,0.0,0.0,0.0,0.0,0.0,0.0,0.0,0.0,0.0,0.0,0.0,0.0,0.0,0.0,0.0,0.0,0.0,0.0,0.0,0.0,0.0,0.0,0.0,0.0,0.0,0.0,0.0,0.0,0.0,0.0,0.0,0.0,0.0,0.0,0.0,0.0,0.0,0.0,0.0,0.0,0.0,0.0,0.0,0.0,0.0,0.0,0.0,0.0,0.0,0.0,0.0,0.0,0.0,0.0,0.0,0.0,0.0,0.0,0.0,0.0,0.0,0.0,0.0,0.0,0.0,0.0,0.0,0.0,0.0,0.0,0.0,0.0,0.0,0.0,0.0,0.0,0.0,0.0,0.0,0.0,0.0,0.0,0.0,0.0,0.0,0.0,0.0,0.0,0.0,0.0,0.0,0.0,0.0,0.0,0.0,0.0,0.0,0.0,0.0,0.0,0.0,0.0,0.0,0.0,0.0,0.0,0.0,0.0,0.0,0.0,0.0,0.0,0.0,0.0,0.0,0.0,0.0,0.0,0.0,0.0,0.0,0.0,0.0,0.0,0.0,0.0,0.0,0.0,0.0,0.0,0.0,0.0,0.0,0.0,0.0,0.0,0.0,0.0,0.0,0.0,0.0,0.0,0.0,0.0,0.0,0.0,0.0,0.0,0.0,0.0,0.0,0.0,0.0,0.0,0.0,0.0,0.0,0.0,0.0,0.0,0.0,0.0,0.0,0.0,0.0,0.0,0.0,0.0,0.0,0.0,0.0,0.0,0.0,0.0,0.0,0.0,0.0,0.0,0.0,0.0,0.0,0.0,0.0,0.0,0.0,0.0,0.0,0.0,0.0,0.0,0.0,0.0,0.0,0.0,0.0,0.0,0.0,0.0,0.0,0.0,0.0,0.0,0.0,0.0,0.0,0.0,0.0,0.0,0.0,0.0,0.0,0.0,0.0,0.0,0.0,0.0,0.0,0.0,0.0,0.0,0.0,0.0,0.0,0.0,0.0,0.0,0.0,0.0,0.0,0.0,0.0,0.0,0.0,0.0,0.0,0.0,0.0,0.0,0.0,0.0,0.0,0.0,0.0,0.0,0.0,0.0,0.0,0.0,0.0,0.0,0.0,0.0,0.0,0.0,0.0,0.0,0.0,0.0,0.0,0.0,0.0,0.0,0.0,0.0,0.0,0.0,0.0,0.0,0.0,0.0,0.0,0.0,0.0,0.0,0.0,0.0,0.0,0.0,0.0,0.0,0.0,0.0,0.0,0.0,0.0,0.0,0.0,0.0,0.0,0.0,0.0,0.0,0.0,0.0,0.0,0.0,0.0,0.0,0.0,0.0,0.0,0.0,0.0,0.0,0.0,0.0,0.0,0.0,0.0,0.0,0.0,0.0,0.0,0.0,0.0,0.0,0.0,0.0,0.0,0.0,0.0,0.0,0.0,0.0,0.0,0.0,0.0,0.0,0.0,0.0,0.0,0.0,0.0,0.0,0.0,0.0,0.0,0.0,0.0,0.0,0.0,0.0,0.0,0.0,0.0,0.0,0.0,0.0,0.0,0.0,0.0,0.0,0.0,0.0,0.0,0.0,0.0,0.0,0.0,0.0,0.0,0.0,0.0,0.0,0.0,0.0,0.0,0.0,0.0,0.0,0.0,0.0,0.0,0.0,0.0,0.0,0.0,0.0,0.0,0.0,0.0,0.0,0.0,0.0,0.0,0.0,0.0,0.0,0.0,0.0,0.0,0.0,0.0,0.0,0.0,0.0,0.0,0.0,0.0,0.0,0.0,0.0,0.0,0.0,0.0,0.0,0.0,0.0,0.0,0.0,0.0,0.0,0.0,0.0,0.0,0.0,0.0,0.0,0.0,0.0,0.0,0.0,0.0,0.0,0.0,0.0,0.0,0.0,0.0,0.0,0.0,0.0,0.0,0.0,0.0,0.0,0.0,0.0,0.0,0.0,0.0,0.0,0.0,0.0,0.0,0.0,0.0,0.0,0.0,0.0,0.0,0.0,0.0,0.0,0.0,0.0,0.0,0.0,0.0,0.0,0.0,0.0,0.0,0.0,0.0,0.0,0.0,0.0,0.0,0.0,0.0,0.0,0.0,0.0,0.0,0.0,0.0,0.0,0.0,0.0,0.0,0.0,0.0,0.0,0.0,0.0,0.0,0.0,0.0,0.0,0.0,0.0,0.0,0.0,0.0,0.0,0.0,0.0,0.0,0.0,0.0,0.0,0.0,0.0,0.0,0.0,0.0,0.0,0.0,0.0,0.0,0.0,0.0,0.0,0.0,0.0,0.0,0.0,0.0,0.0,0.0,0.0,0.0,0.0,0.0,0.0,0.0,0.0,0.0,0.0,0.0,0.0,0.0,0.0,0.0,0.0,0.0,0.0,0.0,0.0,0.0,0.0,0.0,0.0,0.0,0.0,0.0,0.0,0.0,0.0,0.0,0.0,0.0,0.0,0.0,0.0,0.0,0.0,0.0,0.0,0.0,0.0,0.0,0.0,0.0,0.0,0.0,0.0,0.0,0.0,0.0,0.0,0.0,0.0,0.0,0.0,0.0,0.0,0.0,0.0,0.0,0.0,0.0,0.0,0.0,0.0,0.0,0.0,0.0,0.0,0.0,-1.3904,0.0,0.0,0.0,0.0,0.0,0.0,0.0,0.0,0.0,0.0,0.0,0.0,0.0,0.0,0.0,0.0,0.0,0.0,0.0,0.0,0.0,0.0,0.0,0.0,0.0,0.0,0.0,0.0,0.0,0.0,0.0,0.0,0.0,0.0,0.0,0.0,0.0,0.0,0.0,0.0,0.0,0.0,0.0,0.0,0.0,0.0,0.0,0.0,0.0,0.0,0.0,0.0,0.0,0.0,0.0,0.0,0.0,0.0,0.0,0.0,0.0,0.0,0.0,0.0,0.0,0.0,0.0,0.0,0.0,0.0,0.0,0.0,0.0,0.0,0.0,0.0,0.0,0.0,0.0,0.0,0.0,0.0,0.0,0.0,0.0,0.0,0.0,0.0,0.0,0.0,0.0,0.0,0.0,0.0,0.0,0.0,0.0,0.0,0.0,0.0,0.0,0.0,0.0,0.0,0.0,0.0,0.0,0.0,0.0,0.0,-1.3904,-1.3904,-1.3904,-1.3904,-1.3904,0.0,0.0,0.0,0.0,0.0,0.0,0.0,0.0,0.0,0.0,0.0,0.0,0.0,0.0,0.0,0.0,0.0,0.0,0.0,0.0,0.0,0.0,0.0,0.0,0.0,0.0,0.0,0.0,0.0,0.0,0.0,0.0,0.0,0.0,0.0,0.0,0.0,0.0,0.0,0.0,0.0,0.0,0.0,0.0,0.0,0.0,0.0,0.0,0.0,0.0,0.0,0.0,0.0,0.0,0.0,0.0,0.0,0.0,0.0,0.0,0.0,0.0,0.0,0.0,0.0,0.0,0.0,0.0,0.0,0.0,0.0,0.0,0.0,0.0,0.0,0.0,0.0,0.0,0.0,0.0,0.0,0.0,0.0,0.0,0.0,0.0,0.0,0.0,0.0,0.0,0.0,0.0,0.0,0.0,0.0,0.0,0.0,0.0,0.0,0.0,0.0,0.0,0.0,0.0,0.0,0.0,0.0,0.0,0.0,0.0,0.0,0.0,-1.3904,-1.3904,-1.3904,0.0,0.0,0.0,0.0,0.0,0.0,0.0,0.0,0.0,0.0,0.0,0.0,0.0,0.0,0.0,0.0,0.0,0.0,0.0,0.0,0.0,0.0,0.0,0.0,0.0,0.0,0.0,0.0,0.0,0.0,0.0,0.0,0.0,0.0,0.0,0.0,0.0,0.0,0.0,0.0,0.0,0.0,0.0,0.0,0.0,0.0,0.0,0.0,0.0,0.0,0.0,0.0,0.0,0.0,0.0,0.0,0.0,0.0,0.0,0.0,0.0,0.0,0.0,0.0,0.0,0.0,0.0,0.0,0.0,0.0,0.0,0.0,0.0,0.0,0.0,0.0,0.0,0.0,0.0,0.0,0.0,0.0,0.0,0.0,0.0,0.0,0.0,0.0,0.0,0.0,0.0,0.0,0.0,0.0,0.0,0.0,0.0,0.0,0.0,0.0,0.0,0.0,0.0,0.0,0.0,0.0,0.0,0.0,0.0,0.0,-1.3904,-1.3904,-1.3904,0.0,-1.3904,0.0,0.0,0.0,0.0,0.0,0.0,0.0,0.0,0.0,0.0,0.0,0.0,0.0,0.0,0.0,0.0,0.0,0.0,0.0,0.0,0.0,0.0,0.0,0.0,0.0,0.0,0.0,0.0,0.0,0.0,0.0,0.0,0.0,0.0,0.0,0.0,0.0,0.0,0.0,0.0,0.0,0.0,0.0,0.0,0.0,0.0,0.0,0.0,0.0,0.0,0.0,0.0,0.0,0.0,0.0,0.0,0.0,0.0,0.0,0.0,0.0,0.0,0.0,0.0,0.0,0.0,0.0,0.0,0.0,0.0,0.0,0.0,0.0,0.0,0.0,0.0,0.0,0.0,0.0,0.0,0.0,0.0,0.0,0.0,0.0,0.0,0.0,0.0,0.0,0.0,0.0,0.0,0.0,0.0,0.0,0.0,0.0,0.0,0.0,0.0,0.0,0.0,0.0,0.0,0.0,0.0,0.0,0.0,0.0,0.0,-1.3904,-1.3904,-1.3904,-1.3904,0.0,0.0,0.0,0.0,0.0,0.0,0.0,0.0,0.0,0.0,0.0,0.0,0.0,0.0,0.0,0.0,0.0,0.0,0.0,0.0,0.0,0.0,0.0,0.0,0.0,0.0,0.0,0.0,0.0,0.0,0.0,0.0,0.0,0.0,0.0,0.0,0.0,0.0,0.0,0.0,0.0,0.0,0.0,0.0,0.0,0.0,0.0,0.0,0.0,0.0,0.0,0.0,0.0,0.0,0.0,0.0,0.0,0.0,0.0,0.0,0.0,0.0,0.0,0.0,0.0,0.0,0.0,0.0,0.0,0.0,0.0,0.0,0.0,0.0,0.0,0.0,0.0,0.0,0.0,0.0,0.0,0.0,0.0,0.0,0.0,0.0,0.0,0.0,0.0,0.0,0.0,0.0,0.0,0.0,0.0,0.0,0.0,0.0,0.0,0.0,0.0,0.0,0.0,0.0,0.0,0.0,0.0,0.0,0.0,0.0,-1.3904,-1.3904,-1.3904,-1.3904,-1.3904,-1.3904,0.0,0.0,0.0,0.0,0.0,0.0,0.0,0.0,0.0,0.0,0.0,0.0,0.0,0.0,0.0,0.0,0.0,0.0,0.0,0.0,0.0,0.0,0.0,0.0,0.0,0.0,0.0,0.0,0.0,0.0,0.0,0.0,0.0,0.0,0.0,0.0,0.0,0.0,0.0,0.0,0.0,0.0,0.0,0.0,0.0,0.0,0.0,0.0,0.0,0.0,0.0,0.0,0.0,0.0,0.0,0.0,0.0,0.0,0.0,0.0,0.0,0.0,0.0,0.0,0.0,0.0,0.0,0.0,0.0,0.0,0.0,0.0,0.0,0.0,0.0,0.0,0.0,0.0,0.0,0.0,0.0,0.0,0.0,0.0,0.0,0.0,0.0,0.0,0.0,0.0,0.0,0.0,0.0,0.0,0.0,0.0,0.0,0.0,0.0,0.0,0.0,0.0,0.0,0.0,0.0,0.0,0.0,0.0,-1.3904,-1.3904,-1.3904,-1.3904,-1.3904,-1.3904,0.0,0.0,0.0,0.0,0.0,0.0,0.0,0.0,0.0,0.0,0.0,0.0,0.0,0.0,0.0,0.0,0.0,0.0,0.0,0.0,0.0,0.0,0.0,0.0,0.0,0.0,0.0,0.0,0.0,0.0,0.0,0.0,0.0,0.0,0.0,0.0,0.0,0.0,0.0,0.0,0.0,0.0,0.0,0.0,0.0,0.0,0.0,0.0,0.0,0.0,0.0,0.0,0.0,0.0,0.0,0.0,0.0,0.0,0.0,0.0,0.0,0.0,0.0,0.0,0.0,0.0,0.0,0.0,0.0,0.0,0.0,0.0,0.0,0.0,0.0,0.0,0.0,0.0,0.0,0.0,0.0,0.0,0.0,0.0,0.0,0.0,0.0,0.0,0.0,0.0,0.0,0.0,0.0,0.0,0.0,0.0,0.0,0.0,0.0,0.0,0.0,0.0,0.0,0.0,0.0,0.0,0.0,0.0,0.0,-1.3912,-1.3904,-1.3904,-1.3904,-1.3904,-1.3904,0.0,0.0,0.0,0.0,0.0,0.0,0.0,0.0,0.0,0.0,0.0,0.0,0.0,0.0,0.0,0.0,0.0,0.0,0.0,0.0,0.0,0.0,0.0,0.0,0.0,0.0,0.0,0.0,0.0,0.0,0.0,0.0,0.0,0.0,0.0,0.0,0.0,0.0,0.0,0.0,0.0,0.0,0.0,0.0,0.0,0.0,0.0,0.0,0.0,0.0,0.0,0.0,0.0,0.0,0.0,0.0,0.0,0.0,0.0,0.0,0.0,0.0,0.0,0.0,0.0,0.0,0.0,0.0,0.0,0.0,0.0,0.0,0.0,0.0,0.0,0.0,0.0,0.0,0.0,0.0,0.0,0.0,0.0,0.0,0.0,0.0,0.0,0.0,0.0,0.0,0.0,0.0,0.0,0.0,0.0,0.0,0.0,0.0,0.0,0.0,0.0,0.0,0.0,0.0,0.0,0.0,0.0,0.0,0.0,-1.3993,0.0,-1.3928,-1.3985,-1.3993,-1.3993,0.0,0.0,0.0,0.0,0.0,0.0,0.0,0.0,0.0,0.0,0.0,0.0,0.0,0.0,0.0,0.0,0.0,0.0,0.0,0.0,0.0,0.0,0.0,0.0,0.0,0.0,0.0,0.0,0.0,0.0,0.0,0.0,0.0,0.0,0.0,0.0,0.0,0.0,0.0,0.0,0.0,0.0,0.0,0.0,0.0,0.0,0.0,0.0,0.0,0.0,0.0,0.0,0.0,0.0,0.0,0.0,0.0,0.0,0.0,0.0,0.0,0.0,0.0,0.0,0.0,0.0,0.0,0.0,0.0,0.0,0.0,0.0,0.0,0.0,0.0,0.0,0.0,0.0,0.0,0.0,0.0,0.0,0.0,0.0,0.0,0.0,0.0,0.0,0.0,0.0,0.0,0.0,0.0,0.0,0.0,0.0,0.0,0.0,0.0,0.0,0.0,0.0,0.0,0.0,0.0,0.0,0.0,0.0,-1.4188,-1.418,-1.4002,-1.3985,-1.4164,-1.4172,-1.4172,0.0,0.0,0.0,0.0,0.0,0.0,0.0,0.0,0.0,0.0,0.0,0.0,0.0,0.0,0.0,0.0,0.0,0.0,0.0,0.0,0.0,0.0,0.0,0.0,0.0,0.0,0.0,0.0,0.0,0.0,0.0,0.0,0.0,0.0,0.0,0.0,0.0,0.0,0.0,0.0,0.0,0.0,0.0,0.0,0.0,0.0,0.0,0.0,0.0,0.0,0.0,0.0,0.0,0.0,0.0,0.0,0.0,0.0,0.0,0.0,0.0,0.0,0.0,0.0,0.0,0.0,0.0,0.0,0.0,0.0,0.0,0.0,0.0,0.0,0.0,0.0,0.0,0.0,0.0,0.0,0.0,0.0,0.0,0.0,0.0,0.0,0.0,0.0,0.0,0.0,0.0,0.0,0.0,0.0,0.0,0.0,0.0,0.0,0.0,0.0,0.0,0.0,0.0,0.0,0.0,0.0,0.0,0.0,0.0,-1.4529,-1.4123,-1.3985,-1.4172,-1.418,-1.4115,0.0,0.0,0.0,0.0,0.0,0.0,0.0,0.0,0.0,0.0,0.0,0.0,0.0,0.0,0.0,0.0,0.0,0.0,0.0,0.0,0.0,0.0,0.0,0.0,0.0,0.0,0.0,0.0,0.0,0.0,0.0,0.0,0.0,0.0,0.0,0.0,0.0,0.0,0.0,0.0,0.0,0.0,0.0,0.0,0.0,0.0,0.0,0.0,0.0,0.0,0.0,0.0,0.0,0.0,0.0,0.0,0.0,0.0,0.0,0.0,0.0,0.0,0.0,0.0,0.0,0.0,0.0,0.0,0.0,0.0,0.0,0.0,0.0,0.0,0.0,0.0,0.0,0.0,0.0,0.0,0.0,0.0,0.0,0.0,0.0,0.0,0.0,0.0,0.0,0.0,0.0,0.0,0.0,0.0,0.0,0.0,0.0,0.0,0.0,0.0,0.0,0.0,0.0,0.0,0.0,0.0,0.0,0.0,0.0,-1.4692,-1.4245,-1.4091,-1.427,-1.4335,-1.4294,-1.4115,0.0,0.0,0.0,0.0,0.0,0.0,0.0,0.0,0.0,0.0,0.0,0.0,0.0,0.0,0.0,0.0,0.0,0.0,0.0,0.0,0.0,0.0,0.0,0.0,0.0,0.0,0.0,0.0,0.0,0.0,0.0,0.0,0.0,0.0,0.0,0.0,0.0,0.0,0.0,0.0,0.0,0.0,0.0,0.0,0.0,0.0,0.0,0.0,0.0,0.0,0.0,0.0,0.0,0.0,0.0,0.0,0.0,0.0,0.0,0.0,0.0,0.0,0.0,0.0,0.0,0.0,0.0,0.0,0.0,0.0,0.0,0.0,0.0,0.0,0.0,0.0,0.0,0.0,0.0,0.0,0.0,0.0,0.0,0.0,0.0,0.0,0.0,0.0,0.0,0.0,0.0,0.0,0.0,0.0,0.0,0.0,0.0,0.0,0.0,0.0,0.0,0.0,0.0,0.0,0.0,0.0,0.0,0.0,-1.4724,-1.4383,-1.4286,-1.444,-1.4611,-1.4619,0.0,0.0,0.0,0.0,0.0,0.0,0.0,0.0,0.0,0.0,0.0,0.0,0.0,0.0,0.0,0.0,0.0,0.0,0.0,0.0,0.0,0.0,0.0,0.0,0.0,0.0,0.0,0.0,0.0,0.0,0.0,0.0,0.0,0.0,0.0,0.0,0.0,0.0,0.0,0.0,0.0,0.0,0.0,0.0,0.0,0.0,0.0,0.0,0.0,0.0,0.0,0.0,0.0,0.0,0.0,0.0,0.0,0.0,0.0,0.0,0.0,0.0,0.0,0.0,0.0,0.0,0.0,0.0,0.0,0.0,0.0,0.0,0.0,0.0,0.0,0.0,0.0,0.0,0.0,0.0,0.0,0.0,0.0,0.0,0.0,0.0,0.0,0.0,0.0,0.0,0.0,0.0,0.0,0.0,0.0,0.0,0.0,0.0,0.0,0.0,0.0,0.0,0.0,0.0,0.0,0.0,0.0,0.0,0.0,-1.4887,-1.4684,-1.4586,-1.4635,-1.4684,-1.4619,0.0,0.0,0.0,0.0,0.0,0.0,0.0,0.0,0.0,0.0,0.0,0.0,0.0,0.0,0.0,0.0,0.0,0.0,0.0,0.0,0.0,0.0,0.0,0.0,0.0,0.0,0.0,0.0,0.0,0.0,0.0,0.0,0.0,0.0,0.0,0.0,0.0,0.0,0.0,0.0,0.0,0.0,0.0,0.0,0.0,0.0,0.0,0.0,0.0,0.0,0.0,0.0,0.0,0.0,0.0,0.0,0.0,0.0,0.0,0.0,0.0,0.0,0.0,0.0,0.0,0.0,0.0,0.0,0.0,0.0,0.0,0.0,0.0,0.0,0.0,0.0,0.0,0.0,0.0,0.0,0.0,0.0,0.0,0.0,0.0,0.0,0.0,0.0,0.0,0.0,0.0,0.0,0.0,0.0,0.0,0.0,0.0,0.0,0.0,0.0,0.0,0.0,0.0,0.0,0.0,0.0,0.0,0.0,-1.4797,-1.4749,-1.4789,-1.4814,-1.4814,-1.4741,-1.4659,0.0,0.0,0.0,0.0,0.0,0.0,0.0,0.0,0.0,0.0,0.0,0.0,0.0,0.0,0.0,0.0,0.0,0.0,0.0,0.0,0.0,0.0,0.0,0.0,0.0,0.0,0.0,0.0,0.0,0.0,0.0,0.0,0.0,0.0,0.0,0.0,0.0,0.0,0.0,0.0,0.0,0.0,0.0,0.0,0.0,0.0,0.0,0.0,0.0,0.0,0.0,0.0,0.0,0.0,0.0,0.0,0.0,0.0,0.0,0.0,0.0,0.0,0.0,0.0,0.0,0.0,0.0,0.0,0.0,0.0,0.0,0.0,0.0,0.0,0.0,0.0,0.0,0.0,0.0,0.0,0.0,0.0,0.0,0.0,0.0,0.0,0.0,0.0,0.0,0.0,0.0,0.0,0.0,0.0,0.0,0.0,0.0,0.0,0.0,0.0,0.0,0.0,0.0,0.0,0.0,0.0,0.0,0.0,-1.4814,-1.4497,-1.4797,-1.5045,-1.5037,-1.4822,-1.4741,0.0,0.0,0.0,0.0,0.0,0.0,0.0,0.0,0.0,0.0,0.0,0.0,0.0,0.0,0.0,0.0,0.0,0.0,0.0,0.0,0.0,0.0,0.0,0.0,0.0,0.0,0.0,0.0,0.0,0.0,0.0,0.0,0.0,0.0,0.0,0.0,0.0,0.0,0.0,0.0,0.0,0.0,0.0,0.0,0.0,0.0,0.0,0.0,0.0,0.0,0.0,0.0,0.0,0.0,0.0,0.0,0.0,0.0,0.0,0.0,0.0,0.0,0.0,0.0,0.0,0.0,0.0,0.0,0.0,0.0,0.0,0.0,0.0,0.0,0.0,0.0,0.0,0.0,0.0,0.0,0.0,0.0,0.0,0.0,0.0,0.0,0.0,0.0,0.0,0.0,0.0,0.0,0.0,0.0,0.0,0.0,0.0,0.0,0.0,0.0,0.0,0.0,0.0,0.0,0.0,0.0,0.0,0.0,-1.4927,-1.4854,-1.4927,-1.5045,-1.4968,-1.4927,-1.4911,0.0,0.0,0.0,0.0,0.0,0.0,0.0,0.0,0.0,0.0,0.0,0.0,0.0,0.0,0.0,0.0,0.0,0.0,0.0,0.0,0.0,0.0,0.0,0.0,0.0,0.0,0.0,0.0,0.0,0.0,0.0,0.0,0.0,0.0,0.0,0.0,0.0,0.0,0.0,0.0,0.0,0.0,0.0,0.0,0.0,0.0,0.0,0.0,-0.7787,0.0,0.0,0.0,0.0,0.0,0.0,0.0,0.0,0.0,0.0,0.0,0.0,0.0,0.0,0.0,0.0,0.0,0.0,0.0,0.0,0.0,0.0,0.0,0.0,0.0,0.0,0.0,0.0,0.0,0.0,0.0,0.0,0.0,0.0,0.0,0.0,0.0,0.0,0.0,0.0,0.0,0.0,0.0,0.0,0.0,0.0,0.0,0.0,0.0,0.0,0.0,0.0,0.0,0.0,0.0,0.0,0.0,0.0,0.0,-1.4846,-1.4846,-1.4927,-1.5045,-1.5045,-1.5045,-1.5045,0.0,0.0,0.0,0.0,0.0,0.0,0.0,0.0,0.0,0.0,0.0,0.0,0.0,0.0,0.0,0.0,0.0,0.0,0.0,0.0,0.0,0.0,0.0,0.0,0.0,0.0,0.0,0.0,0.0,0.0,0.0,0.0,0.0,0.0,0.0,0.0,0.0,0.0,0.0,0.0,0.0,0.0,0.0,0.0,0.0,0.0,0.0,0.0,0.0,0.0,0.0,0.0,0.0,0.0,0.0,0.0,0.0,0.0,0.0,0.0,0.0,0.0,0.0,0.0,0.0,0.0,0.0,0.0,0.0,0.0,0.0,0.0,0.0,0.0,0.0,0.0,0.0,0.0,0.0,0.0,0.0,0.0,0.0,0.0,0.0,0.0,0.0,0.0,0.0,0.0,0.0,0.0,0.0,0.0,0.0,0.0,0.0,0.0,0.0,0.0,0.0,0.0,0.0,0.0,0.0,0.0,0.0,-1.4708,-1.4724,-1.4749,-1.4895,-1.5045,-1.4968,-1.4944,-1.4927,-1.4927,0.0,0.0,0.0,0.0,0.0,0.0,0.0,0.0,0.0,0.0,0.0,0.0,0.0,0.0,0.0,0.0,0.0,0.0,0.0,0.0,0.0,0.0,0.0,0.0,0.0,0.0,0.0,0.0,0.0,0.0,0.0,0.0,0.0,0.0,0.0,0.0,0.0,0.0,-1.2785,-1.0476,0.0,0.0,0.0,0.0,0.0,0.0,0.0,0.0,-0.739,0.0,0.0,0.0,0.0,0.0,0.0,0.0,0.0,0.0,0.0,0.0,0.0,0.0,0.0,0.0,0.0,0.0,0.0,0.0,0.0,0.0,0.0,0.0,0.0,0.0,0.0,0.0,0.0,0.0,0.0,0.0,0.0,0.0,0.0,0.0,0.0,0.0,0.0,0.0,0.0,0.0,0.0,0.0,0.0,0.0,0.0,0.0,0.0,0.0,0.0,0.0,0.0,0.0,0.0,0.0,0.0,-1.4708,-1.4708,-1.4781,-1.4919,-1.4952,-1.5045,-1.496,-1.4822,-1.4749,-1.4757,0.0,0.0,0.0,0.0,0.0,0.0,0.0,0.0,0.0,0.0,0.0,0.0,0.0,0.0,0.0,0.0,0.0,0.0,0.0,0.0,0.0,0.0,0.0,0.0,0.0,0.0,0.0,0.0,0.0,0.0,0.0,0.0,0.0,0.0,0.0,0.0,0.0,0.0,0.0,-0.9703,-0.8353,0.0,0.0,0.0,0.0,0.0,0.0,0.0,0.0,-0.7464,0.0,0.0,0.0,0.0,0.0,0.0,0.0,0.0,0.0,0.0,0.0,0.0,0.0,0.0,0.0,0.0,0.0,0.0,0.0,0.0,0.0,0.0,0.0,0.0,0.0,0.0,0.0,0.0,0.0,0.0,0.0,0.0,0.0,0.0,0.0,0.0,0.0,0.0,0.0,0.0,0.0,0.0,0.0,0.0,0.0,0.0,0.0,0.0,0.0,0.0,0.0,0.0,0.0,0.0,0.0,-1.4708,-1.4708,-1.4789,-1.5037,-1.5045,-1.5045,-1.5037,-1.4797,-1.4708,0.0,0.0,0.0,0.0,0.0,0.0,0.0,0.0,0.0,0.0,0.0,0.0,0.0,0.0,0.0,0.0,0.0,0.0,0.0,0.0,0.0,0.0,0.0,0.0,0.0,0.0,0.0,0.0,0.0,0.0,0.0,0.0,0.0,0.0,0.0,0.0,0.0,0.0,0.0,0.0,-0.9056,-0.7677,-0.7261,0.0,0.0,0.0,0.0,0.0,0.0,-0.7427,-0.7439,0.0,0.0,0.0,0.0,0.0,0.0,0.0,0.0,0.0,0.0,0.0,0.0,0.0,0.0,0.0,0.0,0.0,0.0,0.0,0.0,0.0,0.0,0.0,0.0,0.0,0.0,0.0,0.0,0.0,0.0,0.0,0.0,0.0,0.0,0.0,0.0,0.0,0.0,0.0,0.0,0.0,0.0,0.0,0.0,0.0,0.0,0.0,0.0,0.0,0.0,0.0,0.0,0.0,0.0,0.0,-1.4757,-1.4724,-1.4789,-1.5037,-1.5045,-1.5045,-1.5037,-1.4765,-1.4667,0.0,0.0,0.0,0.0,0.0,0.0,0.0,0.0,0.0,0.0,0.0,0.0,0.0,0.0,0.0,0.0,0.0,0.0,0.0,0.0,0.0,0.0,0.0,0.0,0.0,0.0,0.0,0.0,0.0,0.0,0.0,0.0,0.0,0.0,0.0,0.0,0.0,0.0,0.0,0.0,0.0,-0.7455,-0.7323,-0.7333,0.0,0.0,0.0,0.0,-0.7395,-0.7403,0.0,0.0,0.0,0.0,0.0,0.0,0.0,0.0,0.0,0.0,0.0,0.0,0.0,0.0,0.0,0.0,0.0,0.0,0.0,0.0,0.0,0.0,0.0,0.0,0.0,0.0,0.0,0.0,0.0,0.0,0.0,0.0,0.0,0.0,0.0,0.0,0.0,0.0,0.0,0.0,0.0,0.0,0.0,0.0,0.0,0.0,0.0,0.0,0.0,0.0,0.0,0.0,0.0,0.0,0.0,0.0,-1.4919,-1.4789,-1.4797,-1.496,-1.5045,-1.5045,-1.5037,-1.4635,-1.4538,0.0,0.0,0.0,0.0,0.0,0.0,0.0,0.0,0.0,0.0,0.0,0.0,0.0,0.0,0.0,0.0,0.0,0.0,0.0,0.0,0.0,0.0,0.0,0.0,0.0,0.0,0.0,0.0,0.0,0.0,0.0,0.0,0.0,0.0,0.0,0.0,0.0,0.0,0.0,0.0,0.0,-0.834,-0.7398,-0.7333,-0.7362,0.0,0.0,-0.748,-0.7403,-0.7456,0.0,0.0,0.0,0.0,0.0,0.0,0.0,0.0,0.0,0.0,0.0,0.0,0.0,0.0,0.0,0.0,0.0,0.0,0.0,0.0,0.0,0.0,0.0,0.0,0.0,0.0,0.0,0.0,0.0,0.0,0.0,0.0,0.0,0.0,0.0,0.0,0.0,0.0,0.0,0.0,0.0,0.0,0.0,0.0,0.0,0.0,0.0,0.0,0.0,0.0,0.0,0.0,0.0,0.0,0.0,-1.4765,-1.4822,-1.4838,-1.4887,-1.496,-1.5045,-1.5045,-1.5045,-1.4619,-1.4521,0.0,0.0,0.0,0.0,0.0,0.0,0.0,0.0,0.0,0.0,0.0,0.0,0.0,0.0,0.0,0.0,0.0,0.0,0.0,0.0,0.0,0.0,0.0,0.0,0.0,0.0,0.0,0.0,0.0,0.0,0.0,0.0,0.0,0.0,0.0,0.0,0.0,0.0,0.0,0.0,0.0,0.0,-0.7335,-0.7378,0.0,0.0,0.0,-0.7476,-0.7337,0.0,0.0,0.0,0.0,0.0,0.0,0.0,0.0,0.0,0.0,0.0,0.0,0.0,0.0,0.0,0.0,0.0,0.0,0.0,0.0,0.0,0.0,0.0,0.0,0.0,0.0,0.0,0.0,0.0,0.0,0.0,0.0,0.0,0.0,0.0,0.0,0.0,0.0,0.0,0.0,0.0,0.0,0.0,0.0,0.0,0.0,0.0,0.0,0.0,0.0,0.0,0.0,0.0,0.0,0.0,0.0,0.0,-1.4781,-1.4895,-1.5045,-1.5045,-1.5045,-1.5045,-1.5037,-1.4358,0.0,0.0,0.0,0.0,0.0,0.0,0.0,0.0,0.0,0.0,0.0,0.0,0.0,0.0,0.0,0.0,0.0,0.0,0.0,0.0,0.0,0.0,0.0,0.0,0.0,0.0,0.0,-1.4716,0.0,0.0,0.0,0.0,0.0,0.0,0.0,0.0,0.0,0.0,0.0,0.0,0.0,0.0,-0.7666,-0.7343,-0.7395,-0.7464,0.0,0.0,-0.7448,-0.7317,-0.7423,-0.7501,0.0,0.0,0.0,0.0,0.0,0.0,0.0,0.0,0.0,0.0,0.0,0.0,0.0,0.0,0.0,0.0,0.0,0.0,0.0,0.0,0.0,0.0,0.0,0.0,0.0,0.0,0.0,0.0,0.0,0.0,0.0,0.0,0.0,0.0,0.0,0.0,0.0,0.0,0.0,0.0,0.0,0.0,0.0,0.0,0.0,0.0,0.0,0.0,0.0,0.0,0.0,0.0,0.0,0.0,0.0,-1.4944,-1.496,-1.5045,-1.5045,-1.5045,-1.5045,-1.496,-1.3634,-1.3011,0.0,0.0,0.0,0.0,0.0,0.0,0.0,0.0,0.0,0.0,0.0,0.0,0.0,0.0,0.0,0.0,0.0,0.0,0.0,0.0,0.0,0.0,0.0,0.0,0.0,0.0,0.0,0.0,0.0,0.0,0.0,0.0,0.0,0.0,0.0,0.0,0.0,0.0,0.0,0.0,0.0,-0.8574,-0.7423,-0.7341,-0.7399,0.0,0.0,-0.7395,-0.7382,-0.746,-0.7525,-0.7517,0.0,0.0,0.0,0.0,0.0,0.0,0.0,0.0,0.0,0.0,0.0,0.0,0.0,0.0,0.0,0.0,0.0,0.0,0.0,0.0,0.0,0.0,0.0,0.0,0.0,0.0,0.0,0.0,0.0,0.0,0.0,0.0,0.0,0.0,0.0,0.0,0.0,0.0,0.0,0.0,0.0,0.0,0.0,0.0,0.0,0.0,0.0,0.0,0.0,0.0,0.0,0.0,0.0,-1.4895,-1.4968,-1.5045,-1.5045,-1.4968,-1.4268,-1.3806,-1.3799,-1.2422,-1.1804,0.0,0.0,0.0,0.0,0.0,0.0,0.0,0.0,0.0,0.0,0.0,0.0,0.0,0.0,0.0,0.0,0.0,0.0,0.0,0.0,0.0,0.0,0.0,0.0,0.0,0.0,0.0,0.0,-1.4911,-1.4871,-1.4871,0.0,0.0,0.0,0.0,0.0,0.0,0.0,0.0,0.0,0.0,-0.7848,-0.7414,-0.7415,0.0,0.0,-0.7435,-0.7435,-0.7329,-0.7431,-0.7509,-0.7452,-0.7488,0.0,0.0,0.0,0.0,0.0,0.0,0.0,0.0,0.0,0.0,0.0,0.0,0.0,0.0,0.0,0.0,0.0,0.0,0.0,0.0,0.0,0.0,0.0,0.0,0.0,0.0,0.0,0.0,0.0,0.0,0.0,0.0,0.0,0.0,0.0,0.0,0.0,0.0,0.0,0.0,0.0,0.0,0.0,0.0,0.0,0.0,0.0,0.0,0.0,0.0,0.0,0.0,-1.5045,-1.5045,-1.5045,-1.4806,-1.4422,-1.3568,-1.293,-1.2497,-1.118,-1.0544,0.0,0.0,0.0,0.0,0.0,0.0,0.0,0.0,0.0,0.0,0.0,0.0,0.0,0.0,0.0,0.0,0.0,0.0,0.0,0.0,0.0,0.0,0.0,0.0,0.0,0.0,0.0,0.0,-1.5045,-1.5045,-1.5045,0.0,0.0,0.0,0.0,0.0,0.0,0.0,0.0,0.0,0.0,-0.7313,-0.7346,-0.7407,-0.7423,-0.7362,-0.7403,-0.7411,-0.7317,-0.7403,-0.7472,-0.7435,0.0,0.0,0.0,0.0,0.0,0.0,0.0,0.0,0.0,0.0,0.0,0.0,0.0,0.0,0.0,0.0,0.0,0.0,0.0,0.0,0.0,0.0,0.0,0.0,0.0,0.0,0.0,0.0,0.0,0.0,-1.5958,0.0,0.0,0.0,0.0,0.0,0.0,0.0,0.0,0.0,0.0,0.0,0.0,0.0,0.0,0.0,0.0,0.0,0.0,0.0,0.0,0.0,0.0,-1.5045,-1.5045,-1.496,-1.4337,-1.3175,-1.3098,-1.2413,-1.1143,-0.9993,-0.9254,-0.9146,0.0,0.0,0.0,0.0,0.0,0.0,0.0,0.0,0.0,0.0,0.0,0.0,0.0,0.0,0.0,0.0,0.0,0.0,0.0,0.0,0.0,0.0,0.0,0.0,0.0,0.0,-1.5045,-1.5045,-1.5045,0.0,0.0,0.0,0.0,0.0,0.0,0.0,0.0,0.0,0.0,-0.8089,-0.7358,-0.728,-0.7268,-0.7276,-0.7268,-0.7272,-0.7297,-0.7366,-0.7386,-0.7419,0.0,0.0,0.0,0.0,0.0,0.0,0.0,0.0,0.0,0.0,0.0,0.0,0.0,0.0,0.0,0.0,0.0,0.0,0.0,0.0,0.0,0.0,0.0,0.0,0.0,0.0,0.0,-1.5756,-1.5853,0.0,0.0,0.0,0.0,0.0,0.0,0.0,0.0,0.0,0.0,0.0,-1.5853,-1.5683,0.0,0.0,0.0,0.0,0.0,0.0,0.0,0.0,0.0,0.0,0.0,0.0,-1.5045,-1.496,-1.4083,-1.3497,-1.3032,-1.1334,-1.0207,-0.9796,-0.8587,-0.7973,-0.7938,0.0,0.0,0.0,0.0,0.0,0.0,0.0,0.0,0.0,0.0,0.0,0.0,0.0,0.0,0.0,0.0,0.0,0.0,0.0,0.0,0.0,0.0,0.0,0.0,0.0,-1.5045,0.0,0.0,0.0,0.0,0.0,0.0,0.0,0.0,0.0,0.0,0.0,-0.8795,-0.8008,-0.7461,-0.7227,-0.726,-0.7264,-0.7264,0.0,0.0,0.0,0.0,0.0,0.0,0.0,0.0,0.0,0.0,0.0,0.0,0.0,0.0,-0.455,-0.4891,-0.4948,-0.4836,-0.4291,0.0,0.0,0.0,0.0,0.0,0.0,0.0,0.0,0.0,0.0,0.0,0.0,0.0,0.0,0.0,0.0,-1.5772,0.0,0.0,0.0,0.0,0.0,0.0,0.0,0.0,-1.574,-1.5691,-1.5675,-1.5496,-1.5423,0.0,-1.5358,-1.5325,0.0,0.0,0.0,0.0,0.0,0.0,0.0,0.0,-1.4846,-1.4705,-1.3536,-1.2648,-1.2189,-1.0225,-0.889,-0.8407,-0.7629,-0.7182,-0.7215,-0.7186,-0.7199,0.0,0.0,0.0,0.0,0.0,0.0,0.0,0.0,0.0,0.0,0.0,0.0,0.0,0.0,0.0,0.0,0.0,0.0,0.0,0.0,0.0,0.0,0.0,-1.5045,0.0,0.0,0.0,0.0,0.0,0.0,0.0,0.0,0.0,-0.9243,-0.8711,-0.8035,-0.7356,-0.7162,-0.7145,-0.7207,0.0,0.0,0.0,0.0,0.0,0.0,0.0,-0.7252,-0.7223,-0.7042,-0.6496,-0.5492,-0.485,-0.4216,-0.339,0.0,0.0,-0.398,-0.4099,-0.3979,-0.3433,-0.3344,-0.3111,-0.2588,-0.2499,-0.2491,0.0,0.0,0.0,0.0,0.0,0.0,0.0,0.0,-1.5577,-1.5593,0.0,-1.574,0.0,0.0,0.0,0.0,0.0,-1.5528,0.0,0.0,-1.5512,-1.5512,-1.5496,-1.5317,-1.515,-1.522,-1.5057,-1.4976,-1.5,-1.5333,0.0,0.0,0.0,0.0,0.0,0.0,-1.4611,-1.4292,-1.3163,-1.2033,-1.0766,-0.9644,-0.8398,-0.7195,-0.7039,-0.7035,-0.7113,-0.7039,-0.7072,-0.7243,-0.717,0.0,0.0,0.0,0.0,0.0,0.0,0.0,0.0,0.0,0.0,0.0,0.0,0.0,0.0,0.0,0.0,0.0,0.0,0.0,0.0,-1.4968,0.0,0.0,0.0,0.0,0.0,0.0,0.0,0.0,0.0,0.0,-0.8965,-0.7914,-0.7121,-0.7121,0.0,0.0,0.0,0.0,-0.7092,-0.7007,-0.7064,-0.7121,-0.7121,-0.7194,-0.7276,-0.7358,0.0,0.0,-0.4073,-0.3696,-0.3355,-0.2622,-0.2554,-0.2463,-0.2439,-0.2536,-0.2553,-0.2554,-0.2578,-0.2517,-0.2518,-0.2521,-0.2519,-1.4992,0.0,0.0,0.0,0.0,-1.5041,-1.5179,-1.539,-1.5342,-1.535,-1.539,-1.539,0.0,0.0,0.0,0.0,0.0,0.0,-1.5512,-1.5512,-1.5382,-1.5317,-1.5309,-1.513,-1.5041,-1.5041,-1.4992,-1.5033,-1.5163,-1.5268,-1.522,-1.5041,0.0,0.0,0.0,0.0,-1.4034,-1.3156,-1.1938,-1.07,-0.9525,-0.8274,-0.7417,-0.7031,-0.7003,-0.7003,-0.7027,-0.7003,-0.7011,-0.7064,-0.7043,0.0,0.0,0.0,0.0,0.0,0.0,0.0,0.0,0.0,0.0,0.0,0.0,0.0,0.0,0.0,0.0,0.0,0.0,0.0,-1.241,-1.396,-1.4653,0.0,0.0,0.0,0.0,0.0,0.0,0.0,0.0,0.0,-0.7678,-0.7305,-0.7027,0.0,0.0,-0.7027,-0.7031,-0.7027,-0.7019,-0.6994,0.0,0.0,0.0,-0.7052,-0.6929,-0.6363,-0.5184,-0.4211,-0.3756,-0.3303,-0.2846,-0.2637,-0.2564,-0.256,-0.2552,-0.2541,-0.2534,-0.2536,-0.2556,-0.2575,-0.2577,-0.2577,-0.2575,-1.5045,-1.5045,-1.5045,-1.5009,-1.5074,-1.5074,-1.5179,-1.535,-1.535,-1.5309,-1.5244,-1.5317,-1.5268,-1.513,-1.513,0.0,0.0,0.0,-1.5301,-1.5293,-1.5179,-1.513,-1.5122,-1.5017,-1.5045,-1.5045,-1.5045,-1.5025,-1.513,-1.5057,-1.4976,-1.4862,0.0,0.0,-1.4505,-1.394,-1.325,-1.2457,-1.0827,-0.9545,-0.8894,-0.767,-0.699,-0.699,-0.699,-0.699,-0.699,-0.699,-0.699,-0.699,-0.699,-0.699,0.0,0.0,0.0,0.0,0.0,0.0,0.0,0.0,0.0,0.0,0.0,-1.1321,0.0,0.0,0.0,0.0,-1.2488,-1.1998,-1.1946,-1.2867,0.0,0.0,0.0,0.0,0.0,0.0,0.0,-0.8247,-0.7534,-0.7072,-0.7072,-0.7056,-0.7031,-0.6994,-0.699,-0.699,-0.699,0.0,-0.7003,-0.7039,-0.7043,-0.7056,-0.7092,-0.6829,-0.6266,-0.5176,-0.433,-0.3554,-0.331,-0.2866,-0.265,-0.2593,-0.2601,-0.2601,-0.2601,-0.2597,-0.259,-0.2579,-0.2589,-0.2601,-0.2601,-0.2601,-0.2601,-1.5045,-1.5045,-1.5045,-1.5065,-1.5212,-1.522,-1.5309,-1.5472,-1.5472,-1.5374,-1.5236,-1.5398,-1.5285,-1.5045,-1.5045,0.0,-1.5045,-1.5045,-1.5053,-1.5045,-1.5045,-1.5045,-1.5045,-1.5045,-1.5045,-1.5045,-1.5045,-1.496,-1.4935,-1.4789,-1.4692,-1.4667,-1.4822,-1.4659,-1.4132,-1.2976,-1.2243,-1.2036,-0.9873,-0.8641,-0.8569,-0.7566,-0.699,-0.699,-0.699,-0.699,-0.699,-0.699,-0.699,-0.699,-0.699,-0.699,-0.699,0.0,0.0,0.0,0.0,0.0,0.0,0.0,0.0,0.0,0.0,0.0,0.0,0.0,0.0,0.0,-1.3007,0.0,-1.2526,-1.1758,0.0,0.0,0.0,-1.0521,-0.9371,-0.9041,-0.8487,-0.7207,0.0,0.0,-0.7011,0.0,-0.7096,-0.7023,-0.7011,-0.7011,-0.7003,-0.7015,-0.7043,-0.7125,-0.7137,-0.7166,-0.7231,-0.6543,-0.5532,-0.4121,-0.3764,-0.3383,-0.2788,-0.2643,-0.2574,-0.2602,-0.2608,-0.2611,-0.2609,-0.2632,-0.2559,-0.2616,-0.2611,-0.2611,-0.2613,-0.2613,-0.2615,-1.5045,-1.5045,-1.5045,-1.4992,-1.5033,-1.5033,-1.5057,-1.5098,-1.5098,-1.5074,-1.5041,-1.5074,-1.5049,-1.5045,-1.5045,-1.5045,-1.5045,-1.5045,-1.5045,-1.5045,-1.5045,-1.5045,-1.5045,-1.5045,-1.5045,-1.5045,-1.5045,-1.4903,-1.4773,-1.4732,-1.457,-1.4318,-1.4343,-1.4302,-1.418,-1.2872,-1.1777,-1.0809,-0.9441,-0.8285,-0.7421,-0.7135,-0.699,-0.699,-0.699,-0.699,-0.699,-0.699,-0.699,-0.699,-0.699,-0.699,-0.699,-0.699,0.0,0.0,0.0,0.0,0.0,0.0,0.0,0.0,0.0,-0.8342,-0.8338,0.0,-0.8891,0.0,-1.1944,-1.2276,-1.0423,-1.1664,0.0,0.0,-0.9889,-0.9574,-0.9182,-0.8178,-0.7442,-0.7129,-0.7047,-0.7043,-0.7178,-0.7154,-0.7145,-0.719,-0.7199,-0.7174,-0.7109,-0.7154,-0.7207,-0.7227,-0.7231,-0.7239,-0.7189,-0.6063,-0.4809,-0.3786,-0.3177,-0.2732,-0.263,-0.2578,-0.2601,-0.2631,-0.2656,-0.2668,-0.2669,-0.2677,-0.2679,-0.2672,-0.2671,-0.2671,-0.2671,-0.2669,-0.2671,-1.5045,-1.5045,-1.5045,-1.5045,-1.5045,-1.5045,-1.5045,-1.5045,-1.5045,-1.5045,-1.5045,-1.5045,-1.5045,-1.5045,-1.5045,-1.5045,-1.5045,-1.5045,-1.5045,-1.5045,-1.5045,-1.5045,-1.5045,-1.5045,-1.5045,-1.496,-1.4887,-1.4797,-1.4708,-1.4546,-1.4072,-1.3436,-1.3874,-1.3545,-1.2525,-1.1791,-1.0809,-0.9657,-0.8502,-0.7638,-0.7063,-0.699,-0.699,-0.699,-0.699,-0.699,-0.699,-0.699,-0.699,-0.699,-0.699,-0.699,-0.699,-0.699,-0.699,0.0,0.0,0.0,0.0,0.0,0.0,0.0,0.0,0.0,0.0,0.0,-0.777,0.0,-1.0301,-1.0839,-0.9392,-1.0081,-1.0235,-0.9315,-0.8804,-0.844,-0.8384,-0.7725,-0.7227,-0.719,-0.7141,-0.7162,-0.7301,-0.7313,-0.7321,-0.7374,-0.7452,-0.7435,-0.7284,-0.7288,-0.7333,-0.7374,-0.7378,-0.7072,-0.6459,-0.5535,-0.447,-0.3337,-0.28,-0.2506,-0.2551,-0.2572,-0.2597,-0.2556,-0.2661,-0.2677,-0.2688,-0.2692,-0.2692,-0.2692,-0.2692,-0.2692,-0.2692,-0.2692,-0.2692,-1.5045,-1.5045,-1.5045,-1.5045,-1.5045,-1.5045,-1.5045,-1.5045,-1.5045,-1.5045,-1.5045,-1.5045,-1.5045,-1.5045,-1.5045,-1.5045,-1.5045,-1.5045,-1.5045,-1.5045,-1.5045,-1.5045,-1.5045,-1.5045,-1.4952,-1.4927,-1.4781,-1.4608,-1.4402,-1.4098,-1.3348,-1.2219,-1.3036,-1.2316,-1.0305,-1.0161,-0.9657,-0.8502,-0.7494,-0.699,-0.699,-0.699,-0.699,-0.699,-0.699,-0.699,-0.699,-0.699,-0.699,-0.699,-0.699,-0.699,-0.699,-0.699,-0.699,0.0,-0.699,0.0,0.0,0.0,0.0,0.0,0.0,0.0,0.0,-0.7313,-0.7475,-0.7734,-0.8736,-0.9315,-0.9177,-0.8252,-0.794,-0.8712,-0.8008,-0.739,-0.739,-0.7378,-0.7354,-0.7305,-0.7284,-0.7317,-0.7431,-0.7505,-0.7542,-0.7566,-0.7676,-0.7693,-0.7517,-0.746,-0.748,-0.755,-0.7562,-0.7005,-0.5579,-0.5106,-0.4478,-0.2985,-0.2512,-0.2523,-0.2548,-0.2557,-0.2577,-0.2622,-0.2554,-0.2652,-0.268,-0.2686,-0.2687,-0.2691,-0.2692,-0.2692,-0.2692,-0.2692,-0.2692,-1.5045,-1.5045,-1.5045,-1.5045,-1.5045,-1.5045,-1.5045,-1.5045,-1.5045,-1.5045,-1.5045,-1.5045,-1.5045,-1.5045,-1.5045,-1.5045,-1.5045,-1.5045,-1.5045,-1.5045,-1.5045,-1.5045,-1.5045,-1.5045,-1.4895,-1.4765,-1.4724,-1.4023,-1.2861,-1.2802,-1.2046,-1.0853,-1.0966,-1.0377,-0.9074,0.0,0.0,0.0,-0.7131,-0.699,-0.699,-0.699,-0.699,-0.699,-0.699,0.0,-0.699,-0.699,-0.699,-0.699,-0.699,0.0,0.0,0.0,0.0,0.0,0.0,0.0,0.0,0.0,0.0,0.0,-0.7023,-0.7072,-0.7145,-0.7166,-0.7619,-0.8851,-0.9102,-0.9188,-0.9341,-0.9123,-0.8663,-0.7886,-0.7586,-0.739,-0.7386,-0.7333,-0.7333,-0.746,-0.7411,-0.7456,-0.7672,-0.7676,-0.7668,-0.7738,-0.7774,-0.7807,-0.7827,-0.7754,-0.7725,-0.7746,-0.7738,-0.7072,-0.5419,-0.5175,-0.4524,-0.2995,-0.2514,-0.2518,-0.2526,-0.2545,-0.2559,-0.2579,-0.2594,-0.262,-0.265,-0.2656,-0.2668,-0.2688,-0.2692,-0.2692,-0.2692,-0.2692,-0.2692,-1.5045,0.0,-1.5045,-1.5045,0.0,-1.5045,-1.5045,-1.5045,-1.5045,-1.5045,-1.5045,-1.5045,-1.5045,-1.5045,-1.5045,-1.5045,-1.5045,-1.5045,-1.5045,-1.5045,-1.5045,-1.5045,-1.496,-1.4879,-1.4789,-1.47,-1.4529,-1.3753,-1.2474,-1.2329,-1.1378,-0.9585,-1.0161,-0.9513,-0.7923,-0.7856,-0.7566,-0.699,-0.699,-0.699,-0.699,-0.699,-0.699,-0.699,0.0,0.0,0.0,0.0,0.0,0.0,0.0,0.0,0.0,0.0,0.0,-0.699,-0.699,-0.699,-0.699,-0.699,-0.699,-0.699,-0.699,-0.7027,-0.7117,-0.7129,-0.7406,-0.8223,-0.8266,-0.8299,-0.8438,-0.8456,-0.817,-0.7595,-0.7484,-0.7472,-0.7513,-0.7488,-0.7513,-0.7627,-0.7623,-0.7664,-0.784,-0.7827,-0.7836,-0.7909,-0.7893,-0.7897,-0.797,-0.7921,-0.7868,-0.7864,-0.7823,-0.7136,-0.5569,-0.5155,-0.4585,-0.304,-0.2557,-0.2551,-0.2538,-0.2549,-0.256,-0.2562,-0.2583,-0.2611,-0.2559,-0.2586,-0.2697,-0.2712,-0.2727,-0.2736,-0.2735,-0.2714,-0.2692,-1.5045,-1.5045,-1.5045,-1.5045,-1.5045,-1.5045,-1.5045,-1.5045,0.0,0.0,0.0,-1.5045,-1.5045,-1.5045,-1.5045,-1.5045,-1.5045,-1.5045,-1.5045,-1.5045,-1.5045,-1.4952,-1.4919,-1.4773,-1.4676,-1.4603,-1.4318,-1.3566,-1.2358,-1.2021,-1.0809,-0.8935,-0.9441,-0.8863,-0.7135,-0.699,-0.699,-0.699,-0.699,-0.699,-0.699,-0.699,-0.699,-0.699,-0.699,-0.699,-0.699,-0.699,-0.699,-0.699,-0.699,-0.699,-0.699,-0.699,-0.699,-0.699,-0.699,-0.699,-0.699,-0.699,-0.699,-0.699,-0.699,-0.7023,-0.7096,-0.7101,-0.7141,-0.7231,-0.7239,-0.7272,-0.7358,-0.7382,-0.7423,-0.7513,-0.7542,-0.7586,-0.7672,-0.7689,-0.7713,-0.7803,-0.7815,-0.7856,-0.7942,-0.7954,-0.7978,-0.8036,-0.7995,-0.7978,-0.8036,-0.7999,-0.7958,-0.795,-0.7741,-0.7033,-0.5628,-0.4971,-0.4318,-0.2923,-0.2598,-0.2593,-0.2574,-0.2567,-0.2567,-0.257,-0.2587,-0.2612,-0.2559,-0.2682,-0.2637,-0.2644,-0.275,-0.2769,-0.277,-0.2736,-0.2703,-1.5045,-1.5045,-1.5045,-1.5045,-1.5045,-1.5045,-1.5045,-1.5045,-1.5045,-1.5045,-1.5045,-1.5045,-1.5045,-1.5045,-1.5045,-1.5045,-1.5045,-1.5045,-1.5045,0.0,-1.5045,-1.4887,-1.4749,-1.4716,-1.4546,-1.4261,-1.4196,-1.3512,-1.2223,-1.1181,-0.9945,-0.8791,-0.7923,-0.7349,-0.699,-0.699,-0.699,-0.699,-0.699,-0.699,-0.699,-0.699,-0.699,-0.699,-0.699,-0.699,-0.699,-0.699,-0.699,-0.699,-0.699,-0.699,-0.699,-0.699,-0.699,-0.699,-0.699,-0.699,-0.699,-0.699,-0.699,-0.699,-0.699,-0.6994,-0.7007,-0.7007,-0.7047,-0.7133,-0.7145,-0.7182,-0.7272,-0.7346,-0.7423,-0.7517,-0.7595,-0.768,-0.7766,-0.7778,-0.7815,-0.7901,-0.7917,-0.7946,-0.8019,-0.8036,-0.804,-0.8056,-0.8044,-0.8048,-0.8048,-0.8052,-0.8044,-0.796,-0.7364,-0.6496,-0.5371,-0.4617,-0.3864,-0.2768,-0.2605,-0.2607,-0.2598,-0.2597,-0.2596,-0.2594,-0.26,-0.2615,-0.2559,-0.2569,-0.2679,-0.2701,-0.2714,-0.2724,-0.2747,-0.2737,-0.2729,-1.5045,-1.5045,-1.5045,-1.5045,-1.5045,-1.5045,-1.5045,-1.5045,-1.5045,-1.5045,-1.5045,-1.5045,-1.5045,-1.5045,-1.5045,-1.5045,-1.5045,-1.5045,-1.5045,-1.5045,-1.5045,-1.4871,-1.4708,-1.4603,-1.4424,-1.418,-1.4075,-1.3411,-1.2252,-1.1599,-1.0809,-0.9585,-0.8502,-0.7928,-0.7851,-0.7276,-0.699,-0.699,-0.699,-0.699,-0.699,-0.699,-0.699,-0.699,-0.699,-0.699,-0.699,-0.699,-0.699,-0.699,-0.699,-0.699,-0.699,-0.699,-0.699,-0.699,-0.699,-0.699,-0.699,-0.699,-0.699,-0.699,-0.699,-0.699,-0.699,-0.699,-0.7007,-0.7047,-0.7052,-0.7088,-0.7178,-0.7268,-0.7374,-0.7513,-0.7607,-0.7721,-0.7844,-0.7872,-0.7909,-0.7987,-0.8003,-0.8019,-0.8056,-0.806,-0.806,-0.806,-0.806,-0.8048,-0.8007,-0.7615,-0.7307,-0.7307,-0.6972,-0.6118,-0.4924,-0.4255,-0.3664,-0.2817,-0.265,-0.2643,-0.2631,-0.2627,-0.2619,-0.2607,-0.2613,-0.263,-0.2565,-0.2676,-0.2698,-0.2712,-0.2732,-0.2747,-0.2759,-0.2751,-0.2739,-1.5045,-1.5045,-1.5045,-1.5045,-1.5045,-1.5045,-1.5045,-1.5045,-1.5045,-1.5045,-1.5045,-1.5045,-1.5045,-1.5045,-1.5045,-1.5045,-1.5045,-1.5045,-1.5045,-1.5037,-1.4927,-1.4814,-1.4635,-1.4456,-1.4286,-1.4115,-1.3969,-1.3468,-1.261,-1.2323,-1.1599,-1.0449,-0.9507,-0.893,-0.8641,-0.7851,-0.7276,-0.699,-0.699,-0.699,-0.699,-0.699,-0.699,-0.699,-0.699,-0.699,-0.699,-0.699,-0.699,-0.699,-0.699,-0.699,-0.699,-0.699,-0.699,-0.699,-0.699,-0.699,-0.699,-0.699,-0.699,-0.699,-0.699,-0.699,-0.699,-0.699,-0.699,-0.699,-0.7015,-0.7056,-0.7129,-0.7231,-0.7354,-0.7509,-0.7627,-0.7758,-0.7905,-0.795,-0.7987,-0.8048,-0.806,-0.806,-0.806,-0.806,-0.8052,-0.8036,-0.8032,-0.8003,-0.7628,-0.7092,-0.6633,-0.6214,-0.6131,-0.5544,-0.4204,-0.3782,-0.3446,-0.2777,-0.269,-0.2677,-0.2662,-0.2574,-0.265,-0.2632,-0.2642,-0.2656,-0.2661,-0.2691,-0.2718,-0.2722,-0.2735,-0.2757,-0.2765,-0.2752,-0.2653,-1.5045,-1.5045,-1.5045,-1.5045,-1.5045,-1.5045,-1.5045,-1.5045,-1.5045,-1.5045,-1.5045,-1.5045,-1.5045,-1.5045,-1.5045,-1.5045,-1.5045,-1.5045,-1.5045,-1.502,-1.4806,-1.4635,-1.4456,-1.4286,-1.4099,-1.3953,-1.3912,-1.3833,-1.3611,-1.2753,-1.1599,-1.0527,-1.0305,-0.9729,-0.8786,-0.8569,-0.7996,-0.699,-0.699,-0.699,-0.699,-0.699,-0.699,-0.699,-0.699,-0.699,-0.699,-0.699,-0.699,-0.699,-0.699,-0.699,-0.699,-0.699,-0.699,-0.699,-0.699,-0.699,-0.699,-0.699,-0.699,-0.699,-0.699,-0.699,-0.699,-0.699,-0.699,-0.7003,-0.7068,-0.7113,-0.7133,-0.7272,-0.7411,-0.7513,-0.7676,-0.7827,-0.7921,-0.8003,-0.8056,-0.806,-0.806,-0.806,-0.806,-0.806,-0.8032,-0.797,-0.7962,-0.7702,-0.6941,-0.6663,-0.6038,-0.4787,-0.4285,-0.4288,-0.3868,-0.3281,-0.2945,-0.2692,-0.2692,-0.2688,-0.2684,-0.2684,-0.2684,-0.2671,-0.2679,-0.2683,-0.2684,-0.2695,-0.2697,-0.2703,-0.2709,-0.2712,-0.2733,-0.2737,-0.2649,-1.5045,-1.5045,-1.5045,-1.5045,-1.5045,-1.5045,-1.5045,-1.5045,-1.5045,-1.5045,-1.5045,-1.5045,-1.5045,-1.5045,-1.5045,-1.5045,-1.5045,-1.5045,-1.4903,-1.4814,-1.4741,-1.4562,-1.4294,-1.4213,-1.4083,-1.3912,-1.3904,-1.3904,-1.3833,-1.3396,-1.2968,-1.2395,-1.1814,-1.0881,-0.9729,-0.9002,-0.814,-0.7063,-0.699,-0.699,-0.699,-0.699,-0.699,-0.699,-0.699,-0.699,-0.699,-0.699,-0.699,-0.699,-0.699,-0.699,-0.699,-0.699,-0.699,-0.699,-0.699,-0.699,-0.699,-0.699,-0.699,-0.699,-0.699,-0.699,-0.6994,-0.7039,-0.7068,-0.7076,-0.7105,-0.7145,-0.7207,-0.7317,-0.7427,-0.7529,-0.7689,-0.7831,-0.7925,-0.8007,-0.806,-0.806,-0.806,-0.806,-0.806,-0.806,-0.8023,-0.7958,-0.7851,-0.7502,-0.6646,-0.6114,-0.5322,-0.4248,-0.3599,-0.3278,-0.3197,-0.2945,-0.2692,-0.2692,-0.2692,-0.2692,-0.2692,-0.2692,-0.2691,-0.2692,-0.2692,-0.2692,-0.2691,-0.2692,-0.2692,-0.2692,-0.2692,-0.2698,-0.2709,-0.2712,-0.271,-1.5045,-1.5045,-1.5045,-1.5045,-1.5045,-1.5045,-1.5045,-1.5045,-1.5045,-1.5045,-1.5045,-1.5045,-1.5045,-1.5045,-1.5045,-1.5045,-1.5045,-1.5045,-1.4871,-1.4716,-1.4659,-1.4473,-1.4196,-1.4123,-1.4034,-1.392,-1.3904,-1.3904,-1.3904,-1.3904,-1.3904,-1.3761,-1.3039,-1.2108,-1.0881,-0.9729,-0.8574,-0.7566,-0.7208,-0.699,-0.699,-0.699,-0.699,-0.699,-0.699,-0.699,-0.699,-0.699,-0.699,-0.699,-0.699,-0.699,-0.699,-0.699,-0.699,-0.699,-0.699,-0.699,-0.699,-0.699,-0.699,-0.699,-0.699,-0.699,-0.7003,-0.7072,-0.7133,-0.7166,-0.7182,-0.7235,-0.7288,-0.7374,-0.7452,-0.7529,-0.7672,-0.7791,-0.7852,-0.7938,-0.7983,-0.7991,-0.7999,-0.804,-0.8052,-0.8036,-0.7987,-0.7913,-0.7647,-0.7211,-0.6256,-0.5389,-0.4527,-0.3705,-0.3075,-0.2765,-0.269,-0.2692,-0.2692,-0.2692,-0.2692,-0.2692,-0.2692,-0.2692,-0.2692,-0.2692,-0.2692,-0.2692,-0.2692,-0.2692,-0.2692,-0.2692,-0.2692,-0.2692,-0.2697,-0.2694,-0.2692,-1.5045,-1.5045,-1.5045,-1.5045,-1.5045,-1.5045,-1.5045,-1.5045,-1.5045,-1.5045,-1.5045,-1.5045,-1.5045,-1.5045,-1.5045,-1.5045,-1.5045,-1.5037,-1.4854,-1.4684,-1.4521,-1.4351,-1.4172,-1.4002,-1.3912,-1.3904,-1.3904,-1.3904,-1.3904,-1.3904,-1.3904,-1.3904,-1.3761,-1.3182,-1.2036,-1.0881,-0.9729,-0.8646,-0.7638,-0.7063,-0.7063,-0.7063,-0.699,-0.699,-0.699,-0.699,-0.699,-0.699,-0.699,-0.699,-0.699,-0.699,-0.699,-0.699,-0.699,-0.699,-0.699,-0.699,-0.699,-0.699,-0.699,-0.699,-0.699,-0.699,-0.7007,-0.7084,-0.717,-0.7248,-0.7325,-0.7374,-0.739,-0.7456,-0.7509,-0.7525,-0.7611,-0.7672,-0.7684,-0.7787,-0.7807,-0.7836,-0.7893,-0.7958,-0.8036,-0.7991,-0.7823,-0.7588,-0.7074,-0.6317,-0.5382,-0.4524,-0.3821,-0.3098,-0.271,-0.2658,-0.2684,-0.2692,-0.2692,-0.2692,-0.2692,-0.2692,-0.2692,-0.2692,-0.2692,-0.2692,-0.2692,-0.2692,-0.2692,-0.2692,-0.2692,-0.2692,-0.2692,-0.2692,-0.2692,-0.2692,-0.2692,-1.5045,-1.5045,-1.5045,-1.5045,-1.5045,-1.5045,-1.5045,-1.5045,-1.5045,-1.5045,-1.5045,-1.5045,-1.5045,-1.5045,-1.5045,-1.5045,-1.4952,-1.4854,-1.4708,-1.4521,-1.4351,-1.4172,-1.4002,-1.3928,-1.3904,-1.3904,-1.3904,-1.3904,-1.3904,-1.3904,-1.3904,-1.3904,-1.3904,-1.3325,-1.2323,-1.1749,-1.0953,-0.9801,-0.8646,-0.8068,-0.7996,-0.7349,-0.699,-0.699,-0.699,-0.699,-0.699,-0.699,-0.699,-0.699,-0.699,-0.699,-0.699,-0.699,-0.699,-0.699,-0.699,-0.699,-0.699,-0.699,-0.699,-0.699,-0.699,-0.7019,-0.7076,-0.7162,-0.7252,-0.7333,-0.7423,-0.7472,-0.748,-0.7509,-0.7525,-0.7537,-0.7607,-0.766,-0.768,-0.7742,-0.7799,-0.7803,-0.7831,-0.786,-0.7885,-0.7868,-0.7568,-0.7087,-0.7069,-0.6317,-0.4844,-0.4469,-0.4101,-0.2982,-0.26,-0.2628,-0.2658,-0.2682,-0.2692,-0.2692,-0.2692,-0.2692,-0.2692,-0.2692,-0.2692,-0.2692,-0.2692,-0.2692,-0.2692,-0.2692,-0.2692,-0.2692,-0.2692,-0.2692,-0.2692,-0.2692,-0.2692,-1.5045,-1.5045,-1.5045,-1.5045,-1.5045,-1.5045,-1.5045,-1.5045,-1.5045,-1.5045,-1.5045,-1.5045,-1.5045,-1.5045,-1.5045,-1.4935,-1.4879,-1.4757,-1.4603,-1.4424,-1.4253,-1.4075,-1.3928,-1.3904,-1.3904,-1.3904,-1.3904,-1.3904,-1.3904,-1.3904,-1.3904,-1.3904,-1.3904,-1.3539,-1.2824,-1.2395,-1.1743,-1.0881,-0.9873,-0.9219,-0.908,-0.814,-0.7566,-0.7494,-0.7204,-0.699,-0.699,-0.699,-0.699,-0.699,-0.699,-0.699,-0.699,-0.699,-0.699,-0.699,-0.699,-0.699,-0.699,-0.699,-0.699,-0.699,-0.7019,-0.7064,-0.7129,-0.7235,-0.7325,-0.7395,-0.7472,-0.7525,-0.7525,-0.7525,-0.7525,-0.7529,-0.7582,-0.7619,-0.7623,-0.7668,-0.7713,-0.7742,-0.775,-0.7766,-0.7791,-0.7799,-0.7516,-0.6876,-0.7024,-0.6039,-0.4729,-0.4108,-0.4132,-0.3183,-0.273,-0.2836,-0.2864,-0.2891,-0.2764,-0.2687,-0.2691,-0.2692,-0.2692,-0.2692,-0.2692,-0.2692,-0.2692,-0.2692,-0.2692,-0.2692,-0.2692,-0.2692,-0.2692,-0.2692,-0.2692,-0.2692,-0.2694,-1.5045,-1.5045,-1.5045,-1.5045,-1.5045,-1.5045,-1.5045,-1.5045,-1.5045,-1.5045,-1.5045,-1.5045,-1.5045,-1.5045,-1.5045,-1.4879,-1.4749,-1.4692,-1.4578,-1.4399,-1.4237,-1.4066,-1.3904,-1.3904,-1.3904,-1.3904,-1.3904,-1.3904,-1.3904,-1.3904,-1.3904,-1.3904,-1.3904,-1.3833,-1.3825,-1.2824,-1.2323,-1.1958,-1.1025,-1.0449,-1.0311,-0.9296,-0.8719,-0.8574,-0.7711,-0.7135,-0.7063,-0.699,-0.699,-0.699,-0.699,-0.699,-0.699,-0.699,-0.699,-0.699,-0.699,-0.699,-0.699,-0.699,-0.699,-0.7015,-0.7072,-0.7121,-0.7178,-0.7288,-0.7386,-0.7415,-0.7472,-0.7525,-0.7525,-0.7525,-0.7525,-0.7525,-0.7537,-0.7542,-0.7537,-0.7529,-0.7562,-0.764,-0.7664,-0.7701,-0.7762,-0.7605,-0.7481,-0.7187,-0.6449,-0.5399,-0.4797,-0.401,-0.3301,-0.3387,-0.3412,-0.3363,-0.331,-0.3175,-0.2896,-0.2682,-0.2688,-0.2692,-0.2692,-0.2692,-0.2692,-0.2692,-0.2692,-0.2692,-0.2692,-0.2692,-0.2692,-0.2692,-0.2692,-0.2692,-0.2692,-0.2695,-0.2701,-1.5045,-1.5045,-1.5045,-1.5045,-1.5045,-1.5045,-1.5045,-1.5045,-1.5045,-1.5045,-1.5045,-1.5045,-1.5045,-1.5045,-1.4968,-1.4871,-1.4708,-1.4578,-1.4424,-1.4253,-1.4075,-1.3961,-1.3912,-1.3904,-1.3904,-1.3904,-1.3904,-1.3904,-1.3904,-1.3904,-1.3904,-1.3904,-1.3904,-1.3904,-1.3904,-1.3539,-1.3325,-1.3253,-1.2252,-1.1678,-1.1527,-1.0449,-0.9873,-0.9729,-0.8791,-0.814,-0.814,-0.7421,-0.699,-0.699,-0.699,-0.699,-0.699,-0.699,-0.699,-0.699,-0.699,-0.699,-0.699,-0.699,-0.7015,-0.7072,-0.7113,-0.719,-0.7288,-0.7354,-0.7419,-0.7468,-0.7509,-0.7525,-0.7525,-0.7525,-0.7525,-0.7525,-0.7525,-0.7525,-0.7525,-0.7525,-0.7537,-0.7558,-0.757,-0.7582,-0.7445,-0.722,-0.69,-0.6877,-0.6233,-0.5591,-0.4557,-0.4633,-0.4552,-0.4086,-0.4027,-0.4049,-0.4008,-0.3969,-0.3697,-0.3248,-0.2933,-0.2775,-0.2777,-0.2692,-0.2692,-0.2692,-0.2692,-0.2692,-0.2692,-0.2692,-0.2692,-0.2694,-0.2694,-0.2695,-0.2695,-0.2705,-0.2718,-1.5045,-1.5045,-1.5045,-1.5045,-1.5045,-1.5045,-1.5045,-1.5045,-1.5045,-1.5045,-1.5045,-1.5045,-1.5045,-1.5045,-1.5045,-1.4871,-1.47,-1.4513,-1.4343,-1.4172,-1.3985,-1.3904,-1.3904,-1.3904,-1.3904,-1.3904,-1.3904,-1.3904,-1.3904,-1.3904,-1.3904,-1.3904,-1.3904,-1.3904,-1.3904,-1.3904,-1.3904,-1.3761,-1.3182,-1.2824,-1.261,-1.1671,-1.1096,-1.0881,-0.9513,-0.8786,-0.8646,-0.7566,-0.699,-0.699,-0.699,-0.699,-0.699,-0.699,-0.699,-0.699,-0.699,-0.699,-0.699,-0.699,-0.7027,-0.7109,-0.7158,-0.7235,-0.7362,-0.7411,-0.7472,-0.7513,-0.7525,-0.7525,-0.7525,-0.7525,-0.7525,-0.7525,-0.7525,-0.7525,-0.7525,-0.7525,-0.7525,-0.7529,-0.7529,-0.7525,-0.7369,-0.7135,-0.6744,-0.6744,-0.6196,-0.5883,-0.4946,-0.5044,-0.4805,-0.4648,-0.4823,-0.4847,-0.487,-0.468,-0.449,-0.3884,-0.3341,-0.3021,-0.2861,-0.2692,-0.2692,-0.2692,-0.2692,-0.2692,-0.2692,-0.2692,-0.2692,-0.2694,-0.2701,-0.2712,-0.272,-0.274,-0.2754,-1.5045,-1.5045,-1.5045,-1.5045,-1.5045,-1.5045,-1.5045,-1.5045,-1.5045,-1.5045,-1.5045,-1.5045,-1.5045,-1.5045,-1.5045,-1.4871,-1.47,-1.4513,-1.4343,-1.4164,-1.3993,-1.3904,-1.3904,-1.3904,-1.3904,-1.3904,-1.3904,-1.3904,-1.3904,-1.3904,-1.3904,-1.3904,-1.3904,-1.3904,-1.3904,-1.3904,-1.3904,-1.3896,-1.3833,-1.3761,-1.3761,-1.2896,-1.218,-1.2036,-1.0083,-0.8858,-0.8569,-0.7638,-0.699,-0.699,-0.699,-0.699,-0.699,-0.699,-0.699,-0.699,-0.699,-0.699,-0.699,-0.7007,-0.7052,-0.7141,-0.7227,-0.7381,-0.7399,-0.7468,-0.7513,-0.7525,-0.7525,-0.7525,-0.7525,-0.7525,-0.7525,-0.7525,-0.7525,-0.7525,-0.7525,-0.7525,-0.7525,-0.7525,-0.7525,-0.7525,-0.7447,-0.7369,-0.7291,-0.7135,-0.6193,-0.5724,-0.5811,-0.5594,-0.5221,-0.5305,-0.5618,-0.5725,-0.5753,-0.5518,-0.5166,-0.4127,-0.3586,-0.3271,-0.2945,-0.2777,-0.2692,-0.2692,-0.2692,-0.2692,-0.2695,-0.2697,-0.2701,-0.2706,-0.2717,-0.2648,-0.2751,-0.2769,-0.2784,-1.5045,-1.5045,-1.5045,-1.5045,-1.5045,-1.5045,-1.5045,-1.5045,-1.5045,-1.5045,-1.5045,-1.5045,-1.5045,-1.5045,-1.5045,-1.4871,-1.4708,-1.4529,-1.4343,-1.4172,-1.3985,-1.3904,-1.3904,-1.3904,-1.3904,-1.3904,-1.3904,-1.3904,-1.3904,-1.3904,-1.3904,-1.3904,-1.3904,-1.3904,-1.3904,-1.3904,-1.3904,-1.3904,-1.3904,-1.3904,-1.3833,-1.3611,-1.3039,-1.2101,-1.0665,-0.9513,-0.8719,-0.7638,-0.699,-0.699,-0.699,-0.699,-0.699,-0.699,-0.699,-0.699,-0.699,-0.699,-0.7003,-0.7052,-0.7129,-0.7219,-0.7297,-0.7395,-0.748,-0.7509,-0.7525,-0.7525,-0.7525,-0.7525,-0.7525,-0.7525,-0.7525,-0.7525,-0.7525,-0.7525,-0.7525,-0.7525,-0.7525,-0.7525,-0.7525,-0.7525,-0.7447,-0.7135,-0.6978,-0.7213,-0.6666,-0.5958,-0.6203,-0.6455,-0.6165,-0.6243,-0.6487,-0.6522,-0.6498,-0.6357,-0.5681,-0.4381,-0.3749,-0.3442,-0.3027,-0.2692,-0.2692,-0.2692,-0.2692,-0.2692,-0.2702,-0.2709,-0.2714,-0.2722,-0.2748,-0.2769,-0.278,-0.2795,-0.2811,-1.5201,-1.5045,-1.5045,-1.5045,-1.5045,-1.5045,-1.5045,-1.5045,-1.5045,-1.5045,-1.5045,-1.5045,-1.5045,-1.5045,-1.5045,-1.4911,-1.4806,-1.4627,-1.4456,-1.4261,-1.4026,-1.3912,-1.3904,-1.3904,-1.3904,-1.3904,-1.3904,-1.3904,-1.3904,-1.3904,-1.3904,-1.3904,-1.3904,-1.3904,-1.3904,-1.3904,-1.3904,-1.3904,-1.3904,-1.3904,-1.3904,-1.3396,-1.2896,-1.1958,-1.0665,-0.9152,-0.8068,-0.7349,-0.699,-0.699,-0.699,-0.699,-0.699,-0.699,-0.699,-0.699,-0.699,-0.7003,-0.7047,-0.7101,-0.7186,-0.7292,-0.7366,-0.7431,-0.7501,-0.7525,-0.7525,-0.7525,-0.7525,-0.7525,-0.7525,-0.7525,-0.7525,-0.7525,-0.7525,-0.7525,-0.7525,-0.7525,-0.7525,-0.7525,-0.7525,-0.7525,-0.7525,-0.7056,-0.7135,-0.7213,-0.6818,-0.6584,-0.6747,-0.7005,-0.7185,-0.7122,-0.702,-0.7,-0.6725,-0.6485,-0.5551,-0.4325,-0.3503,-0.3278,-0.3027,-0.2692,-0.2692,-0.2692,-0.2692,-0.2698,-0.2712,-0.2725,-0.2737,-0.2752,-0.2782,-0.28,-0.281,-0.2821,-0.2836,-1.5472,-1.4944,-1.4952,-1.5045,-1.5045,-1.5045,-1.5045,-1.5045,-1.5045,-1.5045,-1.5045,-1.5045,-1.5045,-1.5045,-1.5045,-1.5037,-1.4944,-1.4757,-1.4586,-1.4367,-1.4123,-1.3953,-1.3961,-1.392,-1.3904,-1.3904,-1.3904,-1.3904,-1.3904,-1.3904,-1.3904,-1.3904,-1.3904,-1.3904,-1.3904,-1.3904,-1.3904,-1.3904,-1.3904,-1.3904,-1.3761,-1.3182,-1.2538,-1.1527,-0.9585,-0.8213,-0.7349,-0.699,-0.699,-0.699,-0.699,-0.699,-0.699,-0.699,-0.699,-0.6998,-0.7011,-0.7047,-0.7113,-0.715,-0.7223,-0.7354,-0.7395,-0.7435,-0.7505,-0.7525,-0.7525,-0.7525,-0.7525,-0.7525,-0.7525,-0.7525,-0.7525,-0.7525,-0.7525,-0.7525,-0.7525,-0.7525,-0.7525,-0.7525,-0.7525,-0.7525,-0.7525,-0.7525,-0.7525,-0.7369,-0.7056,-0.6978,-0.7076,-0.7193,-0.7378,-0.756,-0.7485,-0.7429,-0.6984,-0.6453,-0.5247,-0.4103,-0.3268,-0.2943,-0.2859,-0.2692,-0.2692,-0.2692,-0.2692,-0.2706,-0.2728,-0.2742,-0.2758,-0.2784,-0.2812,-0.2825,-0.2836,-0.2846,-0.2861,-1.5404,-1.4773,-1.4911,-1.5045,-1.5045,-1.5045,-1.5045,-1.5045,-1.5045,-1.5045,-1.5045,-1.5045,-1.5045,-1.5045,-1.5045,-1.5045,-1.502,-1.4781,-1.4611,-1.4416,-1.4229,-1.4123,-1.4083,-1.3985,-1.3912,-1.3904,-1.3904,-1.3904,-1.3904,-1.3904,-1.3904,-1.3904,-1.3904,-1.3904,-1.3904,-1.3904,-1.3904,-1.3904,-1.3904,-1.3904,-1.3896,-1.3539,-1.2538,-1.0953,-0.8719,-0.7494,-0.7135,-0.699,-0.699,-0.699,-0.699,-0.699,-0.699,-0.699,-0.6994,-0.7015,-0.706,-0.7105,-0.7145,-0.7252,-0.7346,-0.7386,-0.7452,-0.7505,-0.7517,-0.7525,-0.7525,-0.7525,-0.7525,-0.7525,-0.7525,-0.7525,-0.7525,-0.7525,-0.7525,-0.7525,-0.7525,-0.7525,-0.7525,-0.7525,-0.7525,-0.7525,-0.7525,-0.7525,-0.7525,-0.7447,-0.7447,-0.7369,-0.733,-0.7382,-0.7505,-0.7701,-0.7467,-0.7237,-0.6453,-0.574,-0.4598,-0.3778,-0.311,-0.2692,-0.2692,-0.2692,-0.2692,-0.2692,-0.2692,-0.2713,-0.2742,-0.2766,-0.2784,-0.2814,-0.284,-0.2849,-0.2859,-0.2872,-0.2874,-1.5601,-1.4724,-1.4895,-1.5045,-1.5045,-1.5045,-1.5045,-1.5045,-1.5045,-1.5045,-1.5045,-1.5045,-1.5045,-1.5045,-1.5045,-1.5045,-1.4927,-1.4789,-1.4659,-1.4538,-1.4383,-1.4253,-1.4172,-1.4075,-1.3993,-1.392,-1.3904,-1.3904,-1.3904,-1.3904,-1.3904,-1.3904,-1.3904,-1.3904,-1.3904,-1.3904,-1.3904,-1.3904,-1.3904,-1.3904,-1.3904,-1.3325,-1.2388,-1.0521,-0.8791,-0.7779,-0.7851,-0.7276,-0.7063,-0.699,-0.699,-0.699,-0.699,-0.699,-0.7007,-0.706,-0.7092,-0.7178,-0.7256,-0.7333,-0.7403,-0.7448,-0.7501,-0.7517,-0.7525,-0.7525,-0.7525,-0.7525,-0.7525,-0.7525,-0.7525,-0.7525,-0.7525,-0.7525,-0.7525,-0.7525,-0.7525,-0.7525,-0.7525,-0.7525,-0.7525,-0.7525,-0.7525,-0.7525,-0.7525,-0.7525,-0.7455,-0.7459,-0.7524,-0.758,-0.7653,-0.771,-0.7378,-0.6866,-0.5912,-0.4934,-0.3774,-0.3194,-0.2859,-0.2692,-0.2692,-0.2692,-0.2692,-0.2694,-0.2698,-0.2731,-0.2759,-0.2784,-0.2811,-0.2841,-0.2861,-0.2871,-0.2874,-0.2874,-0.2874,-1.5833,-1.4684,-1.4854,-1.4944,-1.496,-1.5045,-1.5045,-1.5045,-1.5045,-1.5045,-1.5045,-1.5045,-1.5045,-1.5045,-1.5045,-1.5045,-1.4927,-1.4846,-1.4757,-1.4724,-1.4562,-1.4424,-1.431,-1.4205,-1.4091,-1.3945,-1.3912,-1.3904,-1.3904,-1.3904,-1.3904,-1.3904,-1.3904,-1.3904,-1.3904,-1.3904,-1.3904,-1.3904,-1.3904,-1.3904,-1.3825,-1.3111,-1.2101,-1.0881,-0.9657,-0.9002,-0.8719,-0.8068,-0.7421,-0.7498,-0.7208,-0.7135,-0.7204,-0.7067,-0.7031,-0.7117,-0.7141,-0.7223,-0.7333,-0.7403,-0.7452,-0.7521,-0.7525,-0.7525,-0.7525,-0.7525,-0.7525,-0.7525,-0.7525,-0.7525,-0.7525,-0.7525,-0.7525,-0.7525,-0.7525,-0.7525,-0.7525,-0.7525,-0.7525,-0.7525,-0.7525,-0.7525,-0.7525,-0.7525,-0.7525,-0.7529,-0.7537,-0.757,-0.7635,-0.7633,-0.7637,-0.7452,-0.711,-0.6234,-0.5268,-0.4358,-0.3195,-0.2943,-0.2692,-0.2694,-0.2692,-0.2692,-0.2694,-0.2701,-0.2713,-0.2744,-0.2774,-0.2799,-0.2829,-0.2863,-0.2874,-0.2874,-0.2874,-0.2874,-0.2874,-1.5629,-1.4497,-1.4676,-1.483,-1.5028,-1.5045,-1.5045,-1.5045,-1.5045,-1.5045,-1.5045,-1.5045,-1.5045,-1.5045,-1.5045,-1.5045,-1.5028,-1.4911,-1.4903,-1.4879,-1.4732,-1.4619,-1.4538,-1.4343,-1.4188,-1.4099,-1.4002,-1.392,-1.3904,-1.3904,-1.3904,-1.3904,-1.3904,-1.3904,-1.3904,-1.3904,-1.3904,-1.3904,-1.3904,-1.3904,-1.3825,-1.3611,-1.2968,-1.1893,-1.0737,-1.0233,-0.9873,-0.9152,-0.8863,-0.9513,-0.8,-0.7783,-0.8078,-0.7647,-0.7263,-0.7125,-0.7207,-0.7292,-0.739,-0.746,-0.7497,-0.7521,-0.7525,-0.7525,-0.7525,-0.7525,-0.7525,-0.7525,-0.7525,-0.7525,-0.7525,-0.7525,-0.7525,-0.7525,-0.7525,-0.7525,-0.7525,-0.7525,-0.7525,-0.7525,-0.7525,-0.7525,-0.7525,-0.7529,-0.7542,-0.7562,-0.7591,-0.7635,-0.7705,-0.7633,-0.7479,-0.72,-0.6746,-0.5688,-0.4535,-0.3612,-0.2777,-0.2777,-0.2692,-0.2697,-0.2695,-0.2692,-0.2697,-0.2716,-0.2731,-0.2752,-0.2782,-0.2812,-0.2838,-0.2868,-0.2872,-0.2874,-0.2874,-0.2874,-0.2874,-1.5576,-1.4448,-1.4627,-1.4806,-1.4952,-1.5045,-1.5045,-1.5045,-1.5045,-1.5045,-1.5045,-1.5045,-1.5045,-1.5045,-1.5045,-1.5045,-1.5045,-1.5045,-1.5045,-1.4935,-1.4879,-1.4781,-1.4724,-1.4513,-1.4408,-1.4286,-1.4131,-1.3985,-1.3904,-1.3904,-1.3904,-1.3904,-1.3904,-1.3904,-1.3904,-1.3904,-1.3904,-1.3904,-1.3904,-1.3904,-1.3904,-1.3904,-1.3468,-1.2968,-1.2036,-1.139,-1.1103,-1.0161,-0.9801,-1.0017,-0.9368,-0.9257,-0.9367,-0.9181,-0.8342,-0.7563,-0.7352,-0.7366,-0.7439,-0.7505,-0.7521,-0.7525,-0.7525,-0.7525,-0.7525,-0.7525,-0.7525,-0.7525,-0.7525,-0.7525,-0.7525,-0.7525,-0.7525,-0.7525,-0.7525,-0.7525,-0.7525,-0.7525,-0.7525,-0.7525,-0.7525,-0.7525,-0.7525,-0.7533,-0.7554,-0.7591,-0.764,-0.7705,-0.7774,-0.7452,-0.7128,-0.6496,-0.5942,-0.4777,-0.3868,-0.3279,-0.2692,-0.2692,-0.2699,-0.2702,-0.271,-0.2713,-0.2728,-0.2747,-0.2762,-0.2773,-0.2801,-0.2836,-0.2855,-0.287,-0.2872,-0.2874,-0.2874,-0.2874,-0.2874,-1.5613,-1.4448,-1.4594,-1.4773,-1.4944,-1.5045,-1.5045,-1.5045,-1.5045,-1.5045,-1.5045,-1.5045,-1.5045,-1.5045,-1.5045,-1.5045,-1.5045,-1.5045,-1.5045,-1.5045,-1.4952,-1.4879,-1.4797,-1.47,-1.4611,-1.4481,-1.431,-1.4131,-1.3993,-1.392,-1.3904,-1.3904,-1.3904,-1.3904,-1.3904,-1.3904,-1.3904,-1.3904,-1.3904,-1.3904,-1.3904,-1.3904,-1.3904,-1.3904,-1.2968,-1.2538,-1.2395,-1.1384,-1.1096,-1.1038,-1.0775,-1.0535,-1.0925,-1.0847,-0.9888,-0.8413,-0.7964,-0.774,-0.7497,-0.7521,-0.7525,-0.7525,-0.7525,-0.7525,-0.7525,-0.7525,-0.7525,-0.7525,-0.7525,-0.7525,-0.7525,-0.7525,-0.7525,-0.7525,-0.7525,-0.7525,-0.7525,-0.7525,-0.7525,-0.7525,-0.7525,-0.7529,-0.7529,-0.7574,-0.7603,-0.7656,-0.7705,-0.7795,-0.7782,-0.7099,-0.6583,-0.5691,-0.487,-0.3864,-0.3195,-0.3027,-0.2692,-0.2692,-0.2705,-0.2717,-0.2729,-0.274,-0.2759,-0.278,-0.2788,-0.2801,-0.283,-0.2851,-0.2864,-0.2872,-0.2874,-0.2874,-0.2874,-0.2874,-0.2874,-1.5506,-1.4432,-1.4456,-1.4651,-1.502,-1.5045,-1.5045,-1.5045,-1.5045,-1.5045,-1.5045,-1.5045,-1.5045,-1.5045,-1.5045,-1.5045,-1.5045,-1.5045,-1.5045,-1.5045,-1.5045,-1.4952,-1.4903,-1.4765,-1.4732,-1.4643,-1.4489,-1.431,-1.4164,-1.4018,-1.392,-1.392,-1.3912,-1.3904,-1.3904,-1.3904,-1.3904,-1.3904,-1.3904,-1.3904,-1.3904,-1.3904,-1.3904,-1.3833,-1.369,-1.3539,-1.3396,-1.2538,-1.233,-1.2998,-1.1583,-1.1351,-1.1857,-1.1414,-1.1063,-1.0422,-0.9687,-0.8664,-0.7894,-0.7525,-0.7525,-0.7525,-0.7525,-0.7525,-0.7525,-0.7525,-0.7525,-0.7525,-0.7525,-0.7525,-0.7525,-0.7525,-0.7525,-0.7525,-0.7525,-0.7525,-0.7525,-0.7525,-0.7525,-0.7525,-0.7525,-0.7533,-0.7542,-0.7599,-0.7656,-0.7717,-0.7782,-0.7787,-0.7443,-0.6659,-0.5766,-0.47,-0.4204,-0.3195,-0.2943,-0.2692,-0.2699,-0.2697,-0.2713,-0.2732,-0.2755,-0.2773,-0.2792,-0.281,-0.2818,-0.2823,-0.284,-0.2856,-0.287,-0.2874,-0.2874,-0.2874,-0.2874,-0.2874,-0.2874,-1.548,-1.4432,-1.4432,-1.4635,-1.4944,-1.5045,-1.5045,-1.5045,-1.5045,-1.5045,-1.5045,-1.5045,-1.5045,-1.5045,-1.5045,-1.5045,-1.5045,-1.5045,-1.5045,-1.5045,-1.5045,-1.5045,-1.5028,-1.4895,-1.4854,-1.4797,-1.4692,-1.4578,-1.4408,-1.4213,-1.4058,-1.4042,-1.3961,-1.3904,-1.3912,-1.3904,-1.3904,-1.3904,-1.3904,-1.3904,-1.3904,-1.3904,-1.3904,-1.3904,-1.3904,-1.3904,-1.3769,-1.3547,-1.3387,-1.389,-1.2976,-1.3022,-1.3468,-1.3266,-1.2754,-1.1164,-1.078,-0.9882,-0.8759,-0.7989,-0.7603,-0.7525,-0.7525,-0.7525,-0.7525,-0.7525,-0.7525,-0.7525,-0.7525,-0.7525,-0.7525,-0.7525,-0.7525,-0.7525,-0.7525,-0.7525,-0.7525,-0.7525,-0.7525,-0.7525,-0.7529,-0.7546,-0.7574,-0.7635,-0.7701,-0.7774,-0.7681,-0.7596,-0.6822,-0.5688,-0.4614,-0.353,-0.3195,-0.2777,-0.2777,-0.2692,-0.2709,-0.2714,-0.2725,-0.275,-0.2785,-0.2808,-0.2823,-0.2838,-0.2849,-0.2853,-0.2855,-0.286,-0.2872,-0.2874,-0.2874,-0.2874,-0.2874,-0.2874,-0.2874,-1.5768,-1.4654,-1.4506,-1.4635,-1.496,-1.5045,-1.5045,-1.5045,-1.5045,-1.5045,-1.5045,-1.5045,-1.5045,-1.5045,-1.5045,-1.5045,-1.5045,-1.5045,-1.5045,-1.5045,-1.5045,-1.5045,-1.5037,-1.5028,-1.5028,-1.5045,-1.4838,-1.4765,-1.4667,-1.4489,-1.4302,-1.4237,-1.4075,-1.4002,-1.3961,-1.3928,-1.3904,-1.3904,-1.3904,-1.3904,-1.3904,-1.3904,-1.3904,-1.3904,-1.3904,-1.3928,-1.3961,-1.3977,-1.4066,-1.4132,-1.4171,-1.4167,-1.441,-1.4362,-1.3915,-1.2531,-1.185,-1.0767,-0.9615,-0.8613,-0.7759,-0.7525,-0.7525,-0.7525,-0.7525,-0.7525,-0.7525,-0.7525,-0.7525,-0.7525,-0.7525,-0.7525,-0.7525,-0.7525,-0.7525,-0.7525,-0.7525,-0.7525,-0.7525,-0.7525,-0.7542,-0.7578,-0.7615,-0.7672,-0.7742,-0.7827,-0.7659,-0.7402,-0.6353,-0.5038,-0.4034,-0.3027,-0.2861,-0.2692,-0.2695,-0.2699,-0.2716,-0.2735,-0.2747,-0.2767,-0.2806,-0.2831,-0.2848,-0.2863,-0.2874,-0.2871,-0.2864,-0.287,-0.2874,-0.2874,-0.2874,-0.2874,-0.2874,-0.2874,-0.2874,-1.6568,-1.5476,-1.4728,-1.4635,-1.5045,-1.5045,-1.5045,-1.5045,-1.5045,-1.5045,-1.5045,-1.5045,-1.5045,-1.5045,-1.5045,-1.5045,-1.5045,-1.5045,-1.5045,-1.5045,-1.5045,-1.5045,-1.5045,-1.5045,-1.5045,-1.5045,-1.4919,-1.4919,-1.4895,-1.4741,-1.4562,-1.4416,-1.4253,-1.4188,-1.4123,-1.405,-1.3993,-1.3985,-1.3985,-1.3961,-1.3961,-1.3953,-1.3953,-1.3937,-1.3937,-1.3977,-1.4148,-1.4156,-1.4237,-1.4408,-1.4521,-1.4627,-1.4749,-1.4846,-1.4467,-1.3406,-1.2101,-1.1089,-1.0008,-0.8613,-0.7681,-0.7525,-0.7525,-0.7525,-0.7525,-0.7525,-0.7525,-0.7525,-0.7525,-0.7525,-0.7525,-0.7525,-0.7525,-0.7525,-0.7525,-0.7525,-0.7525,-0.7525,-0.7525,-0.7525,-0.7558,-0.7607,-0.7684,-0.7746,-0.7799,-0.788,-0.7458,-0.7198,-0.6028,-0.4789,-0.3784,-0.3027,-0.2777,-0.2694,-0.2699,-0.2712,-0.2732,-0.2761,-0.2781,-0.28,-0.2826,-0.2848,-0.2864,-0.2868,-0.2874,-0.2874,-0.2874,-0.2874,-0.2874,-0.2874,-0.2874,-0.2874,-0.2874,-0.2874,-0.2874,-1.6927,-1.6204,-1.5467,-1.5085,-1.5045,-1.5045,-1.5045,-1.5045,-1.5045,-1.5045,-1.5045,-1.5045,-1.5045,-1.5045,-1.5045,-1.5045,-1.5045,-1.5045,-1.5045,-1.5045,-1.5045,-1.5045,-1.5045,-1.5045,-1.5045,-1.5045,-1.5045,-1.5045,-1.502,-1.4879,-1.4854,-1.47,-1.4473,-1.4367,-1.4286,-1.4245,-1.4213,-1.4213,-1.4213,-1.4221,-1.4229,-1.4229,-1.4229,-1.4229,-1.4229,-1.4253,-1.4326,-1.4335,-1.444,-1.457,-1.4676,-1.4757,-1.4838,-1.4935,-1.4337,-1.3337,-1.1947,-1.0785,-0.9464,-0.8223,-0.7603,-0.7525,-0.7525,-0.7525,-0.7525,-0.7525,-0.7525,-0.7525,-0.7525,-0.7525,-0.7525,-0.7525,-0.7525,-0.7525,-0.7525,-0.7525,-0.7525,-0.7525,-0.7525,-0.7525,-0.7591,-0.766,-0.7742,-0.7827,-0.7876,-0.7847,-0.7421,-0.6888,-0.5798,-0.4789,-0.3952,-0.3284,-0.3033,-0.2707,-0.2714,-0.2732,-0.2752,-0.2781,-0.2812,-0.283,-0.2846,-0.2857,-0.2871,-0.2874,-0.2874,-0.2874,-0.2874,-0.2874,-0.2874,-0.2874,-0.2874,-0.2874,-0.2874,-0.2874,-0.2874,-1.706,-1.6636,-1.5901,-1.5385,-1.502,-1.5045,-1.5045,-1.5045,-1.5045,-1.5045,-1.5045,-1.5045,-1.5045,-1.5045,-1.5045,-1.5045,-1.5045,-1.5045,-1.5045,-1.5045,-1.5045,-1.5045,-1.5045,-1.5045,-1.5045,-1.5045,-1.5045,-1.5045,-1.5045,-1.5045,-1.502,-1.4862,-1.4732,-1.4611,-1.4497,-1.4456,-1.4432,-1.4432,-1.4432,-1.4432,-1.4424,-1.4416,-1.4408,-1.4408,-1.4399,-1.4448,-1.4489,-1.4521,-1.4611,-1.4724,-1.4806,-1.4854,-1.4919,-1.4814,-1.4037,-1.2797,-1.156,-1.0391,-0.9075,-0.7838,-0.7603,-0.7525,-0.7525,-0.7525,-0.7525,-0.7525,-0.7525,-0.7525,-0.7525,-0.7525,-0.7525,-0.7525,-0.7525,-0.7525,-0.7525,-0.7525,-0.7525,-0.7525,-0.7525,-0.7529,-0.7607,-0.7689,-0.7795,-0.788,-0.795,-0.7821,-0.727,-0.6888,-0.6301,-0.5292,-0.4285,-0.3707,-0.3379,-0.3058,-0.2733,-0.2762,-0.2788,-0.2803,-0.283,-0.2848,-0.2864,-0.2872,-0.2874,-0.2874,-0.2874,-0.2874,-0.2874,-0.2874,-0.2874,-0.2874,-0.2874,-0.2874,-0.2874,-0.2874,-0.2874,-1.707,-1.6636,-1.591,-1.5385,-1.5028,-1.5045,-1.5045,-1.5045,-1.5045,-1.5045,-1.5045,-1.5045,-1.5045,-1.5045,-1.5045,-1.5045,-1.5045,-1.5045,-1.5045,-1.5045,-1.5045,-1.5045,-1.5045,-1.5045,-1.5045,-1.5045,-1.5045,-1.5045,-1.5045,-1.5045,-1.5045,-1.5045,-1.4887,-1.4814,-1.4692,-1.4529,-1.4448,-1.4448,-1.4473,-1.4489,-1.4505,-1.4513,-1.4521,-1.4521,-1.4529,-1.4594,-1.4667,-1.47,-1.4781,-1.4879,-1.4911,-1.5012,-1.5037,-1.5045,-1.4653,-1.4268,-1.2404,-1.1399,-1.1011,-0.8847,-0.7759,-0.7525,-0.7525,-0.7525,-0.7525,-0.7525,-0.7525,-0.7525,-0.7525,-0.7525,-0.7525,-0.7525,-0.7525,-0.7525,-0.7525,-0.7525,-0.7525,-0.7525,-0.7525,-0.755,-0.7623,-0.7709,-0.7827,-0.7929,-0.8011,-0.7797,-0.7136,-0.6721,-0.6469,-0.5882,-0.4957,-0.4046,-0.3638,-0.3244,-0.2926,-0.2796,-0.2823,-0.2836,-0.2846,-0.2861,-0.287,-0.2872,-0.2874,-0.2874,-0.2874,-0.2874,-0.2874,-0.2874,-0.2874,-0.2874,-0.2874,-0.2874,-0.2874,-0.2874,-0.2874,-1.6783,-1.5992,-1.5697,-1.5394,-1.502,-1.5045,-1.5045,-1.5045,-1.5045,-1.5045,-1.5045,-1.5045,-1.5045,-1.5045,-1.5045,-1.5045,-1.5045,-1.5045,-1.5045,-1.5045,-1.5045,-1.5045,-1.5045,-1.5045,-1.5045,-1.5045,-1.5045,-1.5045,-1.5045,-1.5045,-1.5045,-1.5045,-1.5037,-1.4935,-1.4887,-1.4806,-1.4789,-1.4789,-1.4789,-1.4789,-1.4781,-1.4773,-1.4765,-1.4765,-1.4757,-1.4797,-1.4854,-1.4854,-1.4903,-1.496,-1.5045,-1.5045,-1.5045,-1.5045,-1.4653,-1.4107,-1.2558,-1.2101,-1.1011,-0.9075,-0.7603,-0.7525,-0.7525,-0.7525,-0.7525,-0.7525,-0.7525,-0.7525,-0.7525,-0.7525,-0.7525,-0.7525,-0.7525,-0.7525,-0.7525,-0.7525,-0.7525,-0.7525,-0.7533,-0.7578,-0.764,-0.7803,-0.7938,-0.797,-0.8036,-0.806,-0.7558,-0.7056,-0.6721,-0.6385,-0.5798,-0.4556,-0.3814,-0.3426,-0.3119,-0.2902,-0.2842,-0.2855,-0.286,-0.2868,-0.2874,-0.2874,-0.2874,-0.2874,-0.2874,-0.2874,-0.2874,-0.2874,-0.2874,-0.2874,-0.2874,-0.2874,-0.2874,-0.2874,-0.2874,-1.6625,-1.5919,-1.548,-1.5152,-1.502,-1.5045,-1.5045,-1.5045,-1.5045,-1.5045,-1.5045,-1.5045,-1.5045,-1.5045,-1.5045,-1.5045,-1.5045,-1.5045,-1.5045,-1.5045,-1.5045,-1.5045,-1.5045,-1.5045,-1.5045,-1.5045,-1.5045,-1.5045,-1.5045,-1.5045,-1.5045,-1.5045,-1.5045,-1.5037,-1.5028,-1.4935,-1.4935,-1.5004,-1.4919,-1.5004,-1.5012,-1.502,-1.5028,-1.502,-1.502,-1.5037,-1.5037,-1.5045,-1.5045,-1.5045,-1.5045,-1.5045,-1.5045,-1.4891,-1.4576,-1.3953,-1.3182,-1.2565,-1.1089,-0.9542,-0.8457,-0.8301,-0.7838,-0.7525,-0.7525,-0.7525,-0.7525,-0.7525,-0.7525,-0.7525,-0.7525,-0.7525,-0.7525,-0.7525,-0.7525,-0.7525,-0.7525,-0.7525,-0.7533,-0.7582,-0.7693,-0.7868,-0.8015,-0.8032,-0.8056,-0.806,-0.806,-0.7474,-0.6888,-0.6637,-0.6062,-0.4825,-0.3924,-0.3538,-0.323,-0.2917,-0.2853,-0.2871,-0.2874,-0.2874,-0.2874,-0.2874,-0.2874,-0.2874,-0.2874,-0.2874,-0.2874,-0.2874,-0.2874,-0.2874,-0.2874,-0.2874,-0.2874,-0.2874,-0.2874,-1.654,-1.6453,-1.531,-1.4882,-1.5028,-1.5045,-1.5045,-1.5045,-1.5045,-1.5045,-1.5045,-1.5045,-1.5045,-1.5045,-1.5045,-1.5045,-1.5045,-1.5045,-1.5045,-1.5045,-1.5045,-1.5045,-1.5045,-1.5045,-1.5045,-1.5045,-1.5045,-1.5045,-1.5045,-1.5045,-1.5045,-1.5045,-1.5045,-1.5045,-1.5045,-1.5045,-1.5045,-1.5045,-1.5045,-1.5045,-1.5045,-1.5045,-1.5045,-1.5045,-1.5045,-1.5045,-1.5045,-1.5045,-1.5045,-1.5045,-1.5045,-1.5045,-1.5045,-1.5045,-1.4968,-1.4653,-1.3722,-1.2635,-1.1863,-1.0546,-0.962,-0.9309,-0.8379,-0.7833,-0.7525,-0.7525,-0.7525,-0.7525,-0.7525,-0.7525,-0.7525,-0.7525,-0.7525,-0.7525,-0.7525,-0.7525,-0.7525,-0.7529,-0.7537,-0.7603,-0.7729,-0.788,-0.8015,-0.806,-0.806,-0.7976,-0.7809,-0.7139,-0.6637,-0.6721,-0.599,-0.4604,-0.3956,-0.3657,-0.3258,-0.2933,-0.2859,-0.2874,-0.2874,-0.2874,-0.2874,-0.2874,-0.2874,-0.2874,-0.2874,-0.2874,-0.2874,-0.2874,-0.2874,-0.2874,-0.2874,-0.2874,-0.2874,-0.2874,-0.2874,-1.6968,-1.6125,-1.5737,-1.5337,-1.5028,-1.5045,-1.5045,-1.5045,-1.5045,-1.5045,-1.5045,-1.5045,-1.5045,-1.5045,-1.5045,-1.5045,-1.5045,-1.5045,-1.5045,-1.5045,-1.5045,-1.5045,-1.5045,-1.5045,-1.5045,-1.5045,-1.5045,-1.5045,-1.5045,-1.5045,-1.5045,-1.5045,-1.5045,-1.5045,-1.5045,-1.5045,-1.5045,-1.5045,-1.5045,-1.5045,-1.5045,-1.5045,-1.5045,-1.5045,-1.5045,-1.5045,-1.5045,-1.5045,-1.5045,-1.5045,-1.5045,-1.5045,-1.5045,-1.5045,-1.4968,-1.4891,-1.396,-1.3182,-1.3414,-1.194,-1.0701,-1.0391,-0.9464,-0.8379,-0.7911,-0.7525,-0.7525,-0.7525,-0.7525,-0.7525,-0.7525,-0.7525,-0.7525,-0.7525,-0.7529,-0.7533,-0.7537,-0.7554,-0.757,-0.7676,-0.7803,-0.7901,-0.8032,-0.806,-0.806,-0.7893,-0.7474,-0.6804,-0.6308,-0.6311,-0.5673,-0.428,-0.3808,-0.3503,-0.3181,-0.2852,-0.2864,-0.2874,-0.2874,-0.2874,-0.2874,-0.2874,-0.2874,-0.2874,-0.2874,-0.2874,-0.2874,-0.2874,-0.2874,-0.2874,-0.2874,-0.2874,-0.2874,-0.2872,-0.2874,-1.765,-1.6805,-1.621,-1.5624,-1.5037,-1.5045,-1.5045,-1.5045,-1.5045,-1.5045,-1.5045,-1.5045,-1.5045,-1.5045,-1.5045,-1.5045,-1.5045,-1.5045,-1.5045,-1.5045,-1.5045,-1.5045,-1.5045,-1.5045,-1.5045,-1.5045,-1.5045,-1.5045,-1.5045,-1.5045,-1.5045,-1.5045,-1.5045,-1.5045,-1.5045,-1.5045,-1.5045,-1.5045,-1.5045,-1.5045,-1.5045,-1.5045,-1.5045,-1.5045,-1.5045,-1.5045,-1.5045,-1.5045,-1.5045,-1.5045,-1.5045,-1.5045,-1.5045,-1.5045,-1.5045,-1.4891,-1.4499,-1.4268,-1.4345,-1.3105,-1.2017,-1.1166,-1.0164,-0.8842,-0.7989,-0.7525,-0.7525,-0.7525,-0.7525,-0.7525,-0.7525,-0.7525,-0.7525,-0.7525,-0.7533,-0.7542,-0.7562,-0.7578,-0.766,-0.7766,-0.7864,-0.7954,-0.8019,-0.8044,-0.806,-0.7893,-0.7391,-0.6553,-0.5813,-0.533,-0.4774,-0.3619,-0.3396,-0.3256,-0.3016,-0.2859,-0.2867,-0.2874,-0.2874,-0.2874,-0.2874,-0.2874,-0.2874,-0.2874,-0.2874,-0.2874,-0.2874,-0.2874,-0.2874,-0.2874,-0.2871,-0.2866,-0.2866,-0.2868,-0.287,-1.833,-1.8051,-1.6715,-1.5642,-1.5045,-1.5045,-1.5045,-1.5045,-1.5045,-1.5045,-1.5045,-1.5045,-1.5045,-1.5045,-1.5045,-1.5045,-1.5045,-1.5045,-1.5045,-1.5045,-1.5045,-1.5045,-1.5045,-1.5045,-1.5045,-1.5045,-1.5045,-1.5045,-1.5045,-1.5045,-1.5045,-1.5045,-1.5045,-1.5045,-1.5045,-1.5045,-1.5045,-1.5045,-1.5045,-1.5045,-1.5045,-1.5045,-1.5045,-1.5045,-1.5045,-1.5045,-1.5045,-1.5045,-1.5045,-1.5045,-1.5045,-1.5045,-1.5045,-1.5045,-1.5045,-1.4968,-1.4814,-1.4814,-1.4737,-1.3876,-1.2797,-1.1637,-1.0397,-0.9387,-0.8691,-0.7681,-0.7525,-0.7525,-0.7525,-0.7525,-0.7525,-0.7525,-0.7525,-0.7542,-0.7558,-0.7582,-0.7611,-0.7664,-0.777,-0.786,-0.7925,-0.8007,-0.8036,-0.806,-0.806,-0.7893,-0.7056,-0.6134,-0.5499,-0.4762,-0.3948,-0.3122,-0.315,-0.3091,-0.303,-0.2868,-0.2871,-0.2874,-0.2874,-0.2874,-0.2874,-0.2874,-0.2874,-0.2874,-0.2874,-0.2874,-0.2874,-0.2874,-0.2874,-0.2874,-0.287,-0.2859,-0.2856,-0.2859,-0.286,-1.8779,-1.7493,-1.5939,-1.5198,-1.5045,-1.5045,-1.5045,-1.5045,-1.5045,-1.5045,-1.5045,-1.5045,-1.5045,-1.5045,-1.5045,-1.5045,-1.5045,-1.5045,-1.5045,-1.5045,-1.5045,-1.5045,-1.5045,-1.5045,-1.5045,-1.5045,-1.5045,-1.5045,-1.5045,-1.5045,-1.5045,-1.5045,-1.5045,-1.5045,-1.5045,-1.5045,-1.5045,-1.5045,-1.5045,-1.5045,-1.5045,-1.5045,-1.5045,-1.5045,-1.5045,-1.5045,-1.5045,-1.5045,-1.5045,-1.5045,-1.5045,-1.5045,-1.5045,-1.5045,-1.5045,-1.5045,-1.5045,-1.5045,-1.4891,-1.4499,-1.3729,-1.3028,-1.1947,-1.0779,-0.9542,-0.8223,-0.7525,-0.7525,-0.7525,-0.7525,-0.7525,-0.7525,-0.7533,-0.7558,-0.7586,-0.7623,-0.7668,-0.7774,-0.788,-0.7938,-0.7995,-0.8023,-0.8052,-0.806,-0.806,-0.7474,-0.6385,-0.5477,-0.4942,-0.4293,-0.3628,-0.2965,-0.2899,-0.2926,-0.2863,-0.2874,-0.2874,-0.2874,-0.2874,-0.2874,-0.2874,-0.2874,-0.2874,-0.2874,-0.2874,-0.2874,-0.2874,-0.2872,-0.2872,-0.2868,-0.2856,-0.284,-0.2841,-0.2844,-0.2845,-1.8774,-1.7778,-1.6186,-1.5344,-1.5045,-1.5045,-1.5045,-1.5045,-1.5045,-1.5045,-1.5045,-1.5045,-1.5045,-1.5045,-1.5045,-1.5045,-1.5045,-1.5045,-1.5045,-1.5045,-1.5045,-1.5045,-1.5045,-1.5045,-1.5045,-1.5045,-1.5045,-1.5045,-1.5045,-1.5045,-1.5045,-1.5045,-1.5045,-1.5045,-1.5045,-1.5045,-1.5045,-1.5045,-1.5045,-1.5045,-1.5045,-1.5045,-1.5045,-1.5045,-1.5045,-1.5045,-1.5045,-1.5045,-1.5045,-1.5045,-1.5045,-1.5045,-1.5045,-1.5045,-1.5045,-1.5045,-1.5045,-1.5045,-1.5045,-1.4891,-1.4422,-1.3645,-1.3105,-1.1785,-1.0546,-0.9309,-0.8067,-0.7911,-0.7525,-0.7525,-0.7525,-0.7525,-0.7566,-0.7599,-0.764,-0.7676,-0.7782,-0.7905,-0.7966,-0.7999,-0.8036,-0.804,-0.806,-0.806,-0.7897,-0.7154,-0.5975,-0.5163,-0.4535,-0.3985,-0.3226,-0.2808,-0.2829,-0.2845,-0.2867,-0.2874,-0.2874,-0.2874,-0.2874,-0.2874,-0.2874,-0.2874,-0.2874,-0.2874,-0.2874,-0.2874,-0.2874,-0.2863,-0.2855,-0.2848,-0.2833,-0.2818,-0.2822,-0.2822,-0.2818,-1.8699,-1.8395,-1.695,-1.5956,-1.5344,-1.5344,-1.5344,-1.5344,-1.5344,-1.5344,-1.542,-1.542,-1.5267,-1.5045,-1.5045,-1.5045,-1.5045,-1.5045,-1.5045,-1.5045,-1.5045,-1.5045,-1.5045,-1.5045,-1.5045,-1.5045,-1.5045,-1.5045,-1.5045,-1.5045,-1.5045,-1.5045,-1.5045,-1.5045,-1.5045,-1.5045,-1.5045,-1.5045,-1.5045,-1.5045,-1.5045,-1.5045,-1.5045,-1.5045,-1.5045,-1.5045,-1.5045,-1.5045,-1.5045,-1.5045,-1.5045,-1.5045,-1.5045,-1.5045,-1.5045,-1.5045,-1.5045,-1.5045,-1.5045,-1.4968,-1.4345,-1.3799,-1.3414,-1.2719,-1.1553,-1.0319,-0.9075,-0.8301,-0.7916,-0.7529,-0.7529,-0.7554,-0.7603,-0.7656,-0.7697,-0.7758,-0.7893,-0.8007,-0.8032,-0.8056,-0.8056,-0.806,-0.806,-0.806,-0.7566,-0.6738,-0.5927,-0.5112,-0.4297,-0.3657,-0.2991,-0.2831,-0.2849,-0.2864,-0.2874,-0.2874,-0.2874,-0.2874,-0.2874,-0.2874,-0.2874,-0.2874,-0.2874,-0.2872,-0.2872,-0.2866,-0.2852,-0.2838,-0.2831,-0.2823,-0.2814,-0.2799,-0.2782,-0.2784,-0.2782,-1.9229,-1.8547,-1.7559,-1.7102,-1.695,-1.694,-1.694,-1.695,-1.6873,-1.695,-1.6797,-1.6797,-1.6339,-1.5045,-1.5045,-1.5122,-1.542,-1.5275,-1.5122,-1.5045,-1.5198,-1.5122,-1.5045,-1.5122,-1.5045,-1.5045,-1.5045,-1.5045,-1.5045,-1.5045,-1.5045,-1.5045,-1.5045,-1.5045,-1.5045,-1.5045,-1.5045,-1.5045,-1.5045,-1.5045,-1.5045,-1.5045,-1.5045,-1.5045,-1.5045,-1.5045,-1.5045,-1.5045,-1.5045,-1.5045,-1.5045,-1.5045,-1.5045,-1.5045,-1.5045,-1.5045,-1.5045,-1.5045,-1.5045,-1.5045,-1.4499,-1.4499,-1.4268,-1.3953,-1.2719,-1.1482,-1.0241,-0.908,-0.854,-0.7698,-0.7554,-0.7603,-0.7656,-0.7725,-0.7778,-0.7885,-0.8007,-0.8036,-0.8052,-0.806,-0.806,-0.806,-0.806,-0.7897,-0.7482,-0.6667,-0.5699,-0.4884,-0.3987,-0.3421,-0.2838,-0.2852,-0.2867,-0.2871,-0.2874,-0.2874,-0.2874,-0.2874,-0.2874,-0.2874,-0.2874,-0.2874,-0.2874,-0.2872,-0.2857,-0.2845,-0.283,-0.2822,-0.2801,-0.2795,-0.2792,-0.2781,-0.2761,-0.2751,-0.2758]}]]